[[{"header":{"parameterUnit":"m.s-1","parameterCategory":1,"la1":31.0,"la2":29.5877,"lo1":-88.7671,"lo2":-86.6584,"dy":0.0162,"dx":0.0185,"nx":115,"ny":88,"refTime":"2024-07-10T18:00:00:Z","depth":0,"parameterNumber":2,"parameterNumberName":"U-component_of_WINDS"},"data":[0.0,0.0,0.0,0.0,0.0,0.0,0.0,0.0,0.0,0.0,0.0,0.0,0.0,0.0,0.0,0.0,0.0,0.0,0.0,0.0,0.0,0.0,0.0,0.0,0.0,0.0,0.0,0.0,0.0,0.0,0.0,0.0,0.0,0.0,0.0,0.0,0.0,0.0,0.0,0.0,0.0,0.0,0.0,0.0,0.0,0.0,0.0,0.0,0.0,0.0,0.0,0.0,0.0,0.0,0.0,0.0,0.0,0.0,0.0,0.0,0.0,0.0,0.0,0.0,0.0,0.0,0.0,0.0,0.0,0.0,0.0,0.0,0.0,0.0,0.0,0.0,0.0,0.0,0.0,0.0,0.0,0.0,0.0,0.0,0.0,0.0,0.0,0.0,0.0,0.0,0.0,0.0,0.0,0.0,0.0,0.0,0.0,0.0,0.0,0.0,0.0,0.0,0.0,0.0,0.0,0.0,0.0,0.0,0.0,0.0,0.0,0.0,0.0,0.0,0.0,0.0,0.0,0.0,0.0,0.0,0.0,0.0,0.0,0.0,0.0,0.0,0.0,0.0,0.0,0.0,0.0,0.0,0.0,0.0,0.0,0.0,0.0,0.0,0.0,0.0,0.0,0.0,0.0,0.0,0.0,0.0,0.0,0.0,0.0,0.0,0.0,0.0,0.0,0.0,0.0,0.0,0.0,0.0,0.0,0.0,0.0,0.0,0.0,0.0,0.0,0.0,0.0,0.0,0.0,0.0,0.0,0.0,0.0,0.0,0.0,0.0,0.0,0.0,0.0,0.0,0.0,0.0,0.0,0.0,0.0,0.0,0.0,0.0,0.0,0.0,0.0,0.0,0.0,0.0,0.0,0.0,0.0,0.0,0.0,0.0,0.0,0.0,0.0,0.0,0.0,0.0,0.0,0.0,0.0,0.0,0.0,0.0,0.0,0.0,0.0,0.0,0.0,0.0,0.0,0.0,0.0,0.0,0.0,0.0,0.0,0.0,0.0,0.0,0.0,0.0,0.0,0.0,0.0,0.0,0.0,0.0,0.0,0.0,0.0,0.0,0.0,0.0,0.0,0.0,0.0,0.0,0.0,0.0,0.0,0.0,0.0,0.0,0.0,0.0,0.0,0.0,0.0,0.0,0.0,0.0,0.0,0.0,0.0,0.0,0.0,0.0,0.0,0.0,0.0,0.0,0.0,0.0,0.0,0.0,0.0,0.0,0.0,0.0,0.0,0.0,0.0,0.0,0.0,0.0,0.0,0.0,0.0,0.0,0.0,0.0,0.0,0.0,0.0,0.0,0.0,0.0,0.0,0.0,0.0,0.0,0.0,0.0,0.0,0.0,0.0,0.0,0.0,0.0,0.0,0.0,0.0,0.0,0.0,0.0,0.0,0.0,0.0,0.0,0.0,0.0,0.0,0.0,0.0,0.0,0.0,0.0,0.0,0.0,0.0,0.0,0.0,0.0,0.0,0.0,0.0,0.0,0.0,0.0,0.0,0.0,0.0,0.0,0.0,0.0,0.0,0.0,0.0,0.0,0.0,0.0,0.0,0.0,0.0,0.0,0.0,0.0,0.0,0.0,0.0,0.0,0.0,0.0,0.0,0.0,0.0,0.0,0.0,0.0,0.0,0.0,0.0,0.0,0.0,0.0,0.0,0.0,0.0,0.0,0.0,0.0,0.0,0.0,0.0,0.0,0.0,0.0,0.0,0.0,0.0,0.0,0.0,0.0,0.0,0.0,0.0,0.0,0.0,0.0,0.0,0.0,0.0,0.0,0.0,0.0,0.0,0.0,0.0,0.0,0.0,0.0,0.0,0.0,0.0,0.0,0.0,0.0,0.0,0.0,0.0,0.0,0.0,0.0,0.0,0.0,0.0,0.0,0.0,0.0,0.0,0.0,0.0,0.0,0.0,0.0,0.0,0.0,0.0,0.0,0.0,0.0,0.0,0.0,0.0,0.0,0.0,0.0,0.0,0.0,0.0,0.0,0.0,0.0,0.0,0.0,0.0,0.0,0.0,0.0,0.0,0.0,0.0,0.0,0.0,0.0,0.0,0.0,0.0,0.0,0.0,0.0,0.0,0.0,0.0,0.0,0.0,0.0,0.0,0.0,0.0,0.0,0.0,0.0,0.0,0.0,0.0,0.0,0.0,0.0,0.0,0.0,0.0,0.0,0.0,0.0,0.0,0.0,0.0,0.0,0.0,0.0,0.0,0.0,0.0,0.0,0.0,0.0,0.0,0.0,0.0,0.0,0.0,0.0,0.0,0.0,0.0,0.0,0.0,0.0,0.0,0.0,0.0,0.0,0.0,0.0,0.0,0.0,0.0,0.0,0.0,0.0,0.0,0.0,0.0,0.0,0.0,0.0,0.0,0.0,0.0,0.0,0.0,0.0,0.0,0.0,0.0,0.0,0.0,0.0,0.0,0.0,0.0,0.0,0.0,0.0,0.0,0.0,0.0,0.0,0.0,0.0,0.0,0.0,0.0,0.0,0.0,0.0,0.0,0.0,0.0,0.0,0.0,0.0,0.0,0.0,0.0,0.0,0.0,0.0,0.0,0.0,0.0,0.0,0.0,0.0,0.0,0.0,0.0,0.0,0.0,0.0,0.0,0.0,0.0,0.0,0.0,0.0,0.0,0.0,0.0,0.0,0.0,0.0,0.0,0.0,0.0,0.0,0.0,0.0,0.0,0.0,0.0,0.0,0.0,0.0,0.0,0.0,0.0,0.0,0.0,0.0,0.0,0.0,0.0,0.0,0.0,0.0,0.0,0.0,0.0,0.0,0.0,0.0,0.0,0.0,0.0,0.0,0.0,0.0,0.0,0.0,0.0,0.0,0.0,0.0,0.0,0.0,0.0,0.0,0.0,0.0,0.0,0.0,0.0,0.0,0.0,0.0,0.0,0.0,0.0,0.0,0.0,0.0,0.0,0.0,0.0,0.0,0.0,0.0,0.0,0.0,0.0,0.0,0.0,0.0,0.0,0.0,0.0,0.0,0.0,0.0,0.0,0.0,0.0,0.0,0.0,0.0,0.0,0.0,0.0,0.0,0.0,0.0,0.0,0.0,0.0,0.0,0.0,0.0,0.0,0.0,0.0,0.0,0.0,0.0,0.0,0.0,0.0,0.0,0.0,0.0,0.0,0.0,0.0,0.0,0.0,0.0,0.0,0.0,0.0,0.0,0.0,0.0,0.0,0.0,0.0,0.0,0.0,0.0,0.0,0.0,0.0,0.0,0.0,0.0,0.0,0.0,0.0,0.0,0.0,0.0,0.0,0.0,0.0,0.0,0.0,0.0,0.0,0.0,0.0,0.0,0.0,0.0,0.0,0.0,0.0,0.0,0.0,0.0,0.0,0.0,0.0,0.0,0.0,0.0,0.0,0.0,0.0,0.0,0.0,0.0,0.0,0.0,0.0,0.0,0.0,0.0,0.0,0.0,0.0,0.0,0.0,0.0,0.0,0.0,0.0,0.0,0.0,0.0,0.0,0.0,0.0,0.0,0.0,0.0,0.0,0.0,0.0,0.0,0.0,0.0,0.0,0.0,0.0,0.0,0.0,0.0,0.0,0.0,0.0,0.0,0.0,0.0,0.0,0.0,0.0,0.0,0.0,0.0,0.0,0.0,0.0,0.0,0.0,0.0,0.0,0.0,0.0,0.0,0.0,0.0,0.0,0.0,0.0,0.0,0.0,0.0,0.0,0.0,0.0,0.0,0.0,0.0,0.0,0.0,0.0,0.0,0.0,0.0,0.0,0.0,0.0,0.0,0.0,0.0,0.0,0.0,0.0,0.0,0.0,0.0,0.0,0.0,0.0,0.0,0.0,0.0,0.0,0.0,0.0,0.0,0.0,0.0,0.0,0.0,0.0,0.0,0.0,0.0,0.0,0.0,0.0,0.0,0.0,0.0,0.0,0.0,0.0,0.0,0.0,0.0,0.0,0.0,0.0,0.0,0.0,0.0,0.0,0.0,0.0,0.0,0.0,0.0,0.0,0.0,0.0,0.0,0.0,0.0,0.0,0.0,0.0,0.0,0.0,0.0,0.0,0.0,0.0,0.0,0.0,0.0,0.0,0.0,0.0,0.0,0.0,0.0,0.0,0.0,0.0,0.0,0.0,0.0,0.0,0.0,0.0,0.0,0.0,0.0,0.0,0.0,0.0,0.0,0.0,0.0,0.0,0.0,0.0,0.0,0.0,0.0,0.0,0.0,0.0,0.0,0.0,0.0,0.0,0.0,0.0,0.0,0.0,0.0,0.0,0.0,0.0,0.0,-0.3619,0.0,0.0,0.0,0.0,0.0,0.0,0.0,0.0,0.0,0.0,0.0,0.0,0.0,0.0,0.0,0.0,0.0,0.0,0.0,0.0,0.0,0.0,0.0,0.0,0.0,0.0,0.0,0.0,0.0,0.0,0.0,0.0,0.0,0.0,0.0,0.0,0.0,0.0,0.0,0.0,0.0,0.0,0.0,0.0,0.0,0.0,0.0,0.0,0.0,0.0,0.0,0.0,0.0,0.0,0.0,0.0,0.0,0.0,0.0,0.0,0.0,0.0,0.0,0.0,0.0,0.0,0.0,0.0,0.0,0.0,0.0,0.0,0.0,0.0,0.0,0.0,0.0,0.0,0.0,0.0,0.0,0.0,0.0,0.0,0.0,0.0,0.0,0.0,0.0,0.0,0.0,0.0,0.0,0.0,0.0,0.0,0.0,0.0,0.0,0.0,0.0,0.0,0.0,0.0,0.0,0.0,0.0,0.0,0.0,0.0,-0.364,-0.3668,-0.3626,-0.3563,-0.3535,0.0,0.0,0.0,0.0,0.0,0.0,0.0,0.0,0.0,0.0,0.0,0.0,0.0,0.0,0.0,0.0,0.0,0.0,0.0,0.0,0.0,0.0,0.0,0.0,0.0,0.0,0.0,0.0,0.0,0.0,0.0,0.0,0.0,0.0,0.0,0.0,0.0,0.0,0.0,0.0,0.0,0.0,0.0,0.0,0.0,0.0,0.0,0.0,0.0,0.0,0.0,0.0,0.0,0.0,0.0,0.0,0.0,0.0,0.0,0.0,0.0,0.0,0.0,0.0,0.0,0.0,0.0,0.0,0.0,0.0,0.0,0.0,0.0,0.0,0.0,0.0,0.0,0.0,0.0,0.0,0.0,0.0,0.0,0.0,0.0,0.0,0.0,0.0,0.0,0.0,0.0,0.0,0.0,0.0,0.0,0.0,0.0,0.0,0.0,0.0,0.0,0.0,0.0,0.0,0.0,0.0,0.0,0.0,0.0,0.0,0.0,0.0,-0.3721,-0.3698,-0.3705,0.0,0.0,0.0,0.0,0.0,0.0,0.0,0.0,0.0,0.0,0.0,0.0,0.0,0.0,0.0,0.0,0.0,0.0,0.0,0.0,0.0,0.0,0.0,0.0,0.0,0.0,0.0,0.0,0.0,0.0,0.0,0.0,0.0,0.0,0.0,0.0,0.0,0.0,0.0,0.0,0.0,0.0,0.0,0.0,0.0,0.0,0.0,0.0,0.0,0.0,0.0,0.0,0.0,0.0,0.0,0.0,0.0,0.0,0.0,0.0,0.0,0.0,0.0,0.0,0.0,0.0,0.0,0.0,0.0,0.0,0.0,0.0,0.0,0.0,0.0,0.0,0.0,0.0,0.0,0.0,0.0,0.0,0.0,0.0,0.0,0.0,0.0,0.0,0.0,0.0,0.0,0.0,0.0,0.0,0.0,0.0,0.0,0.0,0.0,0.0,0.0,0.0,0.0,0.0,0.0,0.0,0.0,0.0,0.0,0.0,-0.3774,-0.4302,-0.4315,0.0,-0.4329,0.0,0.0,0.0,0.0,0.0,0.0,0.0,0.0,0.0,0.0,0.0,0.0,0.0,0.0,0.0,0.0,0.0,0.0,0.0,0.0,0.0,0.0,0.0,0.0,0.0,0.0,0.0,0.0,0.0,0.0,0.0,0.0,0.0,0.0,0.0,0.0,0.0,0.0,0.0,0.0,0.0,0.0,0.0,0.0,0.0,0.0,0.0,0.0,0.0,0.0,0.0,0.0,0.0,0.0,0.0,0.0,0.0,0.0,0.0,0.0,0.0,0.0,0.0,0.0,0.0,0.0,0.0,0.0,0.0,0.0,0.0,0.0,0.0,0.0,0.0,0.0,0.0,0.0,0.0,0.0,0.0,0.0,0.0,0.0,0.0,0.0,0.0,0.0,0.0,0.0,0.0,0.0,0.0,0.0,0.0,0.0,0.0,0.0,0.0,0.0,0.0,0.0,0.0,0.0,0.0,0.0,0.0,0.0,0.0,0.0,0.0,-0.4395,-0.4395,-0.4395,0.0,0.0,0.0,0.0,0.0,0.0,0.0,0.0,0.0,0.0,0.0,0.0,0.0,0.0,0.0,0.0,0.0,0.0,0.0,0.0,0.0,0.0,0.0,0.0,0.0,0.0,0.0,0.0,0.0,0.0,0.0,0.0,0.0,0.0,0.0,0.0,0.0,0.0,0.0,0.0,0.0,0.0,0.0,0.0,0.0,0.0,0.0,0.0,0.0,0.0,0.0,0.0,0.0,0.0,0.0,0.0,0.0,0.0,0.0,0.0,0.0,0.0,0.0,0.0,0.0,0.0,0.0,0.0,0.0,0.0,0.0,0.0,0.0,0.0,0.0,0.0,0.0,0.0,0.0,0.0,0.0,0.0,0.0,0.0,0.0,0.0,0.0,0.0,0.0,0.0,0.0,0.0,0.0,0.0,0.0,0.0,0.0,0.0,0.0,0.0,0.0,0.0,0.0,0.0,0.0,0.0,0.0,0.0,0.0,0.0,-0.4275,0.0,-0.4636,-0.4643,-0.4597,-0.4409,0.0,0.0,0.0,0.0,0.0,0.0,0.0,0.0,0.0,0.0,0.0,0.0,0.0,0.0,0.0,0.0,0.0,0.0,0.0,0.0,0.0,0.0,0.0,0.0,0.0,0.0,0.0,0.0,0.0,0.0,0.0,0.0,0.0,0.0,0.0,0.0,0.0,0.0,0.0,0.0,0.0,0.0,0.0,0.0,0.0,0.0,0.0,0.0,0.0,0.0,0.0,0.0,0.0,0.0,0.0,0.0,0.0,0.0,0.0,0.0,0.0,0.0,0.0,0.0,0.0,0.0,0.0,0.0,0.0,0.0,0.0,0.0,0.0,0.0,0.0,0.0,0.0,0.0,0.0,0.0,0.0,0.0,0.0,0.0,0.0,0.0,0.0,0.0,0.0,0.0,0.0,0.0,0.0,0.0,0.0,0.0,0.0,0.0,0.0,0.0,0.0,0.0,0.0,0.0,0.0,0.0,0.0,0.0,0.0,-0.4669,-0.4676,-0.5217,-0.5237,-0.4977,0.0,0.0,0.0,0.0,0.0,0.0,0.0,0.0,0.0,0.0,0.0,0.0,0.0,0.0,0.0,0.0,0.0,0.0,0.0,0.0,0.0,0.0,0.0,0.0,0.0,0.0,0.0,0.0,0.0,0.0,0.0,0.0,0.0,0.0,0.0,0.0,0.0,0.0,0.0,0.0,0.0,0.0,0.0,0.0,0.0,0.0,0.0,0.0,0.0,0.0,0.0,0.0,0.0,0.0,0.0,0.0,0.0,0.0,0.0,0.0,0.0,0.0,0.0,0.0,0.0,0.0,0.0,0.0,0.0,0.0,0.0,0.0,0.0,0.0,0.0,0.0,0.0,0.0,0.0,0.0,0.0,0.0,0.0,0.0,0.0,0.0,0.0,0.0,0.0,0.0,0.0,0.0,0.0,0.0,0.0,0.0,0.0,0.0,0.0,0.0,0.0,0.0,0.0,0.0,0.0,0.0,0.0,0.0,0.0,-0.4142,-0.4186,-0.46,-0.5377,-0.4834,-0.4443,0.0,0.0,0.0,0.0,0.0,0.0,0.0,0.0,0.0,0.0,0.0,0.0,0.0,0.0,0.0,0.0,0.0,0.0,0.0,0.0,0.0,0.0,0.0,0.0,0.0,0.0,0.0,0.0,0.0,0.0,0.0,0.0,0.0,0.0,0.0,0.0,0.0,0.0,0.0,0.0,0.0,0.0,0.0,0.0,0.0,0.0,0.0,0.0,0.0,0.0,0.0,0.0,0.0,0.0,0.0,0.0,0.0,0.0,0.0,0.0,0.0,0.0,0.0,0.0,0.0,0.0,0.0,0.0,0.0,0.0,0.0,0.0,0.0,0.0,0.0,0.0,0.0,0.0,0.0,0.0,0.0,0.0,0.0,0.0,0.0,0.0,0.0,0.0,0.0,0.0,0.0,0.0,0.0,0.0,0.0,0.0,0.0,0.0,0.0,0.0,0.0,0.0,0.0,0.0,0.0,0.0,0.0,0.0,0.0,-0.3941,0.0,-0.4947,0.0,-0.4667,-0.4123,0.0,0.0,0.0,0.0,0.0,0.0,0.0,0.0,0.0,0.0,0.0,0.0,0.0,0.0,0.0,0.0,0.0,0.0,0.0,0.0,0.0,0.0,0.0,0.0,0.0,0.0,0.0,0.0,0.0,0.0,0.0,0.0,0.0,0.0,0.0,0.0,0.0,0.0,0.0,0.0,0.0,0.0,0.0,0.0,0.0,0.0,0.0,0.0,0.0,0.0,0.0,0.0,0.0,0.0,0.0,0.0,0.0,0.0,0.0,0.0,0.0,0.0,0.0,0.0,0.0,0.0,0.0,0.0,0.0,0.0,0.0,0.0,0.0,0.0,0.0,0.0,0.0,0.0,0.0,0.0,0.0,0.0,0.0,0.0,0.0,0.0,0.0,0.0,0.0,0.0,0.0,0.0,0.0,0.0,0.0,0.0,0.0,0.0,0.0,0.0,0.0,0.0,0.0,0.0,0.0,0.0,0.0,0.0,-0.3725,-0.4815,-0.5646,-0.5615,-0.4856,-0.4738,-0.4106,0.0,0.0,0.0,0.0,0.0,0.0,0.0,0.0,0.0,0.0,0.0,0.0,0.0,0.0,0.0,0.0,0.0,0.0,0.0,0.0,0.0,0.0,0.0,0.0,0.0,0.0,0.0,0.0,0.0,0.0,0.0,0.0,0.0,0.0,0.0,0.0,0.0,0.0,0.0,0.0,0.0,0.0,0.0,0.0,0.0,0.0,0.0,0.0,0.0,0.0,0.0,0.0,0.0,0.0,0.0,0.0,0.0,0.0,0.0,0.0,0.0,0.0,0.0,0.0,0.0,0.0,0.0,0.0,0.0,0.0,0.0,0.0,0.0,0.0,0.0,0.0,0.0,0.0,0.0,0.0,0.0,0.0,0.0,0.0,0.0,0.0,0.0,0.0,0.0,0.0,0.0,0.0,0.0,0.0,0.0,0.0,0.0,0.0,0.0,0.0,0.0,0.0,0.0,0.0,0.0,0.0,0.0,0.0,0.0,-0.3849,-0.4221,-0.4453,-0.4522,-0.3864,-0.3408,0.0,0.0,0.0,0.0,0.0,0.0,0.0,0.0,0.0,0.0,0.0,0.0,0.0,0.0,0.0,0.0,0.0,0.0,0.0,0.0,0.0,0.0,0.0,0.0,0.0,0.0,0.0,0.0,0.0,0.0,0.0,0.0,0.0,0.0,0.0,0.0,0.0,0.0,0.0,0.0,0.0,0.0,0.0,0.0,0.0,0.0,0.0,0.0,0.0,0.0,0.0,0.0,0.0,0.0,0.0,0.0,0.0,0.0,0.0,0.0,0.0,0.0,0.0,0.0,0.0,0.0,0.0,0.0,0.0,0.0,0.0,0.0,0.0,0.0,0.0,0.0,0.0,0.0,0.0,0.0,0.0,0.0,0.0,0.0,0.0,0.0,0.0,0.0,0.0,0.0,0.0,0.0,0.0,0.0,0.0,0.0,0.0,0.0,0.0,0.0,0.0,0.0,0.0,0.0,0.0,0.0,0.0,0.0,0.0,-0.3644,-0.4168,-0.4457,-0.45,-0.3773,-0.3321,-0.3098,0.0,0.0,0.0,0.0,0.0,0.0,0.0,0.0,0.0,0.0,0.0,0.0,0.0,0.0,0.0,0.0,0.0,0.0,0.0,0.0,0.0,0.0,0.0,0.0,0.0,0.0,0.0,0.0,0.0,0.0,0.0,0.0,0.0,0.0,0.0,0.0,0.0,0.0,0.0,0.0,0.0,0.0,0.0,0.0,0.0,0.0,0.0,0.0,0.0,0.0,0.0,0.0,0.0,0.0,0.0,0.0,0.0,0.0,0.0,0.0,0.0,0.0,0.0,0.0,0.0,0.0,0.0,0.0,0.0,0.0,0.0,0.0,0.0,0.0,0.0,0.0,0.0,0.0,0.0,0.0,0.0,0.0,0.0,0.0,0.0,0.0,0.0,0.0,0.0,0.0,0.0,0.0,0.0,0.0,0.0,0.0,0.0,0.0,0.0,0.0,0.0,0.0,0.0,0.0,0.0,0.0,0.0,0.0,-0.4024,-0.5227,-0.5435,-0.467,-0.4396,-0.376,0.0,0.0,0.0,0.0,0.0,0.0,0.0,0.0,0.0,0.0,0.0,0.0,0.0,0.0,0.0,0.0,0.0,0.0,0.0,0.0,0.0,0.0,0.0,0.0,0.0,0.0,0.0,0.0,0.0,0.0,0.0,0.0,0.0,0.0,0.0,0.0,0.0,0.0,0.0,0.0,0.0,0.0,0.0,0.0,0.0,0.0,0.0,0.0,0.0,0.0,0.0,0.0,0.0,0.0,0.0,0.0,0.0,0.0,0.0,0.0,0.0,0.0,0.0,0.0,0.0,0.0,0.0,0.0,0.0,0.0,0.0,0.0,0.0,0.0,0.0,0.0,0.0,0.0,0.0,0.0,0.0,0.0,0.0,0.0,0.0,0.0,0.0,0.0,0.0,0.0,0.0,0.0,0.0,0.0,0.0,0.0,0.0,0.0,0.0,0.0,0.0,0.0,0.0,0.0,0.0,0.0,0.0,0.0,0.0,-0.4242,-0.4922,-0.5194,-0.4984,-0.4278,-0.3726,0.0,0.0,0.0,0.0,0.0,0.0,0.0,0.0,0.0,0.0,0.0,0.0,0.0,0.0,0.0,0.0,0.0,0.0,0.0,0.0,0.0,0.0,0.0,0.0,0.0,0.0,0.0,0.0,0.0,0.0,0.0,0.0,0.0,0.0,0.0,0.0,0.0,0.0,0.0,0.0,0.0,0.0,0.0,0.0,0.0,0.0,0.0,0.0,0.0,0.0,0.0,0.0,0.0,0.0,0.0,0.0,0.0,0.0,0.0,0.0,0.0,0.0,0.0,0.0,0.0,0.0,0.0,0.0,0.0,0.0,0.0,0.0,0.0,0.0,0.0,0.0,0.0,0.0,0.0,0.0,0.0,0.0,0.0,0.0,0.0,0.0,0.0,0.0,0.0,0.0,0.0,0.0,0.0,0.0,0.0,0.0,0.0,0.0,0.0,0.0,0.0,0.0,0.0,0.0,0.0,0.0,0.0,0.0,-0.4523,-0.4648,-0.4991,-0.5198,-0.5194,-0.454,-0.404,0.0,0.0,0.0,0.0,0.0,0.0,0.0,0.0,0.0,0.0,0.0,0.0,0.0,0.0,0.0,0.0,0.0,0.0,0.0,0.0,0.0,0.0,0.0,0.0,0.0,0.0,0.0,0.0,0.0,0.0,0.0,0.0,0.0,0.0,0.0,0.0,0.0,0.0,0.0,0.0,0.0,0.0,0.0,0.0,0.0,0.0,0.0,0.0,0.0,0.0,0.0,0.0,0.0,0.0,0.0,0.0,0.0,0.0,0.0,0.0,0.0,0.0,0.0,0.0,0.0,0.0,0.0,0.0,0.0,0.0,0.0,0.0,0.0,0.0,0.0,0.0,0.0,0.0,0.0,0.0,0.0,0.0,0.0,0.0,0.0,0.0,0.0,0.0,0.0,0.0,0.0,0.0,0.0,0.0,0.0,0.0,0.0,0.0,0.0,0.0,0.0,0.0,0.0,0.0,0.0,0.0,0.0,0.0,-0.4414,-0.5035,-0.5251,-0.5301,-0.5289,-0.4999,-0.4479,0.0,0.0,0.0,0.0,0.0,0.0,0.0,0.0,0.0,0.0,0.0,0.0,0.0,0.0,0.0,0.0,0.0,0.0,0.0,0.0,0.0,0.0,0.0,0.0,0.0,0.0,0.0,0.0,0.0,0.0,0.0,0.0,0.0,0.0,0.0,0.0,0.0,0.0,0.0,0.0,0.0,0.0,0.0,0.0,0.0,0.0,0.0,0.0,0.0,0.0,0.0,0.0,0.0,0.0,0.0,0.0,0.0,0.0,0.0,0.0,0.0,0.0,0.0,0.0,0.0,0.0,0.0,0.0,0.0,0.0,0.0,0.0,0.0,0.0,0.0,0.0,0.0,0.0,0.0,0.0,0.0,0.0,0.0,0.0,0.0,0.0,0.0,0.0,0.0,0.0,0.0,0.0,0.0,0.0,0.0,0.0,0.0,0.0,0.0,0.0,0.0,0.0,0.0,0.0,0.0,0.0,0.0,0.0,-0.4811,-0.4857,-0.5132,-0.5301,-0.5297,-0.4943,-0.454,0.0,0.0,0.0,0.0,0.0,0.0,0.0,0.0,0.0,0.0,0.0,0.0,0.0,0.0,0.0,0.0,0.0,0.0,0.0,0.0,0.0,0.0,0.0,0.0,0.0,0.0,0.0,0.0,0.0,0.0,0.0,0.0,0.0,0.0,0.0,0.0,0.0,0.0,0.0,0.0,0.0,0.0,0.0,0.0,0.0,0.0,0.0,0.0,-0.0532,0.0,0.0,0.0,0.0,0.0,0.0,0.0,0.0,0.0,0.0,0.0,0.0,0.0,0.0,0.0,0.0,0.0,0.0,0.0,0.0,0.0,0.0,0.0,0.0,0.0,0.0,0.0,0.0,0.0,0.0,0.0,0.0,0.0,0.0,0.0,0.0,0.0,0.0,0.0,0.0,0.0,0.0,0.0,0.0,0.0,0.0,0.0,0.0,0.0,0.0,0.0,0.0,0.0,0.0,0.0,0.0,0.0,0.0,0.0,-0.4867,-0.5048,-0.5201,-0.5301,-0.5293,-0.5112,-0.4767,0.0,0.0,0.0,0.0,0.0,0.0,0.0,0.0,0.0,0.0,0.0,0.0,0.0,0.0,0.0,0.0,0.0,0.0,0.0,0.0,0.0,0.0,0.0,0.0,0.0,0.0,0.0,0.0,0.0,0.0,0.0,0.0,0.0,0.0,0.0,0.0,0.0,0.0,0.0,0.0,0.0,0.0,0.0,0.0,0.0,0.0,0.0,0.0,0.0,0.0,0.0,0.0,0.0,0.0,0.0,0.0,0.0,0.0,0.0,0.0,0.0,0.0,0.0,0.0,0.0,0.0,0.0,0.0,0.0,0.0,0.0,0.0,0.0,0.0,0.0,0.0,0.0,0.0,0.0,0.0,0.0,0.0,0.0,0.0,0.0,0.0,0.0,0.0,0.0,0.0,0.0,0.0,0.0,0.0,0.0,0.0,0.0,0.0,0.0,0.0,0.0,0.0,0.0,0.0,0.0,0.0,0.0,-0.4228,-0.473,-0.5269,-0.5301,-0.5301,-0.5301,-0.5301,-0.5015,-0.4344,0.0,0.0,0.0,0.0,0.0,0.0,0.0,0.0,0.0,0.0,0.0,0.0,0.0,0.0,0.0,0.0,0.0,0.0,0.0,0.0,0.0,0.0,0.0,0.0,0.0,0.0,0.0,0.0,0.0,0.0,0.0,0.0,0.0,0.0,0.0,0.0,0.0,0.0,-0.0705,-0.0565,0.0,0.0,0.0,0.0,0.0,0.0,0.0,0.0,-0.0596,0.0,0.0,0.0,0.0,0.0,0.0,0.0,0.0,0.0,0.0,0.0,0.0,0.0,0.0,0.0,0.0,0.0,0.0,0.0,0.0,0.0,0.0,0.0,0.0,0.0,0.0,0.0,0.0,0.0,0.0,0.0,0.0,0.0,0.0,0.0,0.0,0.0,0.0,0.0,0.0,0.0,0.0,0.0,0.0,0.0,0.0,0.0,0.0,0.0,0.0,0.0,0.0,0.0,0.0,0.0,0.0,-0.417,-0.4272,-0.4658,-0.5281,-0.5301,-0.5301,-0.5301,-0.5301,-0.4964,-0.4357,0.0,0.0,0.0,0.0,0.0,0.0,0.0,0.0,0.0,0.0,0.0,0.0,0.0,0.0,0.0,0.0,0.0,0.0,0.0,0.0,0.0,0.0,0.0,0.0,0.0,0.0,0.0,0.0,0.0,0.0,0.0,0.0,0.0,0.0,0.0,0.0,0.0,0.0,0.0,-0.056,-0.0579,0.0,0.0,0.0,0.0,0.0,0.0,0.0,0.0,-0.0486,0.0,0.0,0.0,0.0,0.0,0.0,0.0,0.0,0.0,0.0,0.0,0.0,0.0,0.0,0.0,0.0,0.0,0.0,0.0,0.0,0.0,0.0,0.0,0.0,0.0,0.0,0.0,0.0,0.0,0.0,0.0,0.0,0.0,0.0,0.0,0.0,0.0,0.0,0.0,0.0,0.0,0.0,0.0,0.0,0.0,0.0,0.0,0.0,0.0,0.0,0.0,0.0,0.0,0.0,0.0,-0.3975,-0.4361,-0.4812,-0.5277,-0.5301,-0.5301,-0.5297,-0.5116,-0.4771,0.0,0.0,0.0,0.0,0.0,0.0,0.0,0.0,0.0,0.0,0.0,0.0,0.0,0.0,0.0,0.0,0.0,0.0,0.0,0.0,0.0,0.0,0.0,0.0,0.0,0.0,0.0,0.0,0.0,0.0,0.0,0.0,0.0,0.0,0.0,0.0,0.0,0.0,0.0,0.0,-0.0579,-0.0618,-0.0648,0.0,0.0,0.0,0.0,0.0,0.0,-0.0625,-0.0589,0.0,0.0,0.0,0.0,0.0,0.0,0.0,0.0,0.0,0.0,0.0,0.0,0.0,0.0,0.0,0.0,0.0,0.0,0.0,0.0,0.0,0.0,0.0,0.0,0.0,0.0,0.0,0.0,0.0,0.0,0.0,0.0,0.0,0.0,0.0,0.0,0.0,0.0,0.0,0.0,0.0,0.0,0.0,0.0,0.0,0.0,0.0,0.0,0.0,0.0,0.0,0.0,0.0,0.0,0.0,-0.3706,-0.4361,-0.495,-0.5277,-0.5301,-0.5301,-0.5297,-0.5068,-0.465,0.0,0.0,0.0,0.0,0.0,0.0,0.0,0.0,0.0,0.0,0.0,0.0,0.0,0.0,0.0,0.0,0.0,0.0,0.0,0.0,0.0,0.0,0.0,0.0,0.0,0.0,0.0,0.0,0.0,0.0,0.0,0.0,0.0,0.0,0.0,0.0,0.0,0.0,0.0,0.0,0.0,-0.0671,-0.0733,-0.0708,0.0,0.0,0.0,0.0,-0.0743,-0.0738,0.0,0.0,0.0,0.0,0.0,0.0,0.0,0.0,0.0,0.0,0.0,0.0,0.0,0.0,0.0,0.0,0.0,0.0,0.0,0.0,0.0,0.0,0.0,0.0,0.0,0.0,0.0,0.0,0.0,0.0,0.0,0.0,0.0,0.0,0.0,0.0,0.0,0.0,0.0,0.0,0.0,0.0,0.0,0.0,0.0,0.0,0.0,0.0,0.0,0.0,0.0,0.0,0.0,0.0,0.0,0.0,-0.3702,-0.4244,-0.4779,-0.5269,-0.5301,-0.5301,-0.5301,-0.5257,-0.4843,0.0,0.0,0.0,0.0,0.0,0.0,0.0,0.0,0.0,0.0,0.0,0.0,0.0,0.0,0.0,0.0,0.0,0.0,0.0,0.0,0.0,0.0,0.0,0.0,0.0,0.0,0.0,0.0,0.0,0.0,0.0,0.0,0.0,0.0,0.0,0.0,0.0,0.0,0.0,0.0,0.0,-0.0778,-0.0805,-0.0734,-0.0727,0.0,0.0,-0.0824,-0.0882,-0.0813,0.0,0.0,0.0,0.0,0.0,0.0,0.0,0.0,0.0,0.0,0.0,0.0,0.0,0.0,0.0,0.0,0.0,0.0,0.0,0.0,0.0,0.0,0.0,0.0,0.0,0.0,0.0,0.0,0.0,0.0,0.0,0.0,0.0,0.0,0.0,0.0,0.0,0.0,0.0,0.0,0.0,0.0,0.0,0.0,0.0,0.0,0.0,0.0,0.0,0.0,0.0,0.0,0.0,0.0,0.0,-0.3341,-0.3714,-0.4471,-0.496,-0.5285,-0.5301,-0.5301,-0.5301,-0.5004,-0.457,0.0,0.0,0.0,0.0,0.0,0.0,0.0,0.0,0.0,0.0,0.0,0.0,0.0,0.0,0.0,0.0,0.0,0.0,0.0,0.0,0.0,0.0,0.0,0.0,0.0,0.0,0.0,0.0,0.0,0.0,0.0,0.0,0.0,0.0,0.0,0.0,0.0,0.0,0.0,0.0,0.0,0.0,-0.0788,-0.0791,0.0,0.0,0.0,-0.0847,-0.0856,0.0,0.0,0.0,0.0,0.0,0.0,0.0,0.0,0.0,0.0,0.0,0.0,0.0,0.0,0.0,0.0,0.0,0.0,0.0,0.0,0.0,0.0,0.0,0.0,0.0,0.0,0.0,0.0,0.0,0.0,0.0,0.0,0.0,0.0,0.0,0.0,0.0,0.0,0.0,0.0,0.0,0.0,0.0,0.0,0.0,0.0,0.0,0.0,0.0,0.0,0.0,0.0,0.0,0.0,0.0,0.0,0.0,-0.3714,-0.467,-0.5214,-0.5297,-0.5301,-0.5301,-0.5293,-0.4863,0.0,0.0,0.0,0.0,0.0,0.0,0.0,0.0,0.0,0.0,0.0,0.0,0.0,0.0,0.0,0.0,0.0,0.0,0.0,0.0,0.0,0.0,0.0,0.0,0.0,0.0,0.0,-0.1383,0.0,0.0,0.0,0.0,0.0,0.0,0.0,0.0,0.0,0.0,0.0,0.0,0.0,0.0,-0.0794,-0.0815,-0.089,-0.0899,0.0,0.0,-0.09,-0.0832,-0.0881,-0.0908,0.0,0.0,0.0,0.0,0.0,0.0,0.0,0.0,0.0,0.0,0.0,0.0,0.0,0.0,0.0,0.0,0.0,0.0,0.0,0.0,0.0,0.0,0.0,0.0,0.0,0.0,0.0,0.0,0.0,0.0,0.0,0.0,0.0,0.0,0.0,0.0,0.0,0.0,0.0,0.0,0.0,0.0,0.0,0.0,0.0,0.0,0.0,0.0,0.0,0.0,0.0,0.0,0.0,0.0,0.0,-0.3734,-0.4743,-0.5285,-0.5301,-0.5301,-0.5301,-0.5297,-0.5157,-0.4637,0.0,0.0,0.0,0.0,0.0,0.0,0.0,0.0,0.0,0.0,0.0,0.0,0.0,0.0,0.0,0.0,0.0,0.0,0.0,0.0,0.0,0.0,0.0,0.0,0.0,0.0,0.0,0.0,0.0,0.0,0.0,0.0,0.0,0.0,0.0,0.0,0.0,0.0,0.0,0.0,0.0,-0.09,-0.0902,-0.0904,-0.0862,0.0,0.0,-0.0862,-0.0887,-0.0891,-0.0862,-0.0824,0.0,0.0,0.0,0.0,0.0,0.0,0.0,0.0,0.0,0.0,0.0,0.0,0.0,0.0,0.0,0.0,0.0,0.0,0.0,0.0,0.0,0.0,0.0,0.0,0.0,0.0,0.0,0.0,0.0,0.0,0.0,0.0,0.0,0.0,0.0,0.0,0.0,0.0,0.0,0.0,0.0,0.0,0.0,0.0,0.0,0.0,0.0,0.0,0.0,0.0,0.0,0.0,0.0,-0.3719,-0.3838,-0.4811,-0.5301,-0.5301,-0.5301,-0.5301,-0.5301,-0.5177,-0.471,0.0,0.0,0.0,0.0,0.0,0.0,0.0,0.0,0.0,0.0,0.0,0.0,0.0,0.0,0.0,0.0,0.0,0.0,0.0,0.0,0.0,0.0,0.0,0.0,0.0,0.0,0.0,0.0,-0.172,-0.1702,-0.1648,0.0,0.0,0.0,0.0,0.0,0.0,0.0,0.0,0.0,0.0,-0.0859,-0.0877,-0.088,0.0,0.0,-0.0887,-0.0884,-0.0896,-0.0897,-0.088,-0.0878,-0.0793,0.0,0.0,0.0,0.0,0.0,0.0,0.0,0.0,0.0,0.0,0.0,0.0,0.0,0.0,0.0,0.0,0.0,0.0,0.0,0.0,0.0,0.0,0.0,0.0,0.0,0.0,0.0,0.0,0.0,0.0,0.0,0.0,0.0,0.0,0.0,0.0,0.0,0.0,0.0,0.0,0.0,0.0,0.0,0.0,0.0,0.0,0.0,0.0,0.0,0.0,0.0,0.0,-0.3751,-0.3888,-0.4797,-0.5301,-0.5301,-0.5301,-0.5301,-0.5297,-0.5177,-0.4767,0.0,0.0,0.0,0.0,0.0,0.0,0.0,0.0,0.0,0.0,0.0,0.0,0.0,0.0,0.0,0.0,0.0,0.0,0.0,0.0,0.0,0.0,0.0,0.0,0.0,0.0,0.0,0.0,-0.1803,-0.1759,-0.1696,0.0,0.0,0.0,0.0,0.0,0.0,0.0,0.0,0.0,0.0,-0.0863,-0.0893,-0.0897,-0.09,-0.0909,-0.0903,-0.09,-0.091,-0.0911,-0.0898,-0.0859,0.0,0.0,0.0,0.0,0.0,0.0,0.0,0.0,0.0,0.0,0.0,0.0,0.0,0.0,0.0,0.0,0.0,0.0,0.0,0.0,0.0,0.0,0.0,0.0,0.0,0.0,0.0,-0.1809,0.0,0.0,-0.1806,0.0,0.0,0.0,0.0,0.0,0.0,0.0,0.0,0.0,0.0,0.0,0.0,0.0,0.0,0.0,0.0,0.0,0.0,0.0,0.0,0.0,0.0,-0.3794,-0.39,-0.4855,-0.5301,-0.5301,-0.5301,-0.5301,-0.5297,-0.5177,-0.4824,-0.432,0.0,0.0,0.0,0.0,0.0,0.0,0.0,0.0,0.0,0.0,0.0,0.0,0.0,0.0,0.0,0.0,0.0,0.0,0.0,0.0,0.0,0.0,0.0,0.0,0.0,0.0,-0.1781,-0.1803,-0.1696,0.0,0.0,0.0,0.0,0.0,0.0,0.0,0.0,0.0,0.0,-0.0833,-0.0864,-0.0894,-0.0898,-0.0909,-0.0879,-0.0917,-0.0909,-0.0879,-0.0883,-0.0864,0.0,0.0,0.0,0.0,0.0,0.0,0.0,0.0,0.0,0.0,0.0,0.0,0.0,0.0,0.0,0.0,0.0,0.0,0.0,0.0,0.0,0.0,0.0,0.0,0.0,0.0,0.0,-0.2672,-0.2576,0.0,0.0,0.0,0.0,0.0,0.0,0.0,0.0,0.0,0.0,0.0,-0.4172,-0.4222,0.0,0.0,0.0,0.0,0.0,0.0,0.0,0.0,0.0,0.0,0.0,0.0,-0.3866,-0.4333,-0.4968,-0.5301,-0.5301,-0.5301,-0.5301,-0.5301,-0.5241,-0.4954,-0.434,0.0,0.0,0.0,0.0,0.0,0.0,0.0,0.0,0.0,0.0,0.0,0.0,0.0,0.0,0.0,0.0,0.0,0.0,0.0,0.0,0.0,0.0,0.0,0.0,0.0,-0.1736,0.0,0.0,0.0,0.0,0.0,0.0,0.0,0.0,0.0,0.0,0.0,-0.1004,-0.0885,-0.0881,-0.0859,-0.0868,-0.0869,-0.0939,0.0,0.0,0.0,0.0,0.0,0.0,0.0,0.0,0.0,0.0,0.0,0.0,0.0,0.0,-0.0845,-0.0726,-0.0688,-0.0673,-0.0674,0.0,0.0,0.0,0.0,0.0,0.0,0.0,0.0,0.0,0.0,0.0,0.0,0.0,0.0,-0.3331,0.0,-0.3094,0.0,0.0,0.0,0.0,0.0,0.0,0.0,0.0,-0.4365,-0.47,-0.4915,-0.4973,-0.4973,0.0,-0.4564,-0.4188,0.0,0.0,0.0,0.0,0.0,0.0,0.0,0.0,-0.412,-0.4495,-0.5008,-0.5301,-0.5301,-0.5301,-0.5301,-0.5301,-0.5237,-0.5007,-0.4475,-0.4136,-0.373,0.0,0.0,0.0,0.0,0.0,0.0,0.0,0.0,0.0,0.0,0.0,0.0,0.0,0.0,0.0,0.0,0.0,0.0,0.0,0.0,0.0,0.0,0.0,-0.176,0.0,0.0,0.0,0.0,0.0,0.0,0.0,0.0,0.0,-0.0778,-0.0964,-0.1094,-0.0952,-0.1165,-0.1318,-0.1317,0.0,0.0,0.0,0.0,0.0,0.0,0.0,-0.0916,-0.0987,-0.0981,-0.0916,-0.0986,-0.0988,-0.0982,-0.0962,0.0,0.0,-0.0821,-0.0739,-0.0778,-0.0768,-0.079,-0.0852,-0.0772,-0.0798,-0.0818,0.0,0.0,0.0,0.0,0.0,0.0,0.0,0.0,-0.3798,-0.3864,0.0,-0.3699,0.0,0.0,0.0,0.0,0.0,-0.414,0.0,0.0,-0.5297,-0.5647,-0.5691,-0.5812,-0.5824,-0.5699,-0.5627,-0.5421,-0.506,-0.4144,0.0,0.0,0.0,0.0,0.0,0.0,-0.4367,-0.4519,-0.5067,-0.5301,-0.5301,-0.5301,-0.5301,-0.5297,-0.5186,-0.5007,-0.4816,-0.4598,-0.4264,-0.366,-0.3549,0.0,0.0,0.0,0.0,0.0,0.0,0.0,0.0,0.0,0.0,0.0,0.0,0.0,0.0,0.0,0.0,0.0,0.0,0.0,0.0,-0.1809,0.0,0.0,0.0,0.0,0.0,0.0,0.0,0.0,0.0,0.0,-0.0963,-0.1326,-0.1497,-0.1162,0.0,0.0,0.0,0.0,-0.2746,-0.2128,-0.2086,-0.1819,-0.1099,-0.1037,-0.1027,-0.1,0.0,0.0,-0.0997,-0.0991,-0.0993,-0.0991,-0.0993,-0.0982,-0.089,-0.0916,-0.0889,-0.0917,-0.0934,-0.0888,-0.0922,-0.0898,-0.087,-0.5045,0.0,0.0,0.0,0.0,-0.4466,-0.4711,-0.5101,-0.4976,-0.4931,-0.4848,-0.4502,0.0,0.0,0.0,0.0,0.0,0.0,-0.4984,-0.5329,-0.5543,-0.5715,-0.5996,-0.5945,-0.6014,-0.6191,-0.5953,-0.5754,-0.5649,-0.5397,-0.4682,-0.3611,0.0,0.0,0.0,0.0,-0.4598,-0.4837,-0.5127,-0.5301,-0.5301,-0.5301,-0.5301,-0.5301,-0.5249,-0.519,-0.5007,-0.495,-0.473,-0.4329,-0.404,0.0,0.0,0.0,0.0,0.0,0.0,0.0,0.0,0.0,0.0,0.0,0.0,0.0,0.0,0.0,0.0,0.0,0.0,0.0,-0.1933,-0.1943,-0.2063,0.0,0.0,0.0,0.0,0.0,0.0,0.0,0.0,0.0,-0.1869,-0.1873,-0.2105,0.0,0.0,-0.2112,-0.2091,-0.1835,-0.1601,-0.147,-0.147,0.0,-0.1197,-0.111,-0.11,-0.1113,-0.1105,-0.1086,-0.1056,-0.105,-0.105,-0.105,-0.105,-0.1042,-0.1013,-0.0983,-0.096,-0.0952,-0.0957,-0.096,-0.0953,-0.0965,-0.0972,-0.6145,-0.5624,-0.527,-0.5228,-0.5458,-0.5366,-0.5616,-0.5962,-0.5859,-0.5791,-0.5856,-0.5446,-0.5169,-0.4995,-0.4546,0.0,0.0,0.0,-0.549,-0.5823,-0.5823,-0.5973,-0.6169,-0.6144,-0.6215,-0.6378,-0.6137,-0.6051,-0.599,-0.5921,-0.5417,-0.4469,0.0,0.0,-0.4447,-0.465,-0.4851,-0.5124,-0.5241,-0.5301,-0.5301,-0.5301,-0.5301,-0.5301,-0.5301,-0.5245,-0.5194,-0.519,-0.5114,-0.4858,-0.4455,-0.389,0.0,0.0,0.0,0.0,0.0,0.0,0.0,0.0,0.0,0.0,0.0,-0.2094,0.0,0.0,0.0,0.0,-0.2259,-0.2361,-0.2557,-0.2627,0.0,0.0,0.0,0.0,0.0,0.0,0.0,-0.3012,-0.3341,-0.3232,-0.2429,-0.2916,-0.3159,-0.2579,-0.2678,-0.279,-0.2766,0.0,-0.2872,-0.2605,-0.2616,-0.2472,-0.2256,-0.1868,-0.1502,-0.1236,-0.1151,-0.1134,-0.1116,-0.1102,-0.1094,-0.1093,-0.1084,-0.107,-0.1053,-0.1035,-0.1014,-0.0994,-0.0999,-0.1003,-0.0991,-0.0997,-0.1003,-0.7101,-0.6989,-0.639,-0.6163,-0.6254,-0.6254,-0.6324,-0.6461,-0.6461,-0.655,-0.6668,-0.6404,-0.6244,-0.6207,-0.5839,0.0,-0.5705,-0.5888,-0.6059,-0.6269,-0.6273,-0.6298,-0.6457,-0.6461,-0.6453,-0.6436,-0.633,-0.6244,-0.6223,-0.601,-0.5835,-0.5653,-0.5438,-0.532,-0.5133,-0.5137,-0.5222,-0.5317,-0.5321,-0.5313,-0.5301,-0.5301,-0.5301,-0.5301,-0.5301,-0.5293,-0.5277,-0.5277,-0.5242,-0.5255,-0.4775,-0.426,-0.3687,0.0,0.0,0.0,0.0,0.0,0.0,0.0,0.0,0.0,0.0,0.0,0.0,0.0,0.0,0.0,-0.2982,0.0,-0.3509,-0.3603,0.0,0.0,0.0,-0.4284,-0.458,-0.4409,-0.3998,-0.3324,0.0,0.0,-0.2875,-0.4301,-0.4512,-0.2051,-0.299,-0.393,-0.3864,-0.4804,-0.5381,-0.4387,-0.4528,-0.4307,-0.3457,-0.279,-0.2054,-0.132,-0.117,-0.1168,-0.1162,-0.1143,-0.1127,-0.1125,-0.1102,-0.1084,-0.1084,-0.1081,-0.1063,-0.1012,-0.102,-0.1029,-0.1007,-0.102,-0.1094,-0.7683,-0.7565,-0.7399,-0.713,-0.6826,-0.6822,-0.6822,-0.6826,-0.6826,-0.6846,-0.6941,-0.666,-0.6485,-0.6355,-0.6404,-0.6428,-0.6444,-0.6691,-0.679,-0.6831,-0.6831,-0.6781,-0.6678,-0.6822,-0.6826,-0.6703,-0.6642,-0.6481,-0.6355,-0.6314,-0.6201,-0.6088,-0.5977,-0.5799,-0.5502,-0.5624,-0.5587,-0.5311,-0.5433,-0.543,-0.5305,-0.5301,-0.5301,-0.5301,-0.5301,-0.5233,-0.5149,-0.5149,-0.505,-0.4791,-0.4593,-0.4397,-0.4133,-0.3504,0.0,0.0,0.0,0.0,0.0,0.0,0.0,0.0,0.0,-0.2636,-0.4186,0.0,-0.3637,0.0,-0.3436,-0.357,-0.3707,-0.3882,0.0,0.0,-0.4723,-0.507,-0.5715,-0.5713,-0.566,-0.5593,-0.5855,-0.5752,-0.4792,-0.5276,-0.5184,-0.4134,-0.439,-0.4751,-0.4768,-0.4407,-0.3911,-0.337,-0.3683,-0.3691,-0.2999,-0.2621,-0.222,-0.1355,-0.1201,-0.1194,-0.117,-0.1161,-0.1155,-0.1155,-0.1151,-0.1145,-0.1215,-0.1127,-0.1108,-0.1091,-0.1078,-0.1064,-0.1056,-0.1127,-0.1262,-0.7959,-0.7874,-0.7874,-0.7699,-0.7411,-0.7257,-0.7265,-0.7188,-0.7188,-0.7192,-0.7179,-0.7009,-0.683,-0.6668,-0.6757,-0.6872,-0.6818,-0.6978,-0.7019,-0.7019,-0.7019,-0.6948,-0.6948,-0.6948,-0.6974,-0.6958,-0.6876,-0.6708,-0.655,-0.6542,-0.6448,-0.6274,-0.6266,-0.6168,-0.5977,-0.5917,-0.5835,-0.5671,-0.5653,-0.5531,-0.5305,-0.5301,-0.5301,-0.5301,-0.5301,-0.5249,-0.5206,-0.5121,-0.5042,-0.4898,-0.4633,-0.4471,-0.4427,-0.3876,-0.3444,0.0,0.0,0.0,0.0,0.0,0.0,0.0,0.0,0.0,0.0,0.0,-0.4351,-0.3915,-0.4144,-0.4397,-0.4602,-0.4789,-0.5039,-0.5458,-0.5534,-0.5847,-0.6343,-0.6475,-0.6444,-0.6115,-0.6577,-0.6474,-0.5261,-0.5891,-0.6225,-0.5452,-0.572,-0.5878,-0.5497,-0.5132,-0.4696,-0.4057,-0.4224,-0.4066,-0.2978,-0.2665,-0.2341,-0.1545,-0.1309,-0.1226,-0.1209,-0.1195,-0.1187,-0.1186,-0.1176,-0.1239,-0.1311,-0.1298,-0.1284,-0.1424,-0.141,-0.1315,-0.1149,-0.1143,-0.121,-0.8073,-0.8044,-0.8048,-0.8032,-0.7988,-0.7683,-0.7537,-0.7521,-0.7516,-0.7504,-0.7472,-0.7326,-0.7171,-0.7097,-0.7093,-0.7021,-0.7093,-0.7021,-0.7093,-0.7093,-0.7093,-0.7093,-0.7165,-0.7093,-0.7081,-0.7136,-0.706,-0.6899,-0.6729,-0.6704,-0.6615,-0.6461,-0.6428,-0.642,-0.6408,-0.6111,-0.6006,-0.6107,-0.5864,-0.5563,-0.5337,-0.5333,-0.5321,-0.5301,-0.5301,-0.5285,-0.5261,-0.5165,-0.512,-0.5147,-0.4747,-0.4558,-0.4629,-0.4244,-0.3975,0.0,-0.3726,0.0,0.0,0.0,0.0,0.0,0.0,0.0,0.0,-0.4813,-0.4794,-0.4658,-0.4991,-0.5311,-0.562,-0.5831,-0.6018,-0.6227,-0.6363,-0.6554,-0.6729,-0.6891,-0.6764,-0.6034,-0.6731,-0.6636,-0.544,-0.6549,-0.7173,-0.6549,-0.6777,-0.6842,-0.6321,-0.6395,-0.624,-0.5622,-0.516,-0.4304,-0.3288,-0.2974,-0.2584,-0.1805,-0.1491,-0.1415,-0.1412,-0.1312,-0.1294,-0.1292,-0.1348,-0.133,-0.1547,-0.1545,-0.1612,-0.1759,-0.1751,-0.1649,-0.1312,-0.1223,-0.1352,-0.8373,-0.8239,-0.8239,-0.8154,-0.8008,-0.7939,-0.7833,-0.7707,-0.7707,-0.7622,-0.7484,-0.7447,-0.7419,-0.7387,-0.7382,-0.7382,-0.7382,-0.7382,-0.7382,-0.7382,-0.7382,-0.7382,-0.7387,-0.7382,-0.7309,-0.7183,-0.7171,-0.7082,-0.6903,-0.6761,-0.6676,-0.6639,-0.6493,-0.642,-0.6416,0.0,0.0,0.0,-0.5864,-0.5624,-0.5575,-0.5563,-0.5438,-0.5305,-0.5301,0.0,-0.5141,-0.51,-0.49,-0.45,-0.464,0.0,0.0,0.0,0.0,0.0,0.0,0.0,0.0,0.0,0.0,0.0,-0.4442,-0.4706,-0.4803,-0.5037,-0.5247,-0.5393,-0.5608,-0.5762,-0.5831,-0.6128,-0.6331,-0.6371,-0.6656,-0.6924,-0.7098,-0.7155,-0.7166,-0.7179,-0.7355,-0.7363,-0.7007,-0.7326,-0.7403,-0.7249,-0.7326,-0.7407,-0.7173,-0.6942,-0.6325,-0.4927,-0.4068,-0.3444,-0.3132,-0.3054,-0.2663,-0.2042,-0.1808,-0.1808,-0.1729,-0.1724,-0.1717,-0.1716,-0.179,-0.1781,-0.1857,-0.1755,-0.173,-0.1805,-0.1778,-0.1746,-0.1656,-0.1766,-0.1878,-0.8515,0.0,-0.8426,-0.8373,0.0,-0.8288,-0.8187,-0.8012,-0.7752,-0.7668,-0.774,-0.7655,-0.7618,-0.7614,-0.7525,-0.748,-0.748,-0.748,-0.748,-0.748,-0.748,-0.748,-0.748,-0.748,-0.7435,-0.7354,-0.7354,-0.7265,-0.709,-0.6997,-0.6911,-0.6822,-0.6643,-0.6554,-0.655,-0.6461,-0.6331,-0.6211,-0.6121,-0.5929,-0.5754,-0.5661,-0.5571,-0.543,-0.5341,0.0,0.0,0.0,0.0,0.0,0.0,0.0,0.0,0.0,0.0,-0.4722,-0.4589,-0.4529,-0.4618,-0.453,-0.4587,-0.4784,-0.5293,-0.5538,-0.5345,-0.5479,-0.5689,-0.5856,-0.5965,-0.6087,-0.6266,-0.6444,-0.6627,-0.6798,-0.698,-0.7159,-0.7317,-0.735,-0.7387,-0.746,-0.748,-0.748,-0.748,-0.748,-0.748,-0.748,-0.748,-0.748,-0.7484,-0.7249,-0.6479,-0.4846,-0.3522,-0.2821,-0.2823,-0.2743,-0.2585,-0.2119,-0.1964,-0.1887,-0.1887,-0.1887,-0.1887,-0.1887,-0.1887,-0.1887,-0.204,-0.202,-0.2004,-0.208,-0.2138,-0.2119,-0.2114,-0.2057,-0.1932,-0.8572,-0.8572,-0.8572,-0.8572,-0.8572,-0.8572,-0.8483,-0.8321,0.0,0.0,0.0,-0.7946,-0.7805,-0.7793,-0.7614,-0.7533,-0.7529,-0.7496,-0.748,-0.748,-0.748,-0.748,-0.748,-0.748,-0.748,-0.748,-0.748,-0.7411,-0.7273,-0.7244,-0.7151,-0.6997,-0.6826,-0.6729,-0.6684,-0.6509,-0.6343,-0.6264,-0.6328,-0.6241,-0.5937,-0.5783,-0.5673,-0.5616,-0.5418,-0.5329,-0.5297,-0.521,-0.5185,-0.5291,-0.5034,-0.5006,-0.5275,-0.5207,-0.5129,-0.5137,-0.5217,-0.5301,-0.5301,-0.5301,-0.5313,-0.5286,-0.5711,-0.6009,-0.5984,-0.5948,-0.6006,-0.6113,-0.6221,-0.6433,-0.6652,-0.6749,-0.6903,-0.7196,-0.7253,-0.733,-0.7456,-0.748,-0.7476,-0.748,-0.748,-0.748,-0.748,-0.748,-0.748,-0.748,-0.748,-0.748,-0.748,-0.7019,-0.6167,-0.4688,-0.3366,-0.251,-0.251,-0.2431,-0.2273,-0.2275,-0.212,-0.2043,-0.2043,-0.2043,-0.2043,-0.2043,-0.2043,-0.212,-0.2196,-0.2271,-0.2352,-0.251,-0.251,-0.251,-0.2501,-0.2207,-0.1996,-0.8572,-0.8572,-0.8572,-0.8572,-0.8572,-0.8572,-0.8552,-0.8499,-0.8078,-0.8102,-0.8526,-0.816,-0.7979,-0.7971,-0.7797,-0.772,-0.7711,-0.7553,-0.748,-0.748,-0.748,-0.748,-0.748,-0.748,-0.748,-0.748,-0.748,-0.7472,-0.7435,-0.7297,-0.7208,-0.7167,-0.7005,-0.6904,-0.6676,-0.6505,-0.6408,-0.6379,-0.6379,-0.6359,-0.6178,-0.6145,-0.5921,-0.5628,-0.5588,-0.545,-0.5305,-0.5273,-0.5261,-0.5316,-0.5233,-0.5275,-0.5283,-0.5299,-0.5261,-0.5261,-0.5285,-0.5301,-0.5301,-0.5301,-0.5306,-0.5339,-0.5944,-0.632,-0.6299,-0.6208,-0.6185,-0.6363,-0.6509,-0.6635,-0.6708,-0.6964,-0.7155,-0.7232,-0.7358,-0.7456,-0.748,-0.748,-0.748,-0.748,-0.748,-0.748,-0.748,-0.7488,-0.75,-0.7488,-0.7529,-0.75,-0.7281,-0.6244,-0.5002,-0.4066,-0.3132,-0.2588,-0.251,-0.251,-0.2431,-0.2431,-0.2431,-0.2354,-0.2356,-0.2354,-0.2354,-0.2433,-0.2354,-0.2431,-0.2431,-0.2431,-0.2431,-0.251,-0.251,-0.251,-0.251,-0.241,-0.2385,-0.8572,-0.8572,-0.8572,-0.8572,-0.8572,-0.8572,-0.8572,-0.8552,-0.839,-0.8402,-0.8572,-0.8299,-0.8162,-0.8146,-0.7979,-0.7845,-0.7836,-0.7671,-0.7581,-0.7484,-0.748,-0.748,-0.748,-0.748,-0.748,-0.748,-0.748,-0.748,-0.7472,-0.7403,-0.7366,-0.7346,-0.709,-0.6929,-0.668,-0.6505,-0.642,-0.642,-0.642,-0.6375,-0.6294,-0.626,-0.6129,-0.5961,-0.5722,-0.5575,-0.5498,-0.5349,-0.5301,-0.5301,-0.5301,-0.5301,-0.5301,-0.5301,-0.5301,-0.5301,-0.5301,-0.5337,-0.5434,-0.535,-0.5416,-0.5638,-0.6113,-0.6387,-0.6419,-0.6359,-0.6371,-0.655,-0.6643,-0.6769,-0.696,-0.7131,-0.7261,-0.7358,-0.7439,-0.748,-0.748,-0.748,-0.748,-0.748,-0.748,-0.748,-0.748,-0.7569,-0.7634,-0.7638,-0.7699,-0.7601,-0.7194,-0.601,-0.4991,-0.447,-0.3366,-0.2588,-0.2511,-0.251,-0.251,-0.251,-0.251,-0.251,-0.251,-0.251,-0.251,-0.251,-0.251,-0.251,-0.251,-0.251,-0.251,-0.251,-0.251,-0.251,-0.251,-0.251,-0.2488,-0.8662,-0.8625,-0.8625,-0.8601,-0.8572,-0.8572,-0.8572,-0.8572,-0.8568,-0.8572,-0.8548,-0.8414,-0.8349,-0.8333,-0.8158,-0.8004,-0.7886,-0.7833,-0.7715,-0.7557,-0.7545,-0.7525,-0.7484,-0.748,-0.748,-0.748,-0.748,-0.748,-0.748,-0.748,-0.748,-0.7447,-0.7167,-0.6924,-0.6806,-0.6495,-0.639,-0.6424,-0.642,-0.642,-0.6416,-0.6282,-0.6248,-0.6191,-0.588,-0.5718,-0.5669,-0.545,-0.5357,-0.5353,-0.5317,-0.5301,-0.5301,-0.5301,-0.5301,-0.5301,-0.5337,-0.543,-0.5665,-0.5532,-0.5551,-0.5864,-0.6185,-0.6398,-0.64,-0.6461,-0.6538,-0.6676,-0.6765,-0.6928,-0.7159,-0.7265,-0.7338,-0.7464,-0.748,-0.748,-0.748,-0.748,-0.748,-0.748,-0.748,-0.748,-0.7512,-0.7646,-0.7684,-0.75,-0.7605,-0.7342,-0.6503,-0.5595,-0.4937,-0.4554,-0.3488,-0.2613,-0.253,-0.2533,-0.2534,-0.2531,-0.2518,-0.2512,-0.251,-0.251,-0.251,-0.251,-0.251,-0.251,-0.251,-0.251,-0.251,-0.251,-0.251,-0.251,-0.251,-0.251,-0.2419,-0.8946,-0.8808,-0.8792,-0.8706,-0.8572,-0.8572,-0.8572,-0.8572,-0.8572,-0.8572,-0.8564,-0.8548,-0.8536,-0.8519,-0.8345,-0.8247,-0.8207,-0.8065,-0.7894,-0.7819,-0.7815,-0.7646,-0.7492,-0.748,-0.748,-0.748,-0.748,-0.748,-0.748,-0.748,-0.748,-0.7464,-0.7293,-0.7106,-0.6924,-0.6598,-0.6435,-0.6424,-0.642,-0.642,-0.642,-0.64,-0.631,-0.6211,-0.6174,-0.6022,-0.5864,-0.5685,-0.5588,-0.5575,-0.539,-0.5305,-0.5309,-0.5305,-0.5305,-0.5317,-0.545,-0.5669,-0.5852,-0.5829,-0.5868,-0.5955,-0.623,-0.6396,-0.6432,-0.6574,-0.6676,-0.6753,-0.6993,-0.7167,-0.7232,-0.7362,-0.7447,-0.7472,-0.748,-0.748,-0.748,-0.748,-0.748,-0.748,-0.748,-0.7484,-0.7521,-0.76,-0.7515,-0.6922,-0.6798,-0.6485,-0.5728,-0.478,-0.4176,-0.3985,-0.3202,-0.2679,-0.2594,-0.2594,-0.2593,-0.259,-0.2546,-0.2525,-0.252,-0.2515,-0.251,-0.251,-0.251,-0.251,-0.251,-0.251,-0.251,-0.251,-0.251,-0.251,-0.251,-0.251,-0.2425,-0.8991,-0.8824,-0.882,-0.8723,-0.858,-0.8572,-0.8572,-0.8572,-0.8572,-0.8572,-0.8572,-0.8572,-0.8572,-0.8564,-0.8487,-0.8398,-0.8288,-0.8211,-0.8024,-0.7856,-0.784,-0.7737,-0.7496,-0.748,-0.748,-0.748,-0.748,-0.748,-0.748,-0.748,-0.748,-0.7464,-0.7309,-0.7183,-0.7094,-0.6752,-0.6567,-0.657,-0.6473,-0.642,-0.642,-0.642,-0.6384,-0.6306,-0.6264,-0.6178,-0.6092,-0.5872,-0.5774,-0.577,-0.5463,-0.5424,-0.5669,-0.5673,-0.5669,-0.5677,-0.5831,-0.6022,-0.6096,-0.6141,-0.6234,-0.6238,-0.6306,-0.6461,-0.665,-0.6745,-0.6887,-0.7009,-0.7143,-0.7265,-0.7366,-0.7443,-0.748,-0.748,-0.748,-0.748,-0.748,-0.748,-0.748,-0.748,-0.748,-0.7529,-0.758,-0.7404,-0.7199,-0.683,-0.643,-0.5815,-0.5478,-0.4656,-0.4108,-0.3931,-0.3313,-0.2778,-0.2665,-0.2655,-0.2655,-0.2644,-0.2604,-0.2567,-0.2561,-0.2527,-0.2511,-0.2511,-0.251,-0.251,-0.251,-0.251,-0.251,-0.251,-0.251,-0.251,-0.251,-0.251,-0.2431,-0.9133,-0.8966,-0.8869,-0.8723,-0.8572,-0.8572,-0.8572,-0.8572,-0.8572,-0.8572,-0.8572,-0.8572,-0.8572,-0.8572,-0.8572,-0.8487,-0.8377,-0.8369,-0.8203,-0.7927,-0.7987,-0.778,-0.7577,-0.7557,-0.7529,-0.7488,-0.748,-0.748,-0.748,-0.748,-0.748,-0.746,-0.7358,-0.7269,-0.7204,-0.6944,-0.6777,-0.6676,-0.6554,-0.6469,-0.6428,-0.642,-0.642,-0.6408,-0.629,-0.6221,-0.6213,-0.6051,-0.5957,-0.5957,-0.5662,-0.5574,-0.5888,-0.5953,-0.6034,-0.6022,-0.6137,-0.6232,-0.6281,-0.6347,-0.642,-0.642,-0.642,-0.6497,-0.6821,-0.6925,-0.7101,-0.7192,-0.7265,-0.7362,-0.7452,-0.748,-0.748,-0.748,-0.748,-0.748,-0.748,-0.748,-0.748,-0.748,-0.748,-0.7573,-0.7729,-0.7329,-0.686,-0.664,-0.5888,-0.5186,-0.4914,-0.4238,-0.3853,-0.3853,-0.3243,-0.2867,-0.273,-0.2718,-0.2718,-0.2704,-0.2668,-0.2627,-0.2621,-0.2575,-0.2537,-0.2552,-0.2529,-0.2511,-0.251,-0.251,-0.251,-0.251,-0.251,-0.251,-0.251,-0.251,-0.2431,-0.9498,-0.9287,-0.8958,-0.8727,-0.8572,-0.8572,-0.8572,-0.8572,-0.8572,-0.8572,-0.8572,-0.8572,-0.8572,-0.8572,-0.8572,-0.8564,-0.8552,-0.8544,-0.843,-0.8243,-0.8243,-0.8077,-0.7844,-0.7748,-0.7655,-0.7512,-0.7484,-0.748,-0.748,-0.748,-0.748,-0.7476,-0.746,-0.7387,-0.7257,-0.7192,-0.7025,-0.6757,-0.6696,-0.6603,-0.6448,-0.6428,-0.6432,-0.6416,-0.6408,-0.6396,-0.6384,-0.6229,-0.6199,-0.6199,-0.5994,-0.5904,-0.5961,-0.622,-0.6301,-0.6182,-0.6207,-0.6225,-0.6371,-0.6408,-0.6428,-0.6428,-0.6378,-0.6576,-0.6932,-0.7028,-0.713,-0.7216,-0.737,-0.7464,-0.7476,-0.748,-0.748,-0.748,-0.748,-0.748,-0.748,-0.748,-0.748,-0.7488,-0.7516,-0.7659,-0.7955,-0.7319,-0.6544,-0.5863,-0.501,-0.4121,-0.3497,-0.3135,-0.3041,-0.3041,-0.2949,-0.2849,-0.2794,-0.2779,-0.2779,-0.2766,-0.2733,-0.2689,-0.2668,-0.2644,-0.2614,-0.258,-0.254,-0.2516,-0.2511,-0.251,-0.251,-0.251,-0.251,-0.251,-0.251,-0.251,-0.2431,-0.9518,-0.9319,-0.897,-0.8783,-0.8723,-0.8617,-0.8572,-0.8572,-0.8572,-0.8572,-0.8572,-0.8572,-0.8572,-0.8572,-0.8572,-0.8572,-0.8572,-0.8572,-0.8467,-0.8304,-0.8292,-0.8158,-0.7935,-0.7817,-0.7732,-0.7655,-0.7541,-0.748,-0.748,-0.748,-0.748,-0.748,-0.748,-0.7447,-0.7382,-0.7277,-0.7155,-0.7037,-0.6924,-0.6773,-0.6607,-0.6595,-0.6542,-0.6424,-0.642,-0.642,-0.642,-0.6351,-0.6323,-0.6319,-0.6258,-0.6229,-0.6229,-0.6361,-0.6386,-0.631,-0.6319,-0.6347,-0.6408,-0.642,-0.6402,-0.6431,-0.638,-0.651,-0.6821,-0.7017,-0.7196,-0.7358,-0.7435,-0.748,-0.748,-0.748,-0.748,-0.748,-0.748,-0.748,-0.748,-0.748,-0.748,-0.7516,-0.7663,-0.7882,-0.769,-0.6902,-0.6019,-0.5622,-0.4387,-0.3409,-0.3053,-0.2875,-0.2875,-0.2875,-0.2873,-0.2868,-0.285,-0.2841,-0.2837,-0.2823,-0.2797,-0.2764,-0.2738,-0.2658,-0.2614,-0.2601,-0.2557,-0.2515,-0.251,-0.251,-0.251,-0.251,-0.251,-0.251,-0.251,-0.251,-0.251,-0.9522,-0.9324,-0.9035,-0.8873,-0.88,-0.8637,-0.8572,-0.8572,-0.8572,-0.8572,-0.8572,-0.8572,-0.8572,-0.8572,-0.8572,-0.8572,-0.8572,-0.8568,-0.8499,-0.8385,-0.8381,-0.8284,-0.8109,-0.7983,-0.7866,-0.7748,-0.7573,-0.748,-0.748,-0.748,-0.748,-0.748,-0.748,-0.748,-0.746,-0.7366,-0.7285,-0.7212,-0.7102,-0.6928,-0.6729,-0.6696,-0.6607,-0.6453,-0.642,-0.642,-0.642,-0.642,-0.642,-0.642,-0.642,-0.642,-0.642,-0.642,-0.642,-0.642,-0.642,-0.642,-0.6432,-0.6469,-0.6483,-0.6451,-0.6529,-0.6766,-0.6958,-0.715,-0.7313,-0.7431,-0.748,-0.748,-0.748,-0.748,-0.748,-0.748,-0.748,-0.748,-0.748,-0.748,-0.7516,-0.7614,-0.7882,-0.7982,-0.7545,-0.6467,-0.5695,-0.5275,-0.3853,-0.2964,-0.2875,-0.2875,-0.2875,-0.2875,-0.2875,-0.2875,-0.2867,-0.2862,-0.2861,-0.285,-0.2843,-0.2819,-0.2782,-0.2694,-0.2635,-0.2617,-0.258,-0.2533,-0.251,-0.251,-0.251,-0.251,-0.251,-0.251,-0.251,-0.2431,-0.2431,-0.9527,-0.9356,-0.9169,-0.8995,-0.8832,-0.8666,-0.858,-0.8572,-0.8572,-0.8572,-0.8572,-0.8572,-0.8572,-0.8572,-0.8572,-0.8572,-0.8572,-0.8572,-0.856,-0.8544,-0.8548,-0.8455,-0.8296,-0.8251,-0.8052,-0.7764,-0.7573,-0.7484,-0.748,-0.748,-0.748,-0.748,-0.748,-0.748,-0.748,-0.746,-0.7391,-0.7277,-0.7232,-0.7058,-0.6737,-0.6733,-0.6652,-0.6465,-0.644,-0.6436,-0.6424,-0.642,-0.642,-0.642,-0.642,-0.642,-0.642,-0.642,-0.642,-0.642,-0.642,-0.642,-0.6436,-0.657,-0.6583,-0.6583,-0.6851,-0.7118,-0.7372,-0.7414,-0.7476,-0.7524,-0.748,-0.748,-0.748,-0.748,-0.748,-0.748,-0.748,-0.748,-0.748,-0.7488,-0.7561,-0.7756,-0.8052,-0.7835,-0.7107,-0.6253,-0.545,-0.4654,-0.3676,-0.2875,-0.2875,-0.2875,-0.2875,-0.2875,-0.2875,-0.2875,-0.2875,-0.2875,-0.2873,-0.2872,-0.2868,-0.2854,-0.2827,-0.276,-0.2707,-0.2677,-0.2595,-0.2546,-0.251,-0.251,-0.251,-0.251,-0.251,-0.251,-0.251,-0.2431,-0.2352,-0.9596,-0.9518,-0.9352,-0.9173,-0.8999,-0.8816,-0.8678,-0.8572,-0.8572,-0.8572,-0.8572,-0.8572,-0.8572,-0.8572,-0.8572,-0.8572,-0.8572,-0.8572,-0.8572,-0.8572,-0.8572,-0.854,-0.8467,-0.8349,-0.8105,-0.786,-0.7573,-0.7484,-0.7484,-0.7484,-0.748,-0.748,-0.748,-0.748,-0.748,-0.748,-0.7447,-0.7411,-0.7403,-0.7281,-0.7074,-0.7054,-0.6915,-0.6647,-0.6599,-0.6546,-0.6428,-0.642,-0.642,-0.642,-0.642,-0.642,-0.642,-0.642,-0.642,-0.642,-0.642,-0.642,-0.6444,-0.6587,-0.6745,-0.6792,-0.6957,-0.7138,-0.745,-0.7479,-0.7495,-0.7476,-0.748,-0.748,-0.748,-0.748,-0.748,-0.748,-0.748,-0.7492,-0.7529,-0.761,-0.7744,-0.7918,-0.8142,-0.8102,-0.7632,-0.6699,-0.5539,-0.501,-0.3855,-0.2964,-0.2875,-0.2875,-0.2875,-0.2875,-0.2875,-0.2875,-0.2875,-0.2875,-0.2875,-0.2875,-0.2875,-0.2875,-0.2852,-0.2813,-0.2766,-0.2706,-0.2625,-0.2568,-0.253,-0.251,-0.251,-0.251,-0.251,-0.251,-0.251,-0.2431,-0.2275,-0.9624,-0.96,-0.936,-0.9198,-0.9068,-0.8836,-0.867,-0.8576,-0.8572,-0.8572,-0.8572,-0.8572,-0.8572,-0.8572,-0.8572,-0.8572,-0.8572,-0.8572,-0.8572,-0.8572,-0.8572,-0.8572,-0.854,-0.8377,-0.8191,-0.7951,-0.7707,-0.7586,-0.7581,-0.7516,-0.748,-0.748,-0.748,-0.748,-0.748,-0.748,-0.748,-0.748,-0.7476,-0.7399,-0.7261,-0.7224,-0.7058,-0.6753,-0.668,-0.6587,-0.6436,-0.642,-0.642,-0.642,-0.642,-0.642,-0.642,-0.642,-0.642,-0.642,-0.642,-0.642,-0.6444,-0.6656,-0.683,-0.6968,-0.7102,-0.7279,-0.746,-0.748,-0.748,-0.748,-0.748,-0.748,-0.748,-0.748,-0.748,-0.7484,-0.7553,-0.7606,-0.7683,-0.7845,-0.7983,-0.8134,-0.8288,-0.8103,-0.7201,-0.6621,-0.5364,-0.4743,-0.3676,-0.2875,-0.2875,-0.2875,-0.2875,-0.2875,-0.2875,-0.2875,-0.2875,-0.2875,-0.2875,-0.2875,-0.2875,-0.2875,-0.2864,-0.2816,-0.2767,-0.271,-0.2638,-0.2597,-0.2559,-0.2523,-0.251,-0.251,-0.251,-0.251,-0.251,-0.2276,-0.2119,-0.9624,-0.9583,-0.9259,-0.912,-0.9056,-0.8751,-0.8601,-0.8572,-0.8572,-0.8572,-0.8572,-0.8572,-0.8572,-0.8572,-0.8572,-0.8572,-0.8572,-0.8572,-0.8572,-0.8572,-0.8572,-0.8572,-0.8544,-0.8377,-0.8256,-0.8162,-0.7886,-0.7744,-0.7675,-0.7553,-0.748,-0.748,-0.748,-0.748,-0.748,-0.748,-0.748,-0.748,-0.748,-0.7399,-0.7265,-0.7253,-0.7102,-0.6773,-0.6725,-0.6631,-0.6489,-0.6436,-0.642,-0.642,-0.642,-0.642,-0.642,-0.642,-0.642,-0.642,-0.642,-0.642,-0.6489,-0.6733,-0.6932,-0.704,-0.7257,-0.748,-0.748,-0.748,-0.748,-0.748,-0.748,-0.748,-0.748,-0.748,-0.7488,-0.7521,-0.7642,-0.7793,-0.8004,-0.8166,-0.8243,-0.8312,-0.8368,-0.7937,-0.641,-0.5891,-0.4919,-0.3765,-0.3142,-0.2964,-0.2875,-0.2875,-0.2875,-0.2875,-0.2875,-0.2875,-0.2875,-0.2875,-0.2875,-0.2875,-0.2875,-0.2875,-0.2867,-0.282,-0.2781,-0.2722,-0.2658,-0.262,-0.2583,-0.2544,-0.2515,-0.251,-0.251,-0.251,-0.2431,-0.2276,-0.2119,-0.9624,-0.96,-0.938,-0.9214,-0.9076,-0.8848,-0.8678,-0.8576,-0.8572,-0.8572,-0.8572,-0.8572,-0.8572,-0.8572,-0.8572,-0.8572,-0.8572,-0.8572,-0.8572,-0.8572,-0.8572,-0.8572,-0.8532,-0.8381,-0.8231,-0.8093,-0.7898,-0.7691,-0.7565,-0.7516,-0.748,-0.748,-0.748,-0.748,-0.748,-0.748,-0.748,-0.748,-0.748,-0.7464,-0.7423,-0.7407,-0.7309,-0.7106,-0.6944,-0.679,-0.6623,-0.6489,-0.642,-0.642,-0.642,-0.642,-0.642,-0.642,-0.642,-0.642,-0.642,-0.642,-0.6489,-0.6753,-0.7007,-0.7052,-0.7281,-0.7476,-0.748,-0.748,-0.748,-0.748,-0.748,-0.748,-0.748,-0.748,-0.7537,-0.7745,-0.774,-0.7886,-0.8138,-0.826,-0.8337,-0.8471,-0.8536,-0.7848,-0.6786,-0.5897,-0.5097,-0.4032,-0.332,-0.2875,-0.2875,-0.2875,-0.2875,-0.2875,-0.2875,-0.2875,-0.2875,-0.2875,-0.2875,-0.2875,-0.2875,-0.2875,-0.2858,-0.2826,-0.2796,-0.276,-0.2674,-0.2623,-0.2589,-0.2552,-0.2534,-0.251,-0.251,-0.251,-0.251,-0.2431,-0.2275,-0.951,-0.949,-0.9234,-0.9072,-0.8962,-0.8787,-0.8658,-0.8584,-0.8572,-0.8572,-0.8572,-0.8572,-0.8572,-0.8572,-0.8572,-0.8572,-0.8572,-0.8572,-0.8572,-0.8572,-0.8572,-0.8572,-0.854,-0.8442,-0.8349,-0.8227,-0.7979,-0.7825,-0.7699,-0.7565,-0.7488,-0.748,-0.748,-0.748,-0.748,-0.748,-0.748,-0.748,-0.748,-0.748,-0.748,-0.748,-0.7387,-0.7224,-0.7045,-0.6846,-0.6607,-0.6473,-0.642,-0.642,-0.642,-0.642,-0.642,-0.642,-0.642,-0.642,-0.642,-0.642,-0.6481,-0.6745,-0.6936,-0.7013,-0.7281,-0.7447,-0.748,-0.748,-0.748,-0.748,-0.748,-0.748,-0.748,-0.748,-0.7573,-0.7799,-0.7821,-0.7979,-0.8264,-0.8361,-0.8269,-0.8089,-0.794,-0.7408,-0.6163,-0.5453,-0.4743,-0.3853,-0.3142,-0.2964,-0.2875,-0.2875,-0.2875,-0.2875,-0.2875,-0.2875,-0.2875,-0.2875,-0.2875,-0.2875,-0.2875,-0.2875,-0.286,-0.2837,-0.2828,-0.279,-0.27,-0.2634,-0.2612,-0.2576,-0.2526,-0.251,-0.251,-0.251,-0.251,-0.251,-0.2353,-0.944,-0.9299,-0.8966,-0.882,-0.88,-0.8641,-0.858,-0.8572,-0.8572,-0.8572,-0.8572,-0.8572,-0.8572,-0.8572,-0.8572,-0.8572,-0.8572,-0.8572,-0.8572,-0.8572,-0.8572,-0.8572,-0.8568,-0.8552,-0.8475,-0.8459,-0.8142,-0.7971,-0.7805,-0.7586,-0.7496,-0.748,-0.748,-0.748,-0.748,-0.748,-0.748,-0.748,-0.748,-0.748,-0.748,-0.7476,-0.7411,-0.7289,-0.7106,-0.6838,-0.6591,-0.6465,-0.6453,-0.642,-0.642,-0.642,-0.642,-0.642,-0.642,-0.642,-0.642,-0.642,-0.6473,-0.6672,-0.6873,-0.7005,-0.7281,-0.7476,-0.748,-0.748,-0.748,-0.748,-0.748,-0.748,-0.748,-0.748,-0.7545,-0.7691,-0.7854,-0.8052,-0.8247,-0.8442,-0.8212,-0.7408,-0.7319,-0.634,-0.5275,-0.4387,-0.421,-0.3942,-0.332,-0.2964,-0.2875,-0.2875,-0.2875,-0.2875,-0.2875,-0.2875,-0.2875,-0.2875,-0.2875,-0.2875,-0.2875,-0.2873,-0.2868,-0.2856,-0.2861,-0.282,-0.2713,-0.2669,-0.2666,-0.2617,-0.2537,-0.251,-0.251,-0.251,-0.251,-0.2431,-0.2353,-0.9275,-0.9133,-0.8917,-0.882,-0.8792,-0.8641,-0.8572,-0.8572,-0.8572,-0.8572,-0.8572,-0.8572,-0.8572,-0.8572,-0.8572,-0.8572,-0.8572,-0.8572,-0.8572,-0.8572,-0.8572,-0.8572,-0.8568,-0.856,-0.8492,-0.8299,-0.8077,-0.7874,-0.765,-0.7565,-0.748,-0.748,-0.748,-0.748,-0.748,-0.748,-0.748,-0.748,-0.748,-0.748,-0.748,-0.748,-0.7456,-0.7382,-0.724,-0.6985,-0.6717,-0.6635,-0.6566,-0.6461,-0.6436,-0.6461,-0.6428,-0.642,-0.642,-0.642,-0.642,-0.642,-0.6485,-0.6668,-0.6877,-0.7001,-0.7273,-0.748,-0.748,-0.748,-0.748,-0.748,-0.748,-0.748,-0.748,-0.748,-0.7508,-0.759,-0.7724,-0.789,-0.8077,-0.8361,-0.8352,-0.8208,-0.812,-0.7764,-0.652,-0.5633,-0.4921,-0.4121,-0.3497,-0.3053,-0.2964,-0.2964,-0.2875,-0.2875,-0.2875,-0.2875,-0.2875,-0.2875,-0.2875,-0.2875,-0.2875,-0.2875,-0.2869,-0.2858,-0.2857,-0.2803,-0.2717,-0.2695,-0.2687,-0.2601,-0.251,-0.251,-0.251,-0.251,-0.251,-0.2431,-0.2353,-0.9047,-0.8954,-0.8775,-0.8702,-0.8686,-0.8605,-0.8572,-0.8572,-0.8572,-0.8572,-0.8572,-0.8572,-0.8572,-0.8572,-0.8572,-0.8572,-0.8572,-0.8572,-0.8572,-0.8572,-0.8572,-0.8572,-0.8536,-0.8471,-0.8398,-0.8221,-0.8048,-0.7858,-0.7663,-0.7525,-0.748,-0.748,-0.748,-0.748,-0.748,-0.748,-0.748,-0.748,-0.748,-0.748,-0.748,-0.748,-0.7423,-0.7374,-0.7265,-0.709,-0.6842,-0.6818,-0.6721,-0.6619,-0.6615,-0.6578,-0.6444,-0.642,-0.6424,-0.642,-0.642,-0.6473,-0.6591,-0.6712,-0.6841,-0.6997,-0.7334,-0.7435,-0.748,-0.748,-0.748,-0.748,-0.748,-0.748,-0.748,-0.748,-0.748,-0.7516,-0.7646,-0.7797,-0.7931,-0.8215,-0.8305,-0.8086,-0.776,-0.7231,-0.6609,-0.6148,-0.5719,-0.4828,-0.4119,-0.3676,-0.3409,-0.3409,-0.2964,-0.2875,-0.2875,-0.2875,-0.2875,-0.2875,-0.2875,-0.2875,-0.2875,-0.2875,-0.2872,-0.2858,-0.2845,-0.2786,-0.2734,-0.2695,-0.267,-0.2578,-0.2512,-0.251,-0.251,-0.251,-0.251,-0.2431,-0.2353,-0.8804,-0.8771,-0.8629,-0.8572,-0.8572,-0.8572,-0.8572,-0.8572,-0.8572,-0.8572,-0.8572,-0.8572,-0.8572,-0.8572,-0.8572,-0.8572,-0.8572,-0.8572,-0.8572,-0.8572,-0.8572,-0.8536,-0.8483,-0.8373,-0.8247,-0.8203,-0.8032,-0.7849,-0.7683,-0.7569,-0.7484,-0.748,-0.748,-0.748,-0.748,-0.748,-0.748,-0.748,-0.748,-0.748,-0.748,-0.748,-0.7415,-0.7334,-0.7297,-0.72,-0.7037,-0.7056,-0.6986,-0.6831,-0.6945,-0.6773,-0.6595,-0.6465,-0.6461,-0.6465,-0.6453,-0.6497,-0.6652,-0.6772,-0.6877,-0.6982,-0.7303,-0.7468,-0.748,-0.748,-0.748,-0.748,-0.748,-0.748,-0.748,-0.748,-0.748,-0.7508,-0.763,-0.7715,-0.7805,-0.8036,-0.7893,-0.762,-0.7657,-0.7498,-0.6896,-0.6364,-0.6042,-0.5622,-0.4825,-0.421,-0.3942,-0.3674,-0.3139,-0.2875,-0.2875,-0.2875,-0.2875,-0.2875,-0.2875,-0.2875,-0.2875,-0.2875,-0.2875,-0.2867,-0.2849,-0.2816,-0.277,-0.2718,-0.2653,-0.2572,-0.2526,-0.2516,-0.251,-0.251,-0.251,-0.251,-0.2431,-0.8739,-0.8609,-0.858,-0.8572,-0.8572,-0.8572,-0.8572,-0.8572,-0.8572,-0.8572,-0.8572,-0.8572,-0.8572,-0.8572,-0.8572,-0.8572,-0.8572,-0.8572,-0.8572,-0.8564,-0.8548,-0.8491,-0.8365,-0.826,-0.8117,-0.7906,-0.7801,-0.7711,-0.7581,-0.7492,-0.748,-0.748,-0.748,-0.748,-0.748,-0.748,-0.748,-0.748,-0.748,-0.748,-0.748,-0.7476,-0.7472,-0.7415,-0.7411,-0.733,-0.722,-0.7171,-0.7025,-0.6861,-0.694,-0.6991,-0.6917,-0.6802,-0.6672,-0.6623,-0.6542,-0.6566,-0.6733,-0.6941,-0.6965,-0.706,-0.7307,-0.7472,-0.748,-0.748,-0.748,-0.748,-0.748,-0.748,-0.748,-0.748,-0.748,-0.7496,-0.7521,-0.7602,-0.7724,-0.7841,-0.7943,-0.767,-0.7785,-0.7815,-0.7121,-0.6535,-0.6219,-0.5627,-0.4763,-0.4094,-0.3676,-0.3405,-0.3045,-0.2871,-0.2875,-0.2875,-0.2875,-0.2875,-0.2875,-0.2875,-0.2875,-0.2875,-0.2875,-0.2875,-0.2854,-0.2797,-0.2747,-0.2691,-0.2624,-0.2559,-0.253,-0.2512,-0.251,-0.251,-0.251,-0.251,-0.251,-0.8645,-0.8572,-0.8572,-0.8572,-0.8572,-0.8572,-0.8572,-0.8572,-0.8572,-0.8572,-0.8572,-0.8572,-0.8572,-0.8572,-0.8572,-0.8572,-0.8572,-0.8572,-0.8572,-0.856,-0.8471,-0.839,-0.8247,-0.8122,-0.8024,-0.7768,-0.7671,-0.7586,-0.7492,-0.7484,-0.748,-0.748,-0.748,-0.748,-0.748,-0.748,-0.748,-0.748,-0.748,-0.748,-0.748,-0.748,-0.748,-0.748,-0.748,-0.7435,-0.7387,-0.7358,-0.7277,-0.7228,-0.7183,-0.7241,-0.7244,-0.7097,-0.6928,-0.6838,-0.6741,-0.6765,-0.692,-0.7134,-0.7179,-0.7262,-0.7443,-0.7476,-0.748,-0.748,-0.748,-0.748,-0.748,-0.748,-0.748,-0.748,-0.748,-0.748,-0.748,-0.7525,-0.7606,-0.7699,-0.7748,-0.7725,-0.7812,-0.7685,-0.7301,-0.6827,-0.637,-0.5714,-0.4783,-0.4132,-0.3476,-0.32,-0.2831,-0.2861,-0.2867,-0.2875,-0.2875,-0.2875,-0.2875,-0.2875,-0.2872,-0.2872,-0.2858,-0.2852,-0.2804,-0.2743,-0.2696,-0.2659,-0.2613,-0.2555,-0.2531,-0.251,-0.251,-0.251,-0.251,-0.251,-0.251,-0.8572,-0.8572,-0.8572,-0.8572,-0.8572,-0.8572,-0.8572,-0.8572,-0.8572,-0.8572,-0.8572,-0.8572,-0.8572,-0.8572,-0.8572,-0.8572,-0.8572,-0.8572,-0.8572,-0.8532,-0.839,-0.8288,-0.8146,-0.7947,-0.7823,-0.7667,-0.7577,-0.748,-0.7484,-0.748,-0.748,-0.748,-0.748,-0.748,-0.748,-0.748,-0.748,-0.748,-0.748,-0.748,-0.748,-0.748,-0.748,-0.748,-0.748,-0.748,-0.7464,-0.746,-0.7483,-0.7425,-0.745,-0.7491,-0.7459,-0.7356,-0.7208,-0.7155,-0.7073,-0.7058,-0.7163,-0.7208,-0.7273,-0.7435,-0.7472,-0.748,-0.748,-0.748,-0.748,-0.748,-0.748,-0.748,-0.748,-0.748,-0.748,-0.748,-0.748,-0.7492,-0.7529,-0.7577,-0.7442,-0.7446,-0.7568,-0.7315,-0.6873,-0.6743,-0.6296,-0.5278,-0.4363,-0.3949,-0.3386,-0.3035,-0.2779,-0.2832,-0.2857,-0.2871,-0.2875,-0.2875,-0.2875,-0.2875,-0.2869,-0.2867,-0.2842,-0.2819,-0.2758,-0.2698,-0.2672,-0.2635,-0.2591,-0.2555,-0.2527,-0.251,-0.251,-0.251,-0.251,-0.251,-0.251,-0.8572,-0.8572,-0.8572,-0.8572,-0.8572,-0.8572,-0.8572,-0.8572,-0.8572,-0.8572,-0.8572,-0.8572,-0.8572,-0.8572,-0.8572,-0.8572,-0.8568,-0.8544,-0.8536,-0.8499,-0.8333,-0.8158,-0.804,-0.7862,-0.7663,-0.7573,-0.7508,-0.7484,-0.748,-0.748,-0.748,-0.748,-0.748,-0.748,-0.748,-0.748,-0.748,-0.748,-0.748,-0.748,-0.748,-0.748,-0.748,-0.748,-0.748,-0.748,-0.748,-0.748,-0.7532,-0.7532,-0.7536,-0.7472,-0.7532,-0.7456,-0.7447,-0.7334,-0.7179,-0.7033,-0.7208,-0.7257,-0.7309,-0.7452,-0.748,-0.748,-0.748,-0.748,-0.748,-0.748,-0.748,-0.748,-0.748,-0.748,-0.748,-0.748,-0.748,-0.748,-0.7496,-0.7516,-0.7374,-0.6828,-0.6856,-0.6669,-0.6311,-0.6263,-0.6056,-0.4986,-0.4122,-0.3628,-0.3223,-0.2891,-0.2728,-0.2778,-0.2827,-0.2845,-0.2847,-0.2852,-0.2853,-0.286,-0.2843,-0.2837,-0.2801,-0.276,-0.2714,-0.2662,-0.2636,-0.2602,-0.2555,-0.2525,-0.2512,-0.251,-0.251,-0.251,-0.251,-0.251,-0.251,-0.8572,-0.8572,-0.8572,-0.8572,-0.8572,-0.8572,-0.8572,-0.8572,-0.8572,-0.8572,-0.8572,-0.8572,-0.8572,-0.8572,-0.8572,-0.8572,-0.8544,-0.8455,-0.841,-0.8337,-0.815,-0.7955,-0.7845,-0.7695,-0.7541,-0.7512,-0.748,-0.7484,-0.748,-0.748,-0.748,-0.748,-0.748,-0.748,-0.748,-0.748,-0.748,-0.748,-0.748,-0.748,-0.748,-0.748,-0.748,-0.748,-0.748,-0.748,-0.748,-0.748,-0.748,-0.748,-0.748,-0.748,-0.748,-0.748,-0.7476,-0.7464,-0.735,-0.7305,-0.7362,-0.7362,-0.7411,-0.7447,-0.748,-0.748,-0.748,-0.748,-0.748,-0.748,-0.748,-0.748,-0.748,-0.748,-0.748,-0.748,-0.748,-0.748,-0.748,-0.7484,-0.7261,-0.671,-0.6089,-0.5758,-0.5404,-0.502,-0.4741,-0.3993,-0.3367,-0.3121,-0.2914,-0.2787,-0.271,-0.2723,-0.2771,-0.2813,-0.2812,-0.2812,-0.2808,-0.2804,-0.2764,-0.2753,-0.2733,-0.2695,-0.2655,-0.2617,-0.2582,-0.2548,-0.2514,-0.251,-0.251,-0.251,-0.251,-0.251,-0.251,-0.251,-0.251,-0.8572,-0.8572,-0.8572,-0.8572,-0.8572,-0.8572,-0.8572,-0.8572,-0.8572,-0.8572,-0.8572,-0.8572,-0.8572,-0.8548,-0.8519,-0.8475,-0.8479,-0.8304,-0.8235,-0.8109,-0.7943,-0.7877,-0.7724,-0.7594,-0.7492,-0.748,-0.748,-0.748,-0.748,-0.748,-0.748,-0.748,-0.748,-0.748,-0.748,-0.748,-0.748,-0.748,-0.748,-0.748,-0.748,-0.748,-0.748,-0.748,-0.748,-0.748,-0.748,-0.748,-0.748,-0.748,-0.748,-0.748,-0.748,-0.748,-0.748,-0.748,-0.7431,-0.7439,-0.7452,-0.746,-0.748,-0.748,-0.748,-0.748,-0.748,-0.748,-0.748,-0.748,-0.748,-0.748,-0.748,-0.748,-0.748,-0.748,-0.748,-0.748,-0.748,-0.7403,-0.6942,-0.6009,-0.5389,-0.4766,-0.4318,-0.3765,-0.3238,-0.28,-0.2567,-0.2565,-0.2604,-0.2657,-0.2668,-0.267,-0.2717,-0.2758,-0.276,-0.276,-0.276,-0.2749,-0.271,-0.2681,-0.2666,-0.2644,-0.2612,-0.2572,-0.2537,-0.2525,-0.251,-0.251,-0.251,-0.251,-0.251,-0.251,-0.251,-0.251,-0.251,-0.8572,-0.8572,-0.8572,-0.8572,-0.8572,-0.8572,-0.8572,-0.8572,-0.8572,-0.8572,-0.8572,-0.8572,-0.8572,-0.8532,-0.8414,-0.8337,-0.8312,-0.8113,-0.8052,-0.7975,-0.7854,-0.7823,-0.7667,-0.7569,-0.748,-0.748,-0.748,-0.748,-0.748,-0.748,-0.748,-0.748,-0.748,-0.748,-0.748,-0.748,-0.748,-0.748,-0.748,-0.748,-0.748,-0.748,-0.748,-0.748,-0.748,-0.748,-0.748,-0.748,-0.748,-0.748,-0.748,-0.748,-0.748,-0.748,-0.748,-0.748,-0.748,-0.748,-0.748,-0.748,-0.748,-0.748,-0.748,-0.748,-0.748,-0.748,-0.748,-0.748,-0.748,-0.748,-0.748,-0.748,-0.748,-0.748,-0.748,-0.748,-0.7403,-0.7249,-0.6707,-0.5544,-0.4768,-0.4144,-0.36,-0.3132,-0.2976,-0.2616,-0.254,-0.2537,-0.2545,-0.2585,-0.2601,-0.2619,-0.2664,-0.2692,-0.2698,-0.2699,-0.2698,-0.2688,-0.2661,-0.2634,-0.261,-0.2587,-0.2567,-0.2548,-0.2519,-0.2514,-0.251,-0.251,-0.251,-0.251,-0.251,-0.251,-0.251,-0.251,-0.251,-0.8572,-0.8572,-0.8572,-0.8572,-0.8572,-0.8572,-0.8572,-0.8572,-0.8572,-0.8572,-0.8572,-0.8572,-0.8572,-0.8515,-0.8381,-0.8292,-0.8247,-0.7975,-0.789,-0.7797,-0.7691,-0.7606,-0.7549,-0.7537,-0.748,-0.748,-0.748,-0.748,-0.748,-0.748,-0.748,-0.748,-0.748,-0.748,-0.748,-0.748,-0.748,-0.748,-0.748,-0.748,-0.748,-0.748,-0.748,-0.748,-0.748,-0.748,-0.748,-0.748,-0.748,-0.748,-0.748,-0.748,-0.748,-0.748,-0.748,-0.748,-0.748,-0.748,-0.748,-0.748,-0.748,-0.748,-0.748,-0.748,-0.748,-0.748,-0.748,-0.748,-0.748,-0.748,-0.748,-0.748,-0.748,-0.748,-0.748,-0.748,-0.7326,-0.7096,-0.6318,-0.5076,-0.4377,-0.3754,-0.3132,-0.2588,-0.2588,-0.2512,-0.2511,-0.2511,-0.2522,-0.2529,-0.255,-0.2567,-0.2609,-0.2629,-0.2635,-0.2636,-0.2636,-0.2624,-0.2612,-0.2589,-0.2564,-0.2546,-0.2527,-0.2512,-0.251,-0.251,-0.251,-0.251,-0.251,-0.251,-0.251,-0.251,-0.251,-0.251,-0.251,-0.8398,-0.8402,-0.8402,-0.8467,-0.856,-0.8572,-0.8572,-0.8572,-0.8572,-0.8572,-0.8572,-0.8572,-0.8532,-0.845,-0.8292,-0.8154,-0.804,-0.7825,-0.7711,-0.763,-0.7557,-0.7488,-0.748,-0.748,-0.748,-0.748,-0.748,-0.748,-0.748,-0.748,-0.748,-0.748,-0.748,-0.748,-0.748,-0.748,-0.748,-0.748,-0.748,-0.748,-0.748,-0.748,-0.748,-0.748,-0.748,-0.748,-0.748,-0.748,-0.748,-0.748,-0.748,-0.748,-0.748,-0.748,-0.748,-0.748,-0.748,-0.748,-0.748,-0.748,-0.748,-0.748,-0.748,-0.748,-0.748,-0.748,-0.748,-0.748,-0.748,-0.748,-0.748,-0.748,-0.748,-0.748,-0.748,-0.748,-0.6938,-0.663,-0.5696,-0.4688,-0.4066,-0.3521,-0.2976,-0.251,-0.251,-0.251,-0.251,-0.251,-0.2512,-0.2516,-0.2518,-0.2534,-0.2553,-0.2565,-0.2574,-0.2576,-0.2578,-0.2571,-0.2557,-0.2542,-0.252,-0.251,-0.251,-0.251,-0.251,-0.251,-0.251,-0.251,-0.251,-0.251,-0.251,-0.251,-0.251,-0.251,-0.2431,-0.804,-0.8024,-0.804,-0.8239,-0.8519,-0.8648,-0.856,-0.8568,-0.8572,-0.8572,-0.8564,-0.8556,-0.8459,-0.83,-0.8126,-0.7967,-0.7829,-0.7626,-0.7521,-0.7512,-0.7504,-0.7484,-0.748,-0.748,-0.748,-0.748,-0.748,-0.748,-0.748,-0.748,-0.748,-0.748,-0.748,-0.748,-0.748,-0.748,-0.748,-0.748,-0.748,-0.748,-0.748,-0.748,-0.748,-0.748,-0.748,-0.748,-0.748,-0.748,-0.748,-0.748,-0.748,-0.748,-0.748,-0.748,-0.748,-0.748,-0.748,-0.748,-0.748,-0.748,-0.748,-0.748,-0.748,-0.748,-0.748,-0.748,-0.748,-0.748,-0.748,-0.748,-0.748,-0.748,-0.748,-0.748,-0.748,-0.7169,-0.663,-0.5854,-0.4844,-0.43,-0.391,-0.3521,-0.2899,-0.251,-0.251,-0.251,-0.251,-0.251,-0.251,-0.251,-0.251,-0.2515,-0.2527,-0.2531,-0.254,-0.2525,-0.2519,-0.2514,-0.2515,-0.2511,-0.251,-0.251,-0.251,-0.251,-0.251,-0.251,-0.251,-0.251,-0.251,-0.251,-0.251,-0.251,-0.251,-0.2431,-0.2353,-0.8012,-0.8012,-0.8012,-0.8085,-0.8211,-0.8333,-0.8446,-0.8556,-0.8572,-0.8568,-0.854,-0.845,-0.8361,-0.8219,-0.7996,-0.7813,-0.7732,-0.7573,-0.748,-0.748,-0.748,-0.748,-0.748,-0.748,-0.748,-0.748,-0.748,-0.748,-0.748,-0.748,-0.748,-0.748,-0.748,-0.748,-0.748,-0.748,-0.748,-0.748,-0.748,-0.748,-0.748,-0.748,-0.748,-0.748,-0.748,-0.748,-0.748,-0.748,-0.748,-0.748,-0.748,-0.748,-0.748,-0.748,-0.748,-0.748,-0.748,-0.748,-0.748,-0.748,-0.748,-0.748,-0.748,-0.748,-0.748,-0.748,-0.748,-0.748,-0.748,-0.748,-0.748,-0.748,-0.748,-0.7326,-0.7173,-0.6707,-0.6086,-0.4996,-0.4142,-0.3754,-0.3443,-0.3132,-0.2666,-0.251,-0.251,-0.251,-0.251,-0.251,-0.251,-0.251,-0.251,-0.251,-0.2515,-0.2512,-0.251,-0.251,-0.251,-0.2512,-0.2512,-0.2511,-0.251,-0.251,-0.251,-0.251,-0.251,-0.251,-0.251,-0.251,-0.251,-0.251,-0.2431,-0.2353,-0.2353,-0.2275,-0.2196,-0.7829,-0.7829,-0.7829,-0.787,-0.7947,-0.8117,-0.8268,-0.8365,-0.8377,-0.8377,-0.8345,-0.8239,-0.815,-0.8044,-0.7886,-0.7695,-0.7663,-0.7549,-0.748,-0.748,-0.748,-0.748,-0.748,-0.748,-0.748,-0.748,-0.748,-0.748,-0.748,-0.748,-0.748,-0.748,-0.748,-0.748,-0.748,-0.748,-0.748,-0.748,-0.748,-0.748,-0.748,-0.748,-0.748,-0.748,-0.748,-0.748,-0.748,-0.748,-0.748,-0.748,-0.748,-0.748,-0.748,-0.748,-0.748,-0.748,-0.748,-0.748,-0.748,-0.748,-0.748,-0.748,-0.748,-0.748,-0.748,-0.748,-0.748,-0.748,-0.748,-0.748,-0.748,-0.748,-0.7403,-0.7249,-0.6861,-0.6398,-0.5544,-0.4533,-0.3832,-0.3521,-0.321,-0.2821,-0.2588,-0.251,-0.251,-0.251,-0.251,-0.251,-0.251,-0.251,-0.251,-0.251,-0.251,-0.251,-0.251,-0.251,-0.251,-0.251,-0.251,-0.251,-0.251,-0.251,-0.251,-0.251,-0.251,-0.251,-0.251,-0.251,-0.2431,-0.2354,-0.2276,-0.2198,-0.2195,-0.2118,-0.2041,-0.7484,-0.748,-0.748,-0.7598,-0.7764,-0.7914,-0.8,-0.8024,-0.8032,-0.8036,-0.8024,-0.8032,-0.7951,-0.7805,-0.7827,-0.7655,-0.7541,-0.7492,-0.7484,-0.748,-0.748,-0.748,-0.748,-0.748,-0.748,-0.748,-0.748,-0.748,-0.748,-0.748,-0.748,-0.748,-0.748,-0.748,-0.748,-0.748,-0.748,-0.748,-0.748,-0.748,-0.748,-0.748,-0.748,-0.748,-0.748,-0.748,-0.748,-0.748,-0.748,-0.748,-0.748,-0.748,-0.748,-0.748,-0.748,-0.748,-0.748,-0.748,-0.748,-0.748,-0.748,-0.748,-0.748,-0.748,-0.748,-0.748,-0.748,-0.748,-0.748,-0.748,-0.748,-0.748,-0.7407,-0.7096,-0.663,-0.6009,-0.5234,-0.4457,-0.3756,-0.3366,-0.3212,-0.2978,-0.3056,-0.2978,-0.2821,-0.2743,-0.2743,-0.251,-0.251,-0.251,-0.251,-0.251,-0.251,-0.251,-0.251,-0.251,-0.251,-0.251,-0.251,-0.251,-0.251,-0.251,-0.251,-0.251,-0.251,-0.251,-0.2431,-0.2353,-0.2196,-0.2119,-0.2042,-0.2042,-0.1962,-0.1963,-0.1807,-0.748,-0.748,-0.748,-0.7516,-0.7561,-0.7618,-0.7772,-0.7992,-0.8012,-0.8012,-0.8004,-0.7882,-0.7793,-0.7832,-0.77,-0.7541,-0.7504,-0.748,-0.748,-0.748,-0.748,-0.748,-0.748,-0.748,-0.748,-0.748,-0.748,-0.748,-0.748,-0.748,-0.748,-0.748,-0.748,-0.748,-0.748,-0.748,-0.748,-0.748,-0.748,-0.748,-0.748,-0.748,-0.748,-0.748,-0.748,-0.748,-0.748,-0.748,-0.748,-0.748,-0.748,-0.748,-0.748,-0.748,-0.748,-0.748,-0.748,-0.748,-0.748,-0.748,-0.748,-0.748,-0.748,-0.748,-0.748,-0.748,-0.748,-0.748,-0.748,-0.748,-0.748,-0.748,-0.7326,-0.6942,-0.6475,-0.5931,-0.5234,-0.4768,-0.4146,-0.4068,-0.3837,-0.3679,-0.3756,-0.3444,-0.3288,-0.321,-0.2976,-0.2665,-0.251,-0.251,-0.251,-0.251,-0.251,-0.251,-0.251,-0.251,-0.251,-0.251,-0.251,-0.251,-0.251,-0.251,-0.251,-0.251,-0.2431,-0.2353,-0.2273,-0.2196,-0.2041,-0.1963,-0.1886,-0.1807,-0.1729,-0.1729,-0.1651,-0.748,-0.748,-0.748,-0.748,-0.748,-0.748,-0.7618,-0.7784,-0.7801,-0.7805,-0.7789,-0.7695,-0.7729,-0.763,-0.7537,-0.7484,-0.7484,-0.748,-0.748,-0.748,-0.748,-0.748,-0.748,-0.748,-0.748,-0.748,-0.748,-0.748,-0.748,-0.748,-0.748,-0.748,-0.748,-0.748,-0.748,-0.748,-0.748,-0.748,-0.748,-0.748,-0.748,-0.748,-0.748,-0.748,-0.748,-0.748,-0.748,-0.748,-0.748,-0.748,-0.748,-0.748,-0.748,-0.748,-0.748,-0.748,-0.748,-0.748,-0.748,-0.748,-0.748,-0.748,-0.748,-0.748,-0.748,-0.748,-0.748,-0.748,-0.748,-0.748,-0.748,-0.748,-0.7173,-0.6861,-0.6398,-0.6009,-0.5622,-0.516,-0.5004,-0.4927,-0.4771,-0.4613,-0.4377,-0.4066,-0.3599,-0.3056,-0.2821,-0.2666,-0.251,-0.251,-0.251,-0.251,-0.251,-0.251,-0.251,-0.251,-0.251,-0.251,-0.251,-0.251,-0.251,-0.251,-0.2511,-0.2431,-0.2431,-0.2275,-0.2196,-0.1961,-0.1884,-0.1729,-0.1651,-0.1572,-0.1493,-0.1493,-0.1415,-0.748,-0.748,-0.748,-0.748,-0.748,-0.748,-0.7492,-0.748,-0.7516,-0.7492,-0.7504,-0.7492,-0.7504,-0.7521,-0.7484,-0.748,-0.748,-0.748,-0.748,-0.748,-0.748,-0.748,-0.748,-0.748,-0.748,-0.748,-0.748,-0.748,-0.748,-0.748,-0.748,-0.748,-0.748,-0.748,-0.748,-0.748,-0.748,-0.748,-0.748,-0.748,-0.748,-0.748,-0.748,-0.748,-0.748,-0.748,-0.748,-0.748,-0.748,-0.748,-0.748,-0.748,-0.748,-0.748,-0.748,-0.748,-0.748,-0.748,-0.748,-0.748,-0.748,-0.748,-0.748,-0.748,-0.748,-0.748,-0.748,-0.748,-0.748,-0.748,-0.748,-0.748,-0.7249,-0.6942,-0.663,-0.6318,-0.5931,-0.5777,-0.5931,-0.5854,-0.5854,-0.5619,-0.4921,-0.4608,-0.3988,-0.3134,-0.2588,-0.251,-0.251,-0.251,-0.251,-0.251,-0.251,-0.251,-0.251,-0.251,-0.251,-0.251,-0.251,-0.2431,-0.2431,-0.2431,-0.2433,-0.2354,-0.2275,-0.2196,-0.204,-0.1884,-0.1728,-0.1572,-0.1493,-0.1336,-0.1336,-0.1336,-0.1336,-0.748,-0.748,-0.748,-0.748,-0.748,-0.748,-0.748,-0.748,-0.748,-0.748,-0.748,-0.748,-0.748,-0.748,-0.748,-0.748,-0.748,-0.748,-0.748,-0.748,-0.748,-0.748,-0.748,-0.748,-0.748,-0.748,-0.748,-0.748,-0.748,-0.748,-0.748,-0.748,-0.748,-0.748,-0.748,-0.748,-0.748,-0.748,-0.748,-0.748,-0.748,-0.748,-0.748,-0.748,-0.748,-0.748,-0.748,-0.748,-0.748,-0.748,-0.748,-0.748,-0.748,-0.748,-0.748,-0.748,-0.748,-0.748,-0.748,-0.748,-0.748,-0.748,-0.748,-0.748,-0.748,-0.748,-0.748,-0.748,-0.748,-0.748,-0.748,-0.7403,-0.7326,-0.7096,-0.6865,-0.663,-0.6321,-0.6553,-0.6703,-0.678,-0.6784,-0.624,-0.5541,-0.4841,-0.4377,-0.3599,-0.2821,-0.251,-0.251,-0.251,-0.251,-0.251,-0.251,-0.251,-0.251,-0.251,-0.251,-0.251,-0.251,-0.2431,-0.2352,-0.2276,-0.22,-0.2198,-0.2118,-0.1962,-0.1885,-0.1728,-0.1572,-0.1415,-0.1415,-0.1336,-0.1336,-0.1336,-0.1336,-0.748,-0.748,-0.748,-0.748,-0.748,-0.748,-0.748,-0.748,-0.748,-0.748,-0.748,-0.748,-0.748,-0.748,-0.748,-0.748,-0.748,-0.748,-0.748,-0.748,-0.748,-0.748,-0.748,-0.748,-0.748,-0.748,-0.748,-0.748,-0.748,-0.748,-0.748,-0.748,-0.748,-0.748,-0.748,-0.748,-0.748,-0.748,-0.748,-0.748,-0.748,-0.748,-0.748,-0.748,-0.748,-0.748,-0.748,-0.748,-0.748,-0.748,-0.748,-0.748,-0.748,-0.748,-0.748,-0.748,-0.748,-0.748,-0.7476,-0.7476,-0.7476,-0.7472,-0.748,-0.748,-0.748,-0.748,-0.748,-0.748,-0.748,-0.748,-0.748,-0.748,-0.7407,-0.7249,-0.7249,-0.7092,-0.7019,-0.7096,-0.7173,-0.7169,-0.6861,-0.6086,-0.5309,-0.453,-0.391,-0.321,-0.2588,-0.251,-0.251,-0.251,-0.251,-0.251,-0.251,-0.251,-0.251,-0.251,-0.251,-0.251,-0.2431,-0.2353,-0.2275,-0.2043,-0.1965,-0.1963,-0.1885,-0.1807,-0.165,-0.1573,-0.1493,-0.1336,-0.1336,-0.1336,-0.1336,-0.1336,-0.1336,-0.746,-0.748,-0.748,-0.748,-0.748,-0.748,-0.748,-0.748,-0.748,-0.748,-0.748,-0.748,-0.748,-0.748,-0.748,-0.748,-0.748,-0.748,-0.748,-0.748,-0.748,-0.748,-0.748,-0.748,-0.748,-0.748,-0.748,-0.748,-0.748,-0.748,-0.748,-0.748,-0.748,-0.748,-0.748,-0.748,-0.748,-0.748,-0.748,-0.748,-0.748,-0.748,-0.748,-0.748,-0.748,-0.748,-0.748,-0.748,-0.748,-0.748,-0.748,-0.748,-0.748,-0.748,-0.748,-0.748,-0.748,-0.7464,-0.7443,-0.746,-0.7528,-0.7528,-0.7544,-0.7476,-0.7476,-0.748,-0.748,-0.748,-0.748,-0.748,-0.748,-0.748,-0.748,-0.7407,-0.748,-0.748,-0.7484,-0.7484,-0.7484,-0.7403,-0.6703,-0.5854,-0.4999,-0.4219,-0.3521,-0.2821,-0.251,-0.251,-0.251,-0.251,-0.251,-0.2431,-0.2431,-0.2431,-0.2431,-0.2431,-0.2431,-0.2276,-0.2277,-0.2276,-0.2198,-0.1964,-0.1808,-0.1808,-0.173,-0.1573,-0.1493,-0.1415,-0.1336,-0.1336,-0.1336,-0.1336,-0.1336,-0.1336,-0.1336,-0.7358,-0.748,-0.748,-0.748,-0.748,-0.748,-0.748,-0.748,-0.748,-0.748,-0.748,-0.748,-0.748,-0.748,-0.748,-0.748,-0.748,-0.748,-0.748,-0.748,-0.748,-0.748,-0.748,-0.748,-0.748,-0.748,-0.748,-0.748,-0.748,-0.748,-0.748,-0.748,-0.748,-0.748,-0.748,-0.748,-0.748,-0.748,-0.748,-0.748,-0.748,-0.748,-0.748,-0.748,-0.748,-0.748,-0.748,-0.748,-0.748,-0.748,-0.748,-0.748,-0.7472,-0.746,-0.7447,-0.7419,-0.7427,-0.735,-0.7326,-0.7362,-0.7354,-0.7488,-0.7522,-0.746,-0.7464,-0.748,-0.748,-0.748,-0.748,-0.748,-0.748,-0.748,-0.748,-0.748,-0.748,-0.748,-0.748,-0.7407,-0.733,-0.6938,-0.6395,-0.5464,-0.4453,-0.383,-0.3365,-0.2821,-0.251,-0.251,-0.251,-0.251,-0.251,-0.2431,-0.2353,-0.2273,-0.2273,-0.2273,-0.2275,-0.212,-0.2043,-0.2043,-0.1964,-0.1807,-0.1651,-0.1651,-0.1572,-0.1415,-0.1336,-0.1336,-0.1336,-0.1336,-0.1336,-0.1336,-0.1336,-0.1336,-0.1336]},{"header":{"parameterUnit":"m.s-1","parameterCategory":1,"la1":31.0,"la2":29.5877,"lo1":-88.7671,"lo2":-86.6584,"dy":0.0162,"dx":0.0185,"nx":115,"ny":88,"refTime":"2024-07-10T18:00:00:Z","depth":0,"parameterNumber":3,"parameterNumberName":"V-component_of_WINDS"},"data":[0.0,0.0,0.0,0.0,0.0,0.0,0.0,0.0,0.0,0.0,0.0,0.0,0.0,0.0,0.0,0.0,0.0,0.0,0.0,0.0,0.0,0.0,0.0,0.0,0.0,0.0,0.0,0.0,0.0,0.0,0.0,0.0,0.0,0.0,0.0,0.0,0.0,0.0,0.0,0.0,0.0,0.0,0.0,0.0,0.0,0.0,0.0,0.0,0.0,0.0,0.0,0.0,0.0,0.0,0.0,0.0,0.0,0.0,0.0,0.0,0.0,0.0,0.0,0.0,0.0,0.0,0.0,0.0,0.0,0.0,0.0,0.0,0.0,0.0,0.0,0.0,0.0,0.0,0.0,0.0,0.0,0.0,0.0,0.0,0.0,0.0,0.0,0.0,0.0,0.0,0.0,0.0,0.0,0.0,0.0,0.0,0.0,0.0,0.0,0.0,0.0,0.0,0.0,0.0,0.0,0.0,0.0,0.0,0.0,0.0,0.0,0.0,0.0,0.0,0.0,0.0,0.0,0.0,0.0,0.0,0.0,0.0,0.0,0.0,0.0,0.0,0.0,0.0,0.0,0.0,0.0,0.0,0.0,0.0,0.0,0.0,0.0,0.0,0.0,0.0,0.0,0.0,0.0,0.0,0.0,0.0,0.0,0.0,0.0,0.0,0.0,0.0,0.0,0.0,0.0,0.0,0.0,0.0,0.0,0.0,0.0,0.0,0.0,0.0,0.0,0.0,0.0,0.0,0.0,0.0,0.0,0.0,0.0,0.0,0.0,0.0,0.0,0.0,0.0,0.0,0.0,0.0,0.0,0.0,0.0,0.0,0.0,0.0,0.0,0.0,0.0,0.0,0.0,0.0,0.0,0.0,0.0,0.0,0.0,0.0,0.0,0.0,0.0,0.0,0.0,0.0,0.0,0.0,0.0,0.0,0.0,0.0,0.0,0.0,0.0,0.0,0.0,0.0,0.0,0.0,0.0,0.0,0.0,0.0,0.0,0.0,0.0,0.0,0.0,0.0,0.0,0.0,0.0,0.0,0.0,0.0,0.0,0.0,0.0,0.0,0.0,0.0,0.0,0.0,0.0,0.0,0.0,0.0,0.0,0.0,0.0,0.0,0.0,0.0,0.0,0.0,0.0,0.0,0.0,0.0,0.0,0.0,0.0,0.0,0.0,0.0,0.0,0.0,0.0,0.0,0.0,0.0,0.0,0.0,0.0,0.0,0.0,0.0,0.0,0.0,0.0,0.0,0.0,0.0,0.0,0.0,0.0,0.0,0.0,0.0,0.0,0.0,0.0,0.0,0.0,0.0,0.0,0.0,0.0,0.0,0.0,0.0,0.0,0.0,0.0,0.0,0.0,0.0,0.0,0.0,0.0,0.0,0.0,0.0,0.0,0.0,0.0,0.0,0.0,0.0,0.0,0.0,0.0,0.0,0.0,0.0,0.0,0.0,0.0,0.0,0.0,0.0,0.0,0.0,0.0,0.0,0.0,0.0,0.0,0.0,0.0,0.0,0.0,0.0,0.0,0.0,0.0,0.0,0.0,0.0,0.0,0.0,0.0,0.0,0.0,0.0,0.0,0.0,0.0,0.0,0.0,0.0,0.0,0.0,0.0,0.0,0.0,0.0,0.0,0.0,0.0,0.0,0.0,0.0,0.0,0.0,0.0,0.0,0.0,0.0,0.0,0.0,0.0,0.0,0.0,0.0,0.0,0.0,0.0,0.0,0.0,0.0,0.0,0.0,0.0,0.0,0.0,0.0,0.0,0.0,0.0,0.0,0.0,0.0,0.0,0.0,0.0,0.0,0.0,0.0,0.0,0.0,0.0,0.0,0.0,0.0,0.0,0.0,0.0,0.0,0.0,0.0,0.0,0.0,0.0,0.0,0.0,0.0,0.0,0.0,0.0,0.0,0.0,0.0,0.0,0.0,0.0,0.0,0.0,0.0,0.0,0.0,0.0,0.0,0.0,0.0,0.0,0.0,0.0,0.0,0.0,0.0,0.0,0.0,0.0,0.0,0.0,0.0,0.0,0.0,0.0,0.0,0.0,0.0,0.0,0.0,0.0,0.0,0.0,0.0,0.0,0.0,0.0,0.0,0.0,0.0,0.0,0.0,0.0,0.0,0.0,0.0,0.0,0.0,0.0,0.0,0.0,0.0,0.0,0.0,0.0,0.0,0.0,0.0,0.0,0.0,0.0,0.0,0.0,0.0,0.0,0.0,0.0,0.0,0.0,0.0,0.0,0.0,0.0,0.0,0.0,0.0,0.0,0.0,0.0,0.0,0.0,0.0,0.0,0.0,0.0,0.0,0.0,0.0,0.0,0.0,0.0,0.0,0.0,0.0,0.0,0.0,0.0,0.0,0.0,0.0,0.0,0.0,0.0,0.0,0.0,0.0,0.0,0.0,0.0,0.0,0.0,0.0,0.0,0.0,0.0,0.0,0.0,0.0,0.0,0.0,0.0,0.0,0.0,0.0,0.0,0.0,0.0,0.0,0.0,0.0,0.0,0.0,0.0,0.0,0.0,0.0,0.0,0.0,0.0,0.0,0.0,0.0,0.0,0.0,0.0,0.0,0.0,0.0,0.0,0.0,0.0,0.0,0.0,0.0,0.0,0.0,0.0,0.0,0.0,0.0,0.0,0.0,0.0,0.0,0.0,0.0,0.0,0.0,0.0,0.0,0.0,0.0,0.0,0.0,0.0,0.0,0.0,0.0,0.0,0.0,0.0,0.0,0.0,0.0,0.0,0.0,0.0,0.0,0.0,0.0,0.0,0.0,0.0,0.0,0.0,0.0,0.0,0.0,0.0,0.0,0.0,0.0,0.0,0.0,0.0,0.0,0.0,0.0,0.0,0.0,0.0,0.0,0.0,0.0,0.0,0.0,0.0,0.0,0.0,0.0,0.0,0.0,0.0,0.0,0.0,0.0,0.0,0.0,0.0,0.0,0.0,0.0,0.0,0.0,0.0,0.0,0.0,0.0,0.0,0.0,0.0,0.0,0.0,0.0,0.0,0.0,0.0,0.0,0.0,0.0,0.0,0.0,0.0,0.0,0.0,0.0,0.0,0.0,0.0,0.0,0.0,0.0,0.0,0.0,0.0,0.0,0.0,0.0,0.0,0.0,0.0,0.0,0.0,0.0,0.0,0.0,0.0,0.0,0.0,0.0,0.0,0.0,0.0,0.0,0.0,0.0,0.0,0.0,0.0,0.0,0.0,0.0,0.0,0.0,0.0,0.0,0.0,0.0,0.0,0.0,0.0,0.0,0.0,0.0,0.0,0.0,0.0,0.0,0.0,0.0,0.0,0.0,0.0,0.0,0.0,0.0,0.0,0.0,0.0,0.0,0.0,0.0,0.0,0.0,0.0,0.0,0.0,0.0,0.0,0.0,0.0,0.0,0.0,0.0,0.0,0.0,0.0,0.0,0.0,0.0,0.0,0.0,0.0,0.0,0.0,0.0,0.0,0.0,0.0,0.0,0.0,0.0,0.0,0.0,0.0,0.0,0.0,0.0,0.0,0.0,0.0,0.0,0.0,0.0,0.0,0.0,0.0,0.0,0.0,0.0,0.0,0.0,0.0,0.0,0.0,0.0,0.0,0.0,0.0,0.0,0.0,0.0,0.0,0.0,0.0,0.0,0.0,0.0,0.0,0.0,0.0,0.0,0.0,0.0,0.0,0.0,0.0,0.0,0.0,0.0,0.0,0.0,0.0,0.0,0.0,0.0,0.0,0.0,0.0,0.0,0.0,0.0,0.0,0.0,0.0,0.0,0.0,0.0,0.0,0.0,0.0,0.0,0.0,0.0,0.0,0.0,0.0,0.0,0.0,0.0,0.0,0.0,0.0,0.0,0.0,0.0,0.0,0.0,0.0,0.0,0.0,0.0,0.0,0.0,0.0,0.0,0.0,0.0,0.0,0.0,0.0,0.0,0.0,0.0,0.0,0.0,0.0,0.0,0.0,0.0,0.0,0.0,0.0,0.0,0.0,0.0,0.0,0.0,0.0,0.0,0.0,0.0,0.0,0.0,0.0,0.0,0.0,0.0,0.0,0.0,0.0,0.0,0.0,0.0,0.0,0.0,0.0,0.0,0.0,0.0,0.0,0.0,0.0,0.0,0.0,0.0,0.0,0.0,0.0,0.0,0.0,0.0,0.0,0.0,0.0,0.0,0.0,0.0,0.0,0.0,0.0,0.0,0.0,0.0,0.0,0.0,0.0,0.0,0.0,0.0,0.0,0.0,0.0,0.0,0.0,0.0,0.0,0.0,0.0,0.0,-0.9615,0.0,0.0,0.0,0.0,0.0,0.0,0.0,0.0,0.0,0.0,0.0,0.0,0.0,0.0,0.0,0.0,0.0,0.0,0.0,0.0,0.0,0.0,0.0,0.0,0.0,0.0,0.0,0.0,0.0,0.0,0.0,0.0,0.0,0.0,0.0,0.0,0.0,0.0,0.0,0.0,0.0,0.0,0.0,0.0,0.0,0.0,0.0,0.0,0.0,0.0,0.0,0.0,0.0,0.0,0.0,0.0,0.0,0.0,0.0,0.0,0.0,0.0,0.0,0.0,0.0,0.0,0.0,0.0,0.0,0.0,0.0,0.0,0.0,0.0,0.0,0.0,0.0,0.0,0.0,0.0,0.0,0.0,0.0,0.0,0.0,0.0,0.0,0.0,0.0,0.0,0.0,0.0,0.0,0.0,0.0,0.0,0.0,0.0,0.0,0.0,0.0,0.0,0.0,0.0,0.0,0.0,0.0,0.0,0.0,0.0,-0.9607,-0.9617,-0.9633,-0.9657,-0.9646,0.0,0.0,0.0,0.0,0.0,0.0,0.0,0.0,0.0,0.0,0.0,0.0,0.0,0.0,0.0,0.0,0.0,0.0,0.0,0.0,0.0,0.0,0.0,0.0,0.0,0.0,0.0,0.0,0.0,0.0,0.0,0.0,0.0,0.0,0.0,0.0,0.0,0.0,0.0,0.0,0.0,0.0,0.0,0.0,0.0,0.0,0.0,0.0,0.0,0.0,0.0,0.0,0.0,0.0,0.0,0.0,0.0,0.0,0.0,0.0,0.0,0.0,0.0,0.0,0.0,0.0,0.0,0.0,0.0,0.0,0.0,0.0,0.0,0.0,0.0,0.0,0.0,0.0,0.0,0.0,0.0,0.0,0.0,0.0,0.0,0.0,0.0,0.0,0.0,0.0,0.0,0.0,0.0,0.0,0.0,0.0,0.0,0.0,0.0,0.0,0.0,0.0,0.0,0.0,0.0,0.0,0.0,0.0,0.0,0.0,0.0,0.0,-1.0223,-1.0231,-1.0249,0.0,0.0,0.0,0.0,0.0,0.0,0.0,0.0,0.0,0.0,0.0,0.0,0.0,0.0,0.0,0.0,0.0,0.0,0.0,0.0,0.0,0.0,0.0,0.0,0.0,0.0,0.0,0.0,0.0,0.0,0.0,0.0,0.0,0.0,0.0,0.0,0.0,0.0,0.0,0.0,0.0,0.0,0.0,0.0,0.0,0.0,0.0,0.0,0.0,0.0,0.0,0.0,0.0,0.0,0.0,0.0,0.0,0.0,0.0,0.0,0.0,0.0,0.0,0.0,0.0,0.0,0.0,0.0,0.0,0.0,0.0,0.0,0.0,0.0,0.0,0.0,0.0,0.0,0.0,0.0,0.0,0.0,0.0,0.0,0.0,0.0,0.0,0.0,0.0,0.0,0.0,0.0,0.0,0.0,0.0,0.0,0.0,0.0,0.0,0.0,0.0,0.0,0.0,0.0,0.0,0.0,0.0,0.0,0.0,0.0,-1.037,-1.182,-1.1856,0.0,-1.1893,0.0,0.0,0.0,0.0,0.0,0.0,0.0,0.0,0.0,0.0,0.0,0.0,0.0,0.0,0.0,0.0,0.0,0.0,0.0,0.0,0.0,0.0,0.0,0.0,0.0,0.0,0.0,0.0,0.0,0.0,0.0,0.0,0.0,0.0,0.0,0.0,0.0,0.0,0.0,0.0,0.0,0.0,0.0,0.0,0.0,0.0,0.0,0.0,0.0,0.0,0.0,0.0,0.0,0.0,0.0,0.0,0.0,0.0,0.0,0.0,0.0,0.0,0.0,0.0,0.0,0.0,0.0,0.0,0.0,0.0,0.0,0.0,0.0,0.0,0.0,0.0,0.0,0.0,0.0,0.0,0.0,0.0,0.0,0.0,0.0,0.0,0.0,0.0,0.0,0.0,0.0,0.0,0.0,0.0,0.0,0.0,0.0,0.0,0.0,0.0,0.0,0.0,0.0,0.0,0.0,0.0,0.0,0.0,0.0,0.0,0.0,-1.2076,-1.2076,-1.2076,0.0,0.0,0.0,0.0,0.0,0.0,0.0,0.0,0.0,0.0,0.0,0.0,0.0,0.0,0.0,0.0,0.0,0.0,0.0,0.0,0.0,0.0,0.0,0.0,0.0,0.0,0.0,0.0,0.0,0.0,0.0,0.0,0.0,0.0,0.0,0.0,0.0,0.0,0.0,0.0,0.0,0.0,0.0,0.0,0.0,0.0,0.0,0.0,0.0,0.0,0.0,0.0,0.0,0.0,0.0,0.0,0.0,0.0,0.0,0.0,0.0,0.0,0.0,0.0,0.0,0.0,0.0,0.0,0.0,0.0,0.0,0.0,0.0,0.0,0.0,0.0,0.0,0.0,0.0,0.0,0.0,0.0,0.0,0.0,0.0,0.0,0.0,0.0,0.0,0.0,0.0,0.0,0.0,0.0,0.0,0.0,0.0,0.0,0.0,0.0,0.0,0.0,0.0,0.0,0.0,0.0,0.0,0.0,0.0,0.0,-1.1746,0.0,-1.2737,-1.2756,-1.2544,-1.2113,0.0,0.0,0.0,0.0,0.0,0.0,0.0,0.0,0.0,0.0,0.0,0.0,0.0,0.0,0.0,0.0,0.0,0.0,0.0,0.0,0.0,0.0,0.0,0.0,0.0,0.0,0.0,0.0,0.0,0.0,0.0,0.0,0.0,0.0,0.0,0.0,0.0,0.0,0.0,0.0,0.0,0.0,0.0,0.0,0.0,0.0,0.0,0.0,0.0,0.0,0.0,0.0,0.0,0.0,0.0,0.0,0.0,0.0,0.0,0.0,0.0,0.0,0.0,0.0,0.0,0.0,0.0,0.0,0.0,0.0,0.0,0.0,0.0,0.0,0.0,0.0,0.0,0.0,0.0,0.0,0.0,0.0,0.0,0.0,0.0,0.0,0.0,0.0,0.0,0.0,0.0,0.0,0.0,0.0,0.0,0.0,0.0,0.0,0.0,0.0,0.0,0.0,0.0,0.0,0.0,0.0,0.0,0.0,0.0,-1.2829,-1.2847,-1.4334,-1.4389,-1.3673,0.0,0.0,0.0,0.0,0.0,0.0,0.0,0.0,0.0,0.0,0.0,0.0,0.0,0.0,0.0,0.0,0.0,0.0,0.0,0.0,0.0,0.0,0.0,0.0,0.0,0.0,0.0,0.0,0.0,0.0,0.0,0.0,0.0,0.0,0.0,0.0,0.0,0.0,0.0,0.0,0.0,0.0,0.0,0.0,0.0,0.0,0.0,0.0,0.0,0.0,0.0,0.0,0.0,0.0,0.0,0.0,0.0,0.0,0.0,0.0,0.0,0.0,0.0,0.0,0.0,0.0,0.0,0.0,0.0,0.0,0.0,0.0,0.0,0.0,0.0,0.0,0.0,0.0,0.0,0.0,0.0,0.0,0.0,0.0,0.0,0.0,0.0,0.0,0.0,0.0,0.0,0.0,0.0,0.0,0.0,0.0,0.0,0.0,0.0,0.0,0.0,0.0,0.0,0.0,0.0,0.0,0.0,0.0,0.0,-1.1379,-1.1903,-1.3454,-1.5954,-1.4138,-1.328,0.0,0.0,0.0,0.0,0.0,0.0,0.0,0.0,0.0,0.0,0.0,0.0,0.0,0.0,0.0,0.0,0.0,0.0,0.0,0.0,0.0,0.0,0.0,0.0,0.0,0.0,0.0,0.0,0.0,0.0,0.0,0.0,0.0,0.0,0.0,0.0,0.0,0.0,0.0,0.0,0.0,0.0,0.0,0.0,0.0,0.0,0.0,0.0,0.0,0.0,0.0,0.0,0.0,0.0,0.0,0.0,0.0,0.0,0.0,0.0,0.0,0.0,0.0,0.0,0.0,0.0,0.0,0.0,0.0,0.0,0.0,0.0,0.0,0.0,0.0,0.0,0.0,0.0,0.0,0.0,0.0,0.0,0.0,0.0,0.0,0.0,0.0,0.0,0.0,0.0,0.0,0.0,0.0,0.0,0.0,0.0,0.0,0.0,0.0,0.0,0.0,0.0,0.0,0.0,0.0,0.0,0.0,0.0,0.0,-1.1285,0.0,-1.4574,0.0,-1.4153,-1.3076,0.0,0.0,0.0,0.0,0.0,0.0,0.0,0.0,0.0,0.0,0.0,0.0,0.0,0.0,0.0,0.0,0.0,0.0,0.0,0.0,0.0,0.0,0.0,0.0,0.0,0.0,0.0,0.0,0.0,0.0,0.0,0.0,0.0,0.0,0.0,0.0,0.0,0.0,0.0,0.0,0.0,0.0,0.0,0.0,0.0,0.0,0.0,0.0,0.0,0.0,0.0,0.0,0.0,0.0,0.0,0.0,0.0,0.0,0.0,0.0,0.0,0.0,0.0,0.0,0.0,0.0,0.0,0.0,0.0,0.0,0.0,0.0,0.0,0.0,0.0,0.0,0.0,0.0,0.0,0.0,0.0,0.0,0.0,0.0,0.0,0.0,0.0,0.0,0.0,0.0,0.0,0.0,0.0,0.0,0.0,0.0,0.0,0.0,0.0,0.0,0.0,0.0,0.0,0.0,0.0,0.0,0.0,0.0,-1.1379,-1.4392,-1.5944,-1.6079,-1.4728,-1.4582,-1.3123,0.0,0.0,0.0,0.0,0.0,0.0,0.0,0.0,0.0,0.0,0.0,0.0,0.0,0.0,0.0,0.0,0.0,0.0,0.0,0.0,0.0,0.0,0.0,0.0,0.0,0.0,0.0,0.0,0.0,0.0,0.0,0.0,0.0,0.0,0.0,0.0,0.0,0.0,0.0,0.0,0.0,0.0,0.0,0.0,0.0,0.0,0.0,0.0,0.0,0.0,0.0,0.0,0.0,0.0,0.0,0.0,0.0,0.0,0.0,0.0,0.0,0.0,0.0,0.0,0.0,0.0,0.0,0.0,0.0,0.0,0.0,0.0,0.0,0.0,0.0,0.0,0.0,0.0,0.0,0.0,0.0,0.0,0.0,0.0,0.0,0.0,0.0,0.0,0.0,0.0,0.0,0.0,0.0,0.0,0.0,0.0,0.0,0.0,0.0,0.0,0.0,0.0,0.0,0.0,0.0,0.0,0.0,0.0,0.0,-1.3099,-1.4719,-1.6196,-1.733,-1.4676,-1.3543,0.0,0.0,0.0,0.0,0.0,0.0,0.0,0.0,0.0,0.0,0.0,0.0,0.0,0.0,0.0,0.0,0.0,0.0,0.0,0.0,0.0,0.0,0.0,0.0,0.0,0.0,0.0,0.0,0.0,0.0,0.0,0.0,0.0,0.0,0.0,0.0,0.0,0.0,0.0,0.0,0.0,0.0,0.0,0.0,0.0,0.0,0.0,0.0,0.0,0.0,0.0,0.0,0.0,0.0,0.0,0.0,0.0,0.0,0.0,0.0,0.0,0.0,0.0,0.0,0.0,0.0,0.0,0.0,0.0,0.0,0.0,0.0,0.0,0.0,0.0,0.0,0.0,0.0,0.0,0.0,0.0,0.0,0.0,0.0,0.0,0.0,0.0,0.0,0.0,0.0,0.0,0.0,0.0,0.0,0.0,0.0,0.0,0.0,0.0,0.0,0.0,0.0,0.0,0.0,0.0,0.0,0.0,0.0,0.0,-1.4893,-1.6413,-1.771,-1.8745,-1.5866,-1.4528,-1.4896,0.0,0.0,0.0,0.0,0.0,0.0,0.0,0.0,0.0,0.0,0.0,0.0,0.0,0.0,0.0,0.0,0.0,0.0,0.0,0.0,0.0,0.0,0.0,0.0,0.0,0.0,0.0,0.0,0.0,0.0,0.0,0.0,0.0,0.0,0.0,0.0,0.0,0.0,0.0,0.0,0.0,0.0,0.0,0.0,0.0,0.0,0.0,0.0,0.0,0.0,0.0,0.0,0.0,0.0,0.0,0.0,0.0,0.0,0.0,0.0,0.0,0.0,0.0,0.0,0.0,0.0,0.0,0.0,0.0,0.0,0.0,0.0,0.0,0.0,0.0,0.0,0.0,0.0,0.0,0.0,0.0,0.0,0.0,0.0,0.0,0.0,0.0,0.0,0.0,0.0,0.0,0.0,0.0,0.0,0.0,0.0,0.0,0.0,0.0,0.0,0.0,0.0,0.0,0.0,0.0,0.0,0.0,0.0,-1.8932,-2.0395,-2.0462,-1.9085,-1.7966,-1.5969,0.0,0.0,0.0,0.0,0.0,0.0,0.0,0.0,0.0,0.0,0.0,0.0,0.0,0.0,0.0,0.0,0.0,0.0,0.0,0.0,0.0,0.0,0.0,0.0,0.0,0.0,0.0,0.0,0.0,0.0,0.0,0.0,0.0,0.0,0.0,0.0,0.0,0.0,0.0,0.0,0.0,0.0,0.0,0.0,0.0,0.0,0.0,0.0,0.0,0.0,0.0,0.0,0.0,0.0,0.0,0.0,0.0,0.0,0.0,0.0,0.0,0.0,0.0,0.0,0.0,0.0,0.0,0.0,0.0,0.0,0.0,0.0,0.0,0.0,0.0,0.0,0.0,0.0,0.0,0.0,0.0,0.0,0.0,0.0,0.0,0.0,0.0,0.0,0.0,0.0,0.0,0.0,0.0,0.0,0.0,0.0,0.0,0.0,0.0,0.0,0.0,0.0,0.0,0.0,0.0,0.0,0.0,0.0,0.0,-1.9745,-2.1975,-2.2955,-2.2481,-1.9297,-1.7159,0.0,0.0,0.0,0.0,0.0,0.0,0.0,0.0,0.0,0.0,0.0,0.0,0.0,0.0,0.0,0.0,0.0,0.0,0.0,0.0,0.0,0.0,0.0,0.0,0.0,0.0,0.0,0.0,0.0,0.0,0.0,0.0,0.0,0.0,0.0,0.0,0.0,0.0,0.0,0.0,0.0,0.0,0.0,0.0,0.0,0.0,0.0,0.0,0.0,0.0,0.0,0.0,0.0,0.0,0.0,0.0,0.0,0.0,0.0,0.0,0.0,0.0,0.0,0.0,0.0,0.0,0.0,0.0,0.0,0.0,0.0,0.0,0.0,0.0,0.0,0.0,0.0,0.0,0.0,0.0,0.0,0.0,0.0,0.0,0.0,0.0,0.0,0.0,0.0,0.0,0.0,0.0,0.0,0.0,0.0,0.0,0.0,0.0,0.0,0.0,0.0,0.0,0.0,0.0,0.0,0.0,0.0,0.0,-1.884,-2.1635,-2.3479,-2.4454,-2.4435,-2.1359,-1.9009,0.0,0.0,0.0,0.0,0.0,0.0,0.0,0.0,0.0,0.0,0.0,0.0,0.0,0.0,0.0,0.0,0.0,0.0,0.0,0.0,0.0,0.0,0.0,0.0,0.0,0.0,0.0,0.0,0.0,0.0,0.0,0.0,0.0,0.0,0.0,0.0,0.0,0.0,0.0,0.0,0.0,0.0,0.0,0.0,0.0,0.0,0.0,0.0,0.0,0.0,0.0,0.0,0.0,0.0,0.0,0.0,0.0,0.0,0.0,0.0,0.0,0.0,0.0,0.0,0.0,0.0,0.0,0.0,0.0,0.0,0.0,0.0,0.0,0.0,0.0,0.0,0.0,0.0,0.0,0.0,0.0,0.0,0.0,0.0,0.0,0.0,0.0,0.0,0.0,0.0,0.0,0.0,0.0,0.0,0.0,0.0,0.0,0.0,0.0,0.0,0.0,0.0,0.0,0.0,0.0,0.0,0.0,0.0,-2.0547,-2.3689,-2.4702,-2.521,-2.5153,-2.3518,-2.1072,0.0,0.0,0.0,0.0,0.0,0.0,0.0,0.0,0.0,0.0,0.0,0.0,0.0,0.0,0.0,0.0,0.0,0.0,0.0,0.0,0.0,0.0,0.0,0.0,0.0,0.0,0.0,0.0,0.0,0.0,0.0,0.0,0.0,0.0,0.0,0.0,0.0,0.0,0.0,0.0,0.0,0.0,0.0,0.0,0.0,0.0,0.0,0.0,0.0,0.0,0.0,0.0,0.0,0.0,0.0,0.0,0.0,0.0,0.0,0.0,0.0,0.0,0.0,0.0,0.0,0.0,0.0,0.0,0.0,0.0,0.0,0.0,0.0,0.0,0.0,0.0,0.0,0.0,0.0,0.0,0.0,0.0,0.0,0.0,0.0,0.0,0.0,0.0,0.0,0.0,0.0,0.0,0.0,0.0,0.0,0.0,0.0,0.0,0.0,0.0,0.0,0.0,0.0,0.0,0.0,0.0,0.0,0.0,-2.0839,-2.2849,-2.4408,-2.521,-2.5191,-2.3509,-2.1359,0.0,0.0,0.0,0.0,0.0,0.0,0.0,0.0,0.0,0.0,0.0,0.0,0.0,0.0,0.0,0.0,0.0,0.0,0.0,0.0,0.0,0.0,0.0,0.0,0.0,0.0,0.0,0.0,0.0,0.0,0.0,0.0,0.0,0.0,0.0,0.0,0.0,0.0,0.0,0.0,0.0,0.0,0.0,0.0,0.0,0.0,0.0,0.0,-1.2195,0.0,0.0,0.0,0.0,0.0,0.0,0.0,0.0,0.0,0.0,0.0,0.0,0.0,0.0,0.0,0.0,0.0,0.0,0.0,0.0,0.0,0.0,0.0,0.0,0.0,0.0,0.0,0.0,0.0,0.0,0.0,0.0,0.0,0.0,0.0,0.0,0.0,0.0,0.0,0.0,0.0,0.0,0.0,0.0,0.0,0.0,0.0,0.0,0.0,0.0,0.0,0.0,0.0,0.0,0.0,0.0,0.0,0.0,0.0,-2.1727,-2.3747,-2.4732,-2.521,-2.5172,-2.4312,-2.2429,0.0,0.0,0.0,0.0,0.0,0.0,0.0,0.0,0.0,0.0,0.0,0.0,0.0,0.0,0.0,0.0,0.0,0.0,0.0,0.0,0.0,0.0,0.0,0.0,0.0,0.0,0.0,0.0,0.0,0.0,0.0,0.0,0.0,0.0,0.0,0.0,0.0,0.0,0.0,0.0,0.0,0.0,0.0,0.0,0.0,0.0,0.0,0.0,0.0,0.0,0.0,0.0,0.0,0.0,0.0,0.0,0.0,0.0,0.0,0.0,0.0,0.0,0.0,0.0,0.0,0.0,0.0,0.0,0.0,0.0,0.0,0.0,0.0,0.0,0.0,0.0,0.0,0.0,0.0,0.0,0.0,0.0,0.0,0.0,0.0,0.0,0.0,0.0,0.0,0.0,0.0,0.0,0.0,0.0,0.0,0.0,0.0,0.0,0.0,0.0,0.0,0.0,0.0,0.0,0.0,0.0,0.0,-2.0107,-2.2496,-2.5057,-2.521,-2.521,-2.521,-2.521,-2.3594,-2.0222,0.0,0.0,0.0,0.0,0.0,0.0,0.0,0.0,0.0,0.0,0.0,0.0,0.0,0.0,0.0,0.0,0.0,0.0,0.0,0.0,0.0,0.0,0.0,0.0,0.0,0.0,0.0,0.0,0.0,0.0,0.0,0.0,0.0,0.0,0.0,0.0,0.0,0.0,-1.0758,-1.2937,0.0,0.0,0.0,0.0,0.0,0.0,0.0,0.0,-1.4363,0.0,0.0,0.0,0.0,0.0,0.0,0.0,0.0,0.0,0.0,0.0,0.0,0.0,0.0,0.0,0.0,0.0,0.0,0.0,0.0,0.0,0.0,0.0,0.0,0.0,0.0,0.0,0.0,0.0,0.0,0.0,0.0,0.0,0.0,0.0,0.0,0.0,0.0,0.0,0.0,0.0,0.0,0.0,0.0,0.0,0.0,0.0,0.0,0.0,0.0,0.0,0.0,0.0,0.0,0.0,0.0,-1.962,-2.0098,-2.1913,-2.5115,-2.521,-2.521,-2.521,-2.521,-2.3605,-2.0279,0.0,0.0,0.0,0.0,0.0,0.0,0.0,0.0,0.0,0.0,0.0,0.0,0.0,0.0,0.0,0.0,0.0,0.0,0.0,0.0,0.0,0.0,0.0,0.0,0.0,0.0,0.0,0.0,0.0,0.0,0.0,0.0,0.0,0.0,0.0,0.0,0.0,0.0,0.0,-1.5087,-1.6591,0.0,0.0,0.0,0.0,0.0,0.0,0.0,0.0,-1.4836,0.0,0.0,0.0,0.0,0.0,0.0,0.0,0.0,0.0,0.0,0.0,0.0,0.0,0.0,0.0,0.0,0.0,0.0,0.0,0.0,0.0,0.0,0.0,0.0,0.0,0.0,0.0,0.0,0.0,0.0,0.0,0.0,0.0,0.0,0.0,0.0,0.0,0.0,0.0,0.0,0.0,0.0,0.0,0.0,0.0,0.0,0.0,0.0,0.0,0.0,0.0,0.0,0.0,0.0,0.0,-1.8703,-2.0518,-2.2639,-2.5096,-2.521,-2.521,-2.5191,-2.4331,-2.2687,0.0,0.0,0.0,0.0,0.0,0.0,0.0,0.0,0.0,0.0,0.0,0.0,0.0,0.0,0.0,0.0,0.0,0.0,0.0,0.0,0.0,0.0,0.0,0.0,0.0,0.0,0.0,0.0,0.0,0.0,0.0,0.0,0.0,0.0,0.0,0.0,0.0,0.0,0.0,0.0,-1.6572,-1.7684,-1.8543,0.0,0.0,0.0,0.0,0.0,0.0,-1.6844,-1.5868,0.0,0.0,0.0,0.0,0.0,0.0,0.0,0.0,0.0,0.0,0.0,0.0,0.0,0.0,0.0,0.0,0.0,0.0,0.0,0.0,0.0,0.0,0.0,0.0,0.0,0.0,0.0,0.0,0.0,0.0,0.0,0.0,0.0,0.0,0.0,0.0,0.0,0.0,0.0,0.0,0.0,0.0,0.0,0.0,0.0,0.0,0.0,0.0,0.0,0.0,0.0,0.0,0.0,0.0,0.0,-1.7622,-2.0738,-2.3288,-2.5096,-2.521,-2.521,-2.5191,-2.3842,-2.2114,0.0,0.0,0.0,0.0,0.0,0.0,0.0,0.0,0.0,0.0,0.0,0.0,0.0,0.0,0.0,0.0,0.0,0.0,0.0,0.0,0.0,0.0,0.0,0.0,0.0,0.0,0.0,0.0,0.0,0.0,0.0,0.0,0.0,0.0,0.0,0.0,0.0,0.0,0.0,0.0,0.0,-1.9227,-1.9752,-2.0281,0.0,0.0,0.0,0.0,-2.0025,-1.8775,0.0,0.0,0.0,0.0,0.0,0.0,0.0,0.0,0.0,0.0,0.0,0.0,0.0,0.0,0.0,0.0,0.0,0.0,0.0,0.0,0.0,0.0,0.0,0.0,0.0,0.0,0.0,0.0,0.0,0.0,0.0,0.0,0.0,0.0,0.0,0.0,0.0,0.0,0.0,0.0,0.0,0.0,0.0,0.0,0.0,0.0,0.0,0.0,0.0,0.0,0.0,0.0,0.0,0.0,0.0,0.0,-1.7603,-2.0184,-2.2726,-2.5057,-2.521,-2.521,-2.521,-2.5,-2.3031,0.0,0.0,0.0,0.0,0.0,0.0,0.0,0.0,0.0,0.0,0.0,0.0,0.0,0.0,0.0,0.0,0.0,0.0,0.0,0.0,0.0,0.0,0.0,0.0,0.0,0.0,0.0,0.0,0.0,0.0,0.0,0.0,0.0,0.0,0.0,0.0,0.0,0.0,0.0,0.0,0.0,-2.2291,-2.1684,-2.1022,-2.0808,0.0,0.0,-2.098,-2.2444,-2.1899,0.0,0.0,0.0,0.0,0.0,0.0,0.0,0.0,0.0,0.0,0.0,0.0,0.0,0.0,0.0,0.0,0.0,0.0,0.0,0.0,0.0,0.0,0.0,0.0,0.0,0.0,0.0,0.0,0.0,0.0,0.0,0.0,0.0,0.0,0.0,0.0,0.0,0.0,0.0,0.0,0.0,0.0,0.0,0.0,0.0,0.0,0.0,0.0,0.0,0.0,0.0,0.0,0.0,0.0,0.0,-1.6062,-1.7661,-2.1034,-2.3586,-2.5134,-2.521,-2.521,-2.521,-2.3796,-2.1732,0.0,0.0,0.0,0.0,0.0,0.0,0.0,0.0,0.0,0.0,0.0,0.0,0.0,0.0,0.0,0.0,0.0,0.0,0.0,0.0,0.0,0.0,0.0,0.0,0.0,0.0,0.0,0.0,0.0,0.0,0.0,0.0,0.0,0.0,0.0,0.0,0.0,0.0,0.0,0.0,0.0,0.0,-2.2564,-2.2662,0.0,0.0,0.0,-2.2816,-2.307,0.0,0.0,0.0,0.0,0.0,0.0,0.0,0.0,0.0,0.0,0.0,0.0,0.0,0.0,0.0,0.0,0.0,0.0,0.0,0.0,0.0,0.0,0.0,0.0,0.0,0.0,0.0,0.0,0.0,0.0,0.0,0.0,0.0,0.0,0.0,0.0,0.0,0.0,0.0,0.0,0.0,0.0,0.0,0.0,0.0,0.0,0.0,0.0,0.0,0.0,0.0,0.0,0.0,0.0,0.0,0.0,0.0,-1.7661,-2.197,-2.453,-2.5191,-2.521,-2.521,-2.5172,-2.3127,0.0,0.0,0.0,0.0,0.0,0.0,0.0,0.0,0.0,0.0,0.0,0.0,0.0,0.0,0.0,0.0,0.0,0.0,0.0,0.0,0.0,0.0,0.0,0.0,0.0,0.0,0.0,-0.7947,0.0,0.0,0.0,0.0,0.0,0.0,0.0,0.0,0.0,0.0,0.0,0.0,0.0,0.0,-2.274,-2.3345,-2.3987,-2.4241,0.0,0.0,-2.4261,-2.3833,-2.3753,-2.3107,0.0,0.0,0.0,0.0,0.0,0.0,0.0,0.0,0.0,0.0,0.0,0.0,0.0,0.0,0.0,0.0,0.0,0.0,0.0,0.0,0.0,0.0,0.0,0.0,0.0,0.0,0.0,0.0,0.0,0.0,0.0,0.0,0.0,0.0,0.0,0.0,0.0,0.0,0.0,0.0,0.0,0.0,0.0,0.0,0.0,0.0,0.0,0.0,0.0,0.0,0.0,0.0,0.0,0.0,0.0,-1.7756,-2.2554,-2.5134,-2.521,-2.521,-2.521,-2.5191,-2.4263,-2.1817,0.0,0.0,0.0,0.0,0.0,0.0,0.0,0.0,0.0,0.0,0.0,0.0,0.0,0.0,0.0,0.0,0.0,0.0,0.0,0.0,0.0,0.0,0.0,0.0,0.0,0.0,0.0,0.0,0.0,0.0,0.0,0.0,0.0,0.0,0.0,0.0,0.0,0.0,0.0,0.0,0.0,-2.4261,-2.4319,-2.4358,-2.4672,0.0,0.0,-2.4672,-2.5395,-2.5512,-2.4672,-2.2211,0.0,0.0,0.0,0.0,0.0,0.0,0.0,0.0,0.0,0.0,0.0,0.0,0.0,0.0,0.0,0.0,0.0,0.0,0.0,0.0,0.0,0.0,0.0,0.0,0.0,0.0,0.0,0.0,0.0,0.0,0.0,0.0,0.0,0.0,0.0,0.0,0.0,0.0,0.0,0.0,0.0,0.0,0.0,0.0,0.0,0.0,0.0,0.0,0.0,0.0,0.0,0.0,0.0,-1.7879,-1.8453,-2.2879,-2.521,-2.521,-2.521,-2.521,-2.521,-2.4358,-2.2161,0.0,0.0,0.0,0.0,0.0,0.0,0.0,0.0,0.0,0.0,0.0,0.0,0.0,0.0,0.0,0.0,0.0,0.0,0.0,0.0,0.0,0.0,0.0,0.0,0.0,0.0,0.0,0.0,-0.9633,-0.9775,-1.0121,0.0,0.0,0.0,0.0,0.0,0.0,0.0,0.0,0.0,0.0,-2.4594,-2.5121,-2.5199,0.0,0.0,-2.5414,-2.5317,-2.5648,-2.5687,-2.5199,-2.3675,-2.272,0.0,0.0,0.0,0.0,0.0,0.0,0.0,0.0,0.0,0.0,0.0,0.0,0.0,0.0,0.0,0.0,0.0,0.0,0.0,0.0,0.0,0.0,0.0,0.0,0.0,0.0,0.0,0.0,0.0,0.0,0.0,0.0,0.0,0.0,0.0,0.0,0.0,0.0,0.0,0.0,0.0,0.0,0.0,0.0,0.0,0.0,0.0,0.0,0.0,0.0,0.0,0.0,-1.8032,-1.8901,-2.3061,-2.521,-2.521,-2.521,-2.521,-2.5191,-2.4358,-2.2429,0.0,0.0,0.0,0.0,0.0,0.0,0.0,0.0,0.0,0.0,0.0,0.0,0.0,0.0,0.0,0.0,0.0,0.0,0.0,0.0,0.0,0.0,0.0,0.0,0.0,0.0,0.0,0.0,-1.0094,-1.0102,-1.0133,0.0,0.0,0.0,0.0,0.0,0.0,0.0,0.0,0.0,0.0,-2.4711,-2.557,-2.5687,-2.5785,-2.6039,-2.5863,-2.5785,-2.6058,-2.6078,-2.5707,-2.4594,0.0,0.0,0.0,0.0,0.0,0.0,0.0,0.0,0.0,0.0,0.0,0.0,0.0,0.0,0.0,0.0,0.0,0.0,0.0,0.0,0.0,0.0,0.0,0.0,0.0,0.0,0.0,-1.0133,0.0,0.0,-1.0113,0.0,0.0,0.0,0.0,0.0,0.0,0.0,0.0,0.0,0.0,0.0,0.0,0.0,0.0,0.0,0.0,0.0,0.0,0.0,0.0,0.0,0.0,-1.8043,-1.8958,-2.3089,-2.521,-2.521,-2.521,-2.521,-2.5191,-2.4358,-2.2696,-2.0108,0.0,0.0,0.0,0.0,0.0,0.0,0.0,0.0,0.0,0.0,0.0,0.0,0.0,0.0,0.0,0.0,0.0,0.0,0.0,0.0,0.0,0.0,0.0,0.0,0.0,0.0,-1.0098,-1.0094,-1.0133,0.0,0.0,0.0,0.0,0.0,0.0,0.0,0.0,0.0,0.0,-2.3853,-2.4731,-2.559,-2.5707,-2.6019,-2.6861,-2.6273,-2.6019,-2.6861,-2.6958,-2.6392,0.0,0.0,0.0,0.0,0.0,0.0,0.0,0.0,0.0,0.0,0.0,0.0,0.0,0.0,0.0,0.0,0.0,0.0,0.0,0.0,0.0,0.0,0.0,0.0,0.0,0.0,0.0,-1.4244,-1.3407,0.0,0.0,0.0,0.0,0.0,0.0,0.0,0.0,0.0,0.0,0.0,-2.0976,-2.0986,0.0,0.0,0.0,0.0,0.0,0.0,0.0,0.0,0.0,0.0,0.0,0.0,-1.8587,-2.0604,-2.3624,-2.521,-2.521,-2.521,-2.521,-2.521,-2.4924,-2.3307,-2.0203,0.0,0.0,0.0,0.0,0.0,0.0,0.0,0.0,0.0,0.0,0.0,0.0,0.0,0.0,0.0,0.0,0.0,0.0,0.0,0.0,0.0,0.0,0.0,0.0,0.0,-1.0106,0.0,0.0,0.0,0.0,0.0,0.0,0.0,0.0,0.0,0.0,0.0,-2.2986,-2.3851,-2.5219,-2.6236,-2.6529,-2.6548,-2.6878,0.0,0.0,0.0,0.0,0.0,0.0,0.0,0.0,0.0,0.0,0.0,0.0,0.0,0.0,-2.4204,-2.0788,-1.9695,-1.9285,-1.9305,0.0,0.0,0.0,0.0,0.0,0.0,0.0,0.0,0.0,0.0,0.0,0.0,0.0,0.0,-1.6941,0.0,-1.5555,0.0,0.0,0.0,0.0,0.0,0.0,0.0,0.0,-2.1455,-2.3101,-2.4432,-2.4441,-2.4441,0.0,-2.2431,-2.0355,0.0,0.0,0.0,0.0,0.0,0.0,0.0,0.0,-1.9591,-2.1847,-2.4075,-2.521,-2.521,-2.521,-2.521,-2.521,-2.4905,-2.3556,-2.1053,-1.9667,-1.7737,0.0,0.0,0.0,0.0,0.0,0.0,0.0,0.0,0.0,0.0,0.0,0.0,0.0,0.0,0.0,0.0,0.0,0.0,0.0,0.0,0.0,0.0,0.0,-1.0241,0.0,0.0,0.0,0.0,0.0,0.0,0.0,0.0,0.0,-2.0962,-2.3242,-2.5054,-2.5666,-2.6693,-2.7429,-2.741,0.0,0.0,0.0,0.0,0.0,0.0,0.0,-2.7993,-2.8264,-2.8088,-2.7993,-2.8244,-2.8283,-2.8108,-2.7542,0.0,0.0,-2.3501,-2.2586,-2.2272,-2.1979,-2.2623,-2.2953,-2.2096,-2.2857,-2.3423,0.0,0.0,0.0,0.0,0.0,0.0,0.0,0.0,-1.8879,-1.9205,0.0,-1.8182,0.0,0.0,0.0,0.0,0.0,-1.9906,0.0,0.0,-2.5191,-2.6854,-2.7663,-2.7638,-2.7695,-2.7701,-2.6759,-2.5504,-2.3804,-1.9925,0.0,0.0,0.0,0.0,0.0,0.0,-2.0996,-2.2719,-2.4361,-2.521,-2.521,-2.521,-2.521,-2.5191,-2.4396,-2.3556,-2.2658,-2.1866,-2.0279,-1.7791,-1.6877,0.0,0.0,0.0,0.0,0.0,0.0,0.0,0.0,0.0,0.0,0.0,0.0,0.0,0.0,0.0,0.0,0.0,0.0,0.0,0.0,-1.0133,0.0,0.0,0.0,0.0,0.0,0.0,0.0,0.0,0.0,0.0,-2.4512,-2.5297,-2.6364,-2.8023,0.0,0.0,0.0,0.0,-2.852,-2.9513,-2.8929,-2.8712,-2.9608,-2.9708,-2.9416,-2.8635,0.0,0.0,-2.8537,-2.8381,-2.844,-2.8381,-2.844,-2.8108,-2.7192,-2.6234,-2.5453,-2.4709,-2.5178,-2.5434,-2.4846,-2.5726,-2.6587,-2.6258,0.0,0.0,0.0,0.0,-2.271,-2.3417,-2.4793,-2.446,-2.3971,-2.331,-2.1885,0.0,0.0,0.0,0.0,0.0,0.0,-2.396,-2.5344,-2.6078,-2.7179,-2.8517,-2.7969,-2.7994,-2.8515,-2.7708,-2.7071,-2.6574,-2.539,-2.2267,-1.7363,0.0,0.0,0.0,0.0,-2.1866,-2.3511,-2.4648,-2.521,-2.521,-2.521,-2.521,-2.521,-2.4962,-2.4415,-2.3556,-2.3288,-2.2017,-1.9526,-1.8609,0.0,0.0,0.0,0.0,0.0,0.0,0.0,0.0,0.0,0.0,0.0,0.0,0.0,0.0,0.0,0.0,0.0,0.0,0.0,-1.0964,-1.1021,-1.1853,0.0,0.0,0.0,0.0,0.0,0.0,0.0,0.0,0.0,-2.8513,-2.8571,-2.832,0.0,0.0,-2.9279,-2.9907,-3.0002,-3.0544,-3.2056,-3.2056,0.0,-3.2263,-3.1797,-3.1504,-3.1875,-3.1641,-3.1094,-3.0235,-3.0079,-3.0079,-3.0079,-3.0079,-2.9826,-2.9006,-2.8147,-2.7503,-2.7249,-2.7405,-2.7483,-2.7288,-2.762,-2.7835,-3.0202,-2.7338,-2.6194,-2.6282,-2.7132,-2.6673,-2.7299,-2.8664,-2.8167,-2.7842,-2.7549,-2.5898,-2.458,-2.3498,-2.1856,0.0,0.0,0.0,-2.6109,-2.7396,-2.7396,-2.8103,-2.9339,-2.8905,-2.893,-2.9374,-2.8567,-2.8166,-2.8179,-2.7854,-2.5485,-2.1254,0.0,0.0,-2.0919,-2.1875,-2.307,-2.4369,-2.4924,-2.521,-2.521,-2.521,-2.521,-2.521,-2.521,-2.4943,-2.4435,-2.4415,-2.3553,-2.1689,-2.0518,-1.8502,0.0,0.0,0.0,0.0,0.0,0.0,0.0,0.0,0.0,0.0,0.0,-1.2185,0.0,0.0,0.0,0.0,-1.1897,-1.2434,-1.3311,-1.3676,0.0,0.0,0.0,0.0,0.0,0.0,0.0,-2.5447,-2.6726,-2.8371,-3.0862,-3.0996,-3.0697,-3.0242,-3.0606,-3.1106,-3.1617,0.0,-3.202,-3.3101,-3.3237,-3.3268,-3.3303,-3.2896,-3.2758,-3.3297,-3.2968,-3.248,-3.1953,-3.1563,-3.1328,-3.1289,-3.1036,-3.0645,-3.0157,-2.965,-2.9045,-2.8459,-2.8596,-2.8713,-2.8381,-2.8557,-2.8732,-3.3054,-3.2879,-3.1407,-3.0636,-3.0398,-3.0398,-3.0404,-3.0395,-3.0395,-3.0815,-3.1369,-2.9808,-2.9063,-2.8891,-2.7472,0.0,-2.6842,-2.7701,-2.8504,-2.9178,-2.9197,-2.9631,-3.0376,-3.0395,-3.0357,-3.028,-2.9464,-2.9063,-2.8968,-2.8275,-2.7453,-2.6593,-2.586,-2.5027,-2.4148,-2.4167,-2.4568,-2.5287,-2.5306,-2.5268,-2.521,-2.521,-2.521,-2.521,-2.521,-2.5172,-2.5096,-2.5096,-2.4664,-2.3702,-2.2227,-2.026,-1.7726,0.0,0.0,0.0,0.0,0.0,0.0,0.0,0.0,0.0,0.0,0.0,0.0,0.0,0.0,0.0,-1.482,0.0,-1.6506,-1.7324,0.0,0.0,0.0,-2.1292,-2.3025,-2.4688,-2.6359,-2.8085,0.0,0.0,-3.2059,-3.2667,-3.3151,-3.3531,-3.3343,-3.3206,-3.3272,-3.313,-3.3041,-3.3326,-3.3267,-3.3277,-3.3592,-3.3576,-3.3589,-3.3587,-3.3515,-3.3456,-3.328,-3.2734,-3.2265,-3.2207,-3.1563,-3.1036,-3.1036,-3.0958,-3.045,-2.8986,-2.922,-2.9455,-2.883,-2.9201,-2.9472,-3.6146,-3.5592,-3.5187,-3.3907,-3.2114,-3.2095,-3.2095,-3.2114,-3.2114,-3.221,-3.231,-3.1331,-3.051,-2.9898,-3.0128,-3.0242,-3.0319,-3.1145,-3.1603,-3.1794,-3.1794,-3.1904,-3.2106,-3.2095,-3.1775,-3.1202,-3.0916,-3.0491,-2.9898,-2.9707,-2.9172,-2.8338,-2.8122,-2.7281,-2.5886,-2.646,-2.6567,-2.6106,-2.6121,-2.5822,-2.5229,-2.521,-2.521,-2.521,-2.521,-2.4885,-2.4224,-2.4224,-2.3507,-2.2064,-2.1607,-2.0251,-1.7728,-1.5808,0.0,0.0,0.0,0.0,0.0,0.0,0.0,0.0,0.0,-1.5342,-1.2789,0.0,-1.6238,0.0,-1.6521,-1.7351,-1.822,-1.9082,0.0,0.0,-2.3475,-2.4919,-2.7179,-2.8396,-2.9461,-3.0547,-3.1591,-3.2622,-3.3566,-3.379,-3.4179,-3.4932,-3.3916,-3.3276,-3.3924,-3.4052,-3.4329,-3.4994,-3.5041,-3.5119,-3.5165,-3.5274,-3.5047,-3.4485,-3.4393,-3.4178,-3.3515,-3.3241,-3.3085,-3.3085,-3.2949,-3.2792,-3.2731,-3.2285,-3.1719,-3.125,-3.086,-3.047,-3.0235,-3.037,-3.0423,-3.7445,-3.7043,-3.7043,-3.6222,-3.4866,-3.414,-3.3818,-3.3815,-3.3815,-3.3834,-3.3777,-3.2974,-3.2134,-3.1369,-3.179,-3.1985,-3.2076,-3.2481,-3.2672,-3.2672,-3.2672,-3.2688,-3.2688,-3.2688,-3.2462,-3.2046,-3.2004,-3.156,-3.0815,-3.0777,-3.0338,-2.9516,-2.9478,-2.902,-2.8122,-2.7835,-2.7453,-2.6969,-2.6593,-2.602,-2.5229,-2.521,-2.521,-2.521,-2.521,-2.4962,-2.4492,-2.4091,-2.3468,-2.256,-2.1798,-2.0594,-1.8802,-1.7486,-1.6201,0.0,0.0,0.0,0.0,0.0,0.0,0.0,0.0,0.0,0.0,0.0,-1.8298,-1.8616,-1.9706,-2.091,-2.2124,-2.3023,-2.4227,-2.5956,-2.6898,-2.8109,-2.9841,-3.0791,-3.1675,-3.2595,-3.3063,-3.37,-3.4681,-3.4738,-3.4859,-3.5423,-3.4648,-3.4206,-3.4704,-3.4859,-3.5078,-3.5609,-3.5688,-3.5687,-3.5833,-3.5858,-3.5724,-3.5376,-3.5269,-3.5096,-3.4627,-3.4217,-3.3983,-3.3964,-3.3671,-3.3395,-3.3373,-3.3041,-3.269,-3.2625,-3.2293,-3.1711,-3.0955,-3.0799,-3.0796,-3.798,-3.7846,-3.7865,-3.7789,-3.7578,-3.6146,-3.5458,-3.5381,-3.5362,-3.5305,-3.5152,-3.4464,-3.3738,-3.3035,-3.3016,-3.3032,-3.3016,-3.3032,-3.3016,-3.3016,-3.3016,-3.3016,-3.3001,-3.3016,-3.2959,-3.2867,-3.2863,-3.2458,-3.1656,-3.1541,-3.1121,-3.0395,-3.0242,-3.0204,-3.0147,-2.8752,-2.7956,-2.7834,-2.7007,-2.6173,-2.5382,-2.5363,-2.5306,-2.521,-2.521,-2.5134,-2.5019,-2.4301,-2.3831,-2.3705,-2.2333,-2.1215,-2.0459,-1.9545,-1.8703,0.0,-1.7718,0.0,0.0,0.0,0.0,0.0,0.0,0.0,0.0,-1.9855,-2.0361,-2.1913,-2.3479,-2.4989,-2.644,-2.7434,-2.8313,-2.8987,-2.9937,-3.0835,-3.1656,-3.242,-3.3245,-3.4218,-3.4227,-3.4544,-3.5345,-3.5336,-3.5254,-3.5336,-3.5273,-3.52,-3.5397,-3.5364,-3.5391,-3.5495,-3.5585,-3.5698,-3.5787,-3.5795,-3.5825,-3.5951,-3.5946,-3.6007,-3.5929,-3.5347,-3.4878,-3.482,-3.4309,-3.3841,-3.3734,-3.3695,-3.3555,-3.3567,-3.3411,-3.283,-3.1633,-3.1128,-3.0967,-3.9393,-3.8763,-3.8763,-3.8362,-3.7674,-3.7349,-3.6852,-3.626,-3.626,-3.5859,-3.5209,-3.5037,-3.4904,-3.4751,-3.4732,-3.4732,-3.4732,-3.4732,-3.4732,-3.4732,-3.4732,-3.4732,-3.4751,-3.4732,-3.4388,-3.3796,-3.3738,-3.3318,-3.2477,-3.1809,-3.1408,-3.1236,-3.0548,-3.0204,-3.0185,0.0,0.0,0.0,-2.7886,-2.7038,-2.623,-2.6173,-2.586,-2.5229,-2.521,0.0,-2.4186,-2.3995,-2.3558,-2.2882,-2.2555,0.0,0.0,0.0,0.0,0.0,0.0,0.0,0.0,0.0,0.0,0.0,-2.09,-2.0382,-2.0199,-2.249,-2.4423,-2.5371,-2.6383,-2.7109,-2.7434,-2.8829,-2.9784,-2.9975,-3.1312,-3.2573,-3.3394,-3.3662,-3.4079,-3.4894,-3.4977,-3.5015,-3.5228,-3.5223,-3.5207,-3.5239,-3.5223,-3.5226,-3.5254,-3.53,-3.5416,-3.5618,-3.5706,-3.5772,-3.5801,-3.5807,-3.5839,-3.5958,-3.6009,-3.6009,-3.5994,-3.5896,-3.574,-3.572,-3.5639,-3.5463,-3.544,-3.4956,-3.4449,-3.4445,-3.3918,-3.3314,-3.2966,-3.2354,-3.1839,-4.0062,0.0,-3.9642,-3.9393,0.0,-3.8992,-3.8514,-3.7693,-3.7269,-3.6867,-3.6413,-3.6012,-3.584,-3.5821,-3.54,-3.519,-3.519,-3.519,-3.519,-3.519,-3.519,-3.519,-3.519,-3.519,-3.498,-3.4598,-3.4598,-3.4178,-3.3356,-3.2917,-3.2516,-3.2095,-3.1255,-3.0835,-3.0815,-3.0395,-2.9784,-2.8911,-2.849,-2.7892,-2.7071,-2.6632,-2.6211,-2.5822,-2.5401,0.0,0.0,0.0,0.0,0.0,0.0,0.0,0.0,0.0,0.0,-2.1979,-2.1588,-2.1541,-2.1961,-2.2019,-2.2546,-2.3781,-2.3873,-2.3517,-2.2699,-2.4972,-2.6765,-2.7549,-2.8064,-2.8637,-2.9478,-3.0319,-3.1178,-3.1981,-3.284,-3.3681,-3.4426,-3.4579,-3.4751,-3.5095,-3.519,-3.519,-3.519,-3.519,-3.519,-3.519,-3.519,-3.519,-3.5209,-3.5239,-3.5388,-3.5609,-3.5764,-3.5846,-3.5866,-3.5852,-3.5844,-3.5934,-3.5981,-3.6005,-3.6005,-3.6005,-3.6005,-3.6005,-3.6005,-3.6005,-3.5919,-3.5568,-3.5295,-3.5271,-3.4954,-3.4642,-3.4564,-3.3628,-3.2756,-4.0329,-4.0329,-4.0329,-4.0329,-4.0329,-4.0329,-3.9909,-3.9145,0.0,0.0,0.0,-3.6988,-3.6719,-3.6661,-3.5821,-3.5439,-3.542,-3.5267,-3.519,-3.519,-3.519,-3.519,-3.519,-3.519,-3.519,-3.519,-3.519,-3.4866,-3.4216,-3.4082,-3.3643,-3.2917,-3.2114,-3.1656,-3.1446,-3.0624,-2.9841,-2.9159,-2.9145,-2.8744,-2.7931,-2.7205,-2.6689,-2.6421,-2.5765,-2.5344,-2.5191,-2.4511,-2.4137,-2.4114,-2.343,-2.3056,-2.3077,-2.3732,-2.4129,-2.4167,-2.4809,-2.521,-2.521,-2.521,-2.5268,-2.5413,-2.6301,-2.6555,-2.592,-2.7109,-2.8255,-2.9071,-2.9268,-2.9942,-3.1293,-3.1752,-3.2477,-3.3853,-3.412,-3.4483,-3.5076,-3.519,-3.5171,-3.519,-3.519,-3.519,-3.519,-3.519,-3.519,-3.519,-3.519,-3.519,-3.519,-3.5285,-3.5424,-3.5611,-3.5779,-3.5889,-3.5889,-3.5894,-3.5885,-3.5904,-3.5953,-3.5977,-3.5977,-3.5977,-3.5977,-3.5977,-3.5977,-3.5953,-3.5909,-3.5846,-3.588,-3.5889,-3.5889,-3.5889,-3.5772,-3.4832,-3.3847,-4.0329,-4.0329,-4.0329,-4.0329,-4.0329,-4.0329,-4.0234,-3.9986,-3.8418,-3.7714,-3.768,-3.7581,-3.754,-3.7502,-3.668,-3.6317,-3.6279,-3.5534,-3.519,-3.519,-3.519,-3.519,-3.519,-3.519,-3.519,-3.519,-3.519,-3.5152,-3.498,-3.4331,-3.391,-3.3719,-3.2955,-3.2138,-3.1408,-3.0605,-3.0147,-3.0013,-3.0013,-2.9598,-2.8758,-2.8605,-2.7854,-2.6479,-2.6288,-2.5918,-2.5229,-2.5077,-2.5019,-2.5008,-2.4885,-2.4817,-2.4855,-2.4931,-2.5019,-2.5019,-2.5134,-2.521,-2.521,-2.521,-2.5509,-2.624,-2.7669,-2.8507,-2.8412,-2.8592,-2.9096,-2.9937,-3.0624,-3.1217,-3.156,-3.2764,-3.3662,-3.4025,-3.4617,-3.5076,-3.519,-3.519,-3.519,-3.519,-3.519,-3.519,-3.519,-3.5229,-3.5286,-3.5229,-3.542,-3.5286,-3.5392,-3.5411,-3.5588,-3.5687,-3.5801,-3.5883,-3.5889,-3.5889,-3.5894,-3.5894,-3.5894,-3.5919,-3.5938,-3.5919,-3.5919,-3.5914,-3.5919,-3.5894,-3.5894,-3.5894,-3.5894,-3.5889,-3.5889,-3.5889,-3.5889,-3.5582,-3.5212,-4.0329,-4.0329,-4.0329,-4.0329,-4.0329,-4.0329,-4.0329,-4.0234,-3.947,-3.9108,-3.9071,-3.863,-3.84,-3.8323,-3.754,-3.691,-3.6472,-3.6088,-3.5668,-3.5209,-3.519,-3.519,-3.519,-3.519,-3.519,-3.519,-3.519,-3.519,-3.5152,-3.4827,-3.4655,-3.456,-3.3356,-3.2252,-3.1427,-3.0605,-3.0204,-3.0204,-3.0204,-2.9994,-2.9612,-2.914,-2.8529,-2.7746,-2.6918,-2.623,-2.5867,-2.544,-2.521,-2.521,-2.521,-2.521,-2.521,-2.521,-2.521,-2.521,-2.521,-2.5382,-2.5841,-2.6297,-2.6921,-2.7713,-2.8452,-2.9112,-2.9565,-2.9598,-2.9975,-3.0815,-3.1255,-3.1847,-3.2745,-3.3547,-3.4159,-3.4617,-3.4999,-3.519,-3.519,-3.519,-3.519,-3.519,-3.519,-3.519,-3.519,-3.5611,-3.5916,-3.5935,-3.6222,-3.6542,-3.6584,-3.6402,-3.6082,-3.5757,-3.5779,-3.5883,-3.5908,-3.5889,-3.5889,-3.5889,-3.5889,-3.5889,-3.5889,-3.5889,-3.5889,-3.5889,-3.5889,-3.5889,-3.5889,-3.5889,-3.5889,-3.5889,-3.5889,-3.5889,-3.5889,-3.5889,-3.5577,-4.075,-4.0578,-4.0578,-4.0463,-4.0329,-4.0329,-4.0329,-4.0329,-4.031,-4.0329,-4.0215,-3.9584,-3.9279,-3.9202,-3.8381,-3.7655,-3.7101,-3.6852,-3.6298,-3.5553,-3.5496,-3.54,-3.5209,-3.519,-3.519,-3.519,-3.519,-3.519,-3.519,-3.519,-3.519,-3.5037,-3.3719,-3.2573,-3.1679,-3.0887,-3.039,-3.0223,-3.0204,-3.0204,-3.0185,-2.9555,-2.9082,-2.8815,-2.7663,-2.6899,-2.667,-2.5918,-2.5478,-2.5459,-2.5287,-2.521,-2.521,-2.521,-2.521,-2.521,-2.5382,-2.5822,-2.6651,-2.7496,-2.8229,-2.8823,-2.9096,-2.947,-3.0109,-3.0395,-3.0758,-3.1408,-3.1828,-3.2592,-3.3681,-3.4178,-3.4522,-3.5114,-3.519,-3.519,-3.519,-3.519,-3.519,-3.519,-3.519,-3.519,-3.5343,-3.5974,-3.6544,-3.6862,-3.7379,-3.777,-3.7844,-3.7436,-3.6878,-3.6435,-3.6219,-3.6234,-3.6181,-3.622,-3.624,-3.6201,-3.6006,-3.5928,-3.5889,-3.5889,-3.5889,-3.5889,-3.5889,-3.5889,-3.5889,-3.5889,-3.5889,-3.5889,-3.5889,-3.5889,-3.5889,-3.5889,-3.5719,-4.2087,-4.1437,-4.1361,-4.096,-4.0329,-4.0329,-4.0329,-4.0329,-4.0329,-4.0329,-4.0291,-4.0215,-4.0157,-4.0081,-3.926,-3.8801,-3.861,-3.7941,-3.7139,-3.6396,-3.6377,-3.5974,-3.5248,-3.519,-3.519,-3.519,-3.519,-3.519,-3.519,-3.519,-3.519,-3.5114,-3.4312,-3.3433,-3.2573,-3.1723,-3.0939,-3.0223,-3.0204,-3.0204,-3.0204,-3.0109,-2.9688,-2.8911,-2.8739,-2.8332,-2.7587,-2.6746,-2.6288,-2.623,-2.5631,-2.5229,-2.5249,-2.5229,-2.5229,-2.5287,-2.5918,-2.667,-2.7529,-2.8332,-2.8843,-2.8945,-2.9625,-3.0089,-3.0261,-3.093,-3.1408,-3.1771,-3.2898,-3.3719,-3.4025,-3.4636,-3.5037,-3.5152,-3.519,-3.519,-3.519,-3.519,-3.519,-3.519,-3.519,-3.5209,-3.5381,-3.6143,-3.6938,-3.7809,-3.807,-3.8243,-3.8324,-3.8237,-3.8131,-3.7916,-3.7539,-3.715,-3.7097,-3.7097,-3.7077,-3.7038,-3.6415,-3.6103,-3.6045,-3.5967,-3.5889,-3.5889,-3.5889,-3.5889,-3.5889,-3.5889,-3.5889,-3.5889,-3.5889,-3.5889,-3.5889,-3.5889,-3.5797,-4.2297,-4.1514,-4.1495,-4.1036,-4.0368,-4.0329,-4.0329,-4.0329,-4.0329,-4.0329,-4.0329,-4.0329,-4.0329,-4.0291,-3.9928,-3.9508,-3.8992,-3.8629,-3.775,-3.6568,-3.6491,-3.6014,-3.5267,-3.519,-3.519,-3.519,-3.519,-3.519,-3.519,-3.519,-3.519,-3.5114,-3.4388,-3.3796,-3.3375,-3.211,-3.1231,-3.0911,-3.0452,-3.0204,-3.0204,-3.0204,-3.0032,-2.9669,-2.9159,-2.8758,-2.8357,-2.7625,-2.7166,-2.7147,-2.6852,-2.6661,-2.667,-2.6689,-2.667,-2.6708,-2.7434,-2.8032,-2.8376,-2.9205,-2.9645,-2.9664,-2.9989,-3.0395,-3.0954,-3.1732,-3.2401,-3.2974,-3.3605,-3.4178,-3.4655,-3.5018,-3.519,-3.519,-3.519,-3.519,-3.519,-3.519,-3.519,-3.519,-3.519,-3.542,-3.6048,-3.722,-3.8373,-3.9234,-3.948,-3.9496,-3.9603,-3.9335,-3.9082,-3.9041,-3.8843,-3.8513,-3.811,-3.7974,-3.7974,-3.7818,-3.7233,-3.6707,-3.6629,-3.6142,-3.5908,-3.5908,-3.5889,-3.5889,-3.5889,-3.5889,-3.5889,-3.5889,-3.5889,-3.5889,-3.5889,-3.5889,-3.5894,-4.2966,-4.2183,-4.1724,-4.1036,-4.0329,-4.0329,-4.0329,-4.0329,-4.0329,-4.0329,-4.0329,-4.0329,-4.0329,-4.0329,-4.0329,-3.9928,-3.9412,-3.9374,-3.8591,-3.7292,-3.7179,-3.6604,-3.5649,-3.5553,-3.542,-3.5229,-3.519,-3.519,-3.519,-3.519,-3.519,-3.5095,-3.4617,-3.4197,-3.3891,-3.2669,-3.1885,-3.1408,-3.0835,-3.0433,-3.0242,-3.0204,-3.0204,-3.0147,-2.9593,-2.9268,-2.923,-2.8466,-2.8026,-2.8026,-2.7828,-2.7707,-2.7701,-2.7708,-2.779,-2.8032,-2.8567,-2.9006,-2.9235,-2.986,-3.0204,-3.0204,-3.0204,-3.0567,-3.1416,-3.2233,-3.3054,-3.3834,-3.4178,-3.4636,-3.5057,-3.519,-3.519,-3.519,-3.519,-3.519,-3.519,-3.519,-3.519,-3.519,-3.519,-3.563,-3.6755,-3.815,-3.9407,-4.0217,-4.061,-4.0765,-4.0759,-4.0325,-4.001,-4.001,-4.0084,-3.976,-3.9045,-3.887,-3.887,-3.8675,-3.8149,-3.7564,-3.7487,-3.6824,-3.6279,-3.6493,-3.6162,-3.5908,-3.5889,-3.5889,-3.5889,-3.5889,-3.5889,-3.5889,-3.5889,-3.5889,-3.5894,-4.4685,-4.3692,-4.2144,-4.1055,-4.0329,-4.0329,-4.0329,-4.0329,-4.0329,-4.0329,-4.0329,-4.0329,-4.0329,-4.0329,-4.0329,-4.0291,-4.0234,-4.0196,-3.9661,-3.8782,-3.8782,-3.7999,-3.6511,-3.6451,-3.6012,-3.5343,-3.5209,-3.519,-3.519,-3.519,-3.519,-3.5171,-3.5095,-3.4751,-3.414,-3.3834,-3.3051,-3.179,-3.1503,-3.1064,-3.0338,-3.0242,-3.0261,-3.0185,-3.0147,-3.0089,-3.0032,-2.9306,-2.8853,-2.8853,-2.8198,-2.7778,-2.7746,-2.7769,-2.8131,-2.8777,-2.8891,-2.9287,-2.9975,-3.0147,-3.0242,-3.0242,-3.0333,-3.061,-3.1592,-3.2371,-3.3188,-3.3949,-3.4674,-3.5114,-3.5171,-3.519,-3.519,-3.519,-3.519,-3.519,-3.519,-3.519,-3.519,-3.5229,-3.5362,-3.6031,-3.7426,-3.855,-3.9639,-4.0436,-4.0807,-4.0926,-4.1003,-4.0974,-4.0922,-4.0922,-4.089,-4.074,-3.9961,-3.9747,-3.9747,-3.9552,-3.9084,-3.8461,-3.8149,-3.7818,-3.7389,-3.6902,-3.6317,-3.5986,-3.5908,-3.5889,-3.5889,-3.5889,-3.5889,-3.5889,-3.5889,-3.5889,-3.5894,-4.4781,-4.3845,-4.2202,-4.1323,-4.1036,-4.054,-4.0329,-4.0329,-4.0329,-4.0329,-4.0329,-4.0329,-4.0329,-4.0329,-4.0329,-4.0329,-4.0329,-4.0329,-3.9833,-3.9069,-3.9011,-3.8381,-3.733,-3.6776,-3.6375,-3.6012,-3.5477,-3.519,-3.519,-3.519,-3.519,-3.519,-3.519,-3.5037,-3.4732,-3.4235,-3.3662,-3.3108,-3.2573,-3.1866,-3.1083,-3.1026,-3.0777,-3.0223,-3.0204,-3.0204,-3.0204,-2.9879,-2.9746,-2.9726,-2.944,-2.9306,-2.9306,-2.9298,-2.9412,-2.9688,-2.9726,-2.986,-3.0147,-3.0204,-3.0447,-3.092,-3.1011,-3.1642,-3.2794,-3.3372,-3.3853,-3.4617,-3.498,-3.519,-3.519,-3.519,-3.519,-3.519,-3.519,-3.519,-3.519,-3.519,-3.519,-3.5362,-3.605,-3.7082,-3.78,-3.9142,-4.0275,-4.0648,-4.0878,-4.103,-4.1078,-4.111,-4.111,-4.111,-4.1091,-4.1013,-4.076,-4.0623,-4.0565,-4.037,-4.0,-3.9532,-3.9162,-3.8013,-3.7389,-3.7194,-3.6571,-3.5967,-3.5889,-3.5889,-3.5889,-3.5889,-3.5889,-3.5889,-3.5889,-3.5889,-3.5889,-4.48,-4.3864,-4.2507,-4.1743,-4.1399,-4.0635,-4.0329,-4.0329,-4.0329,-4.0329,-4.0329,-4.0329,-4.0329,-4.0329,-4.0329,-4.0329,-4.0329,-4.031,-3.9986,-3.9451,-3.9431,-3.8973,-3.8151,-3.7559,-3.7005,-3.6451,-3.563,-3.519,-3.519,-3.519,-3.519,-3.519,-3.519,-3.519,-3.5095,-3.4655,-3.4273,-3.3929,-3.3414,-3.2592,-3.1656,-3.1503,-3.1083,-3.0357,-3.0204,-3.0204,-3.0204,-3.0204,-3.0204,-3.0204,-3.0204,-3.0204,-3.0204,-3.0204,-3.0204,-3.0204,-3.0204,-3.0204,-3.0261,-3.0433,-3.083,-3.1355,-3.1738,-3.2526,-3.3823,-3.4002,-3.4407,-3.4961,-3.519,-3.519,-3.519,-3.519,-3.519,-3.519,-3.519,-3.519,-3.519,-3.519,-3.5362,-3.5821,-3.7082,-3.7959,-3.8367,-3.9711,-4.052,-4.0754,-4.0952,-4.1104,-4.111,-4.111,-4.111,-4.111,-4.111,-4.111,-4.0994,-4.0935,-4.0916,-4.076,-4.0662,-4.0312,-3.9786,-3.8519,-3.7681,-3.7428,-3.6902,-3.622,-3.5889,-3.5889,-3.5889,-3.5889,-3.5889,-3.5889,-3.5889,-3.5894,-3.5894,-4.4819,-4.4017,-4.3138,-4.2316,-4.1552,-4.0769,-4.0368,-4.0329,-4.0329,-4.0329,-4.0329,-4.0329,-4.0329,-4.0329,-4.0329,-4.0329,-4.0329,-4.0329,-4.0272,-4.0196,-4.0215,-3.9775,-3.903,-3.882,-3.7884,-3.6528,-3.563,-3.5209,-3.519,-3.519,-3.519,-3.519,-3.519,-3.519,-3.519,-3.5095,-3.477,-3.4235,-3.4025,-3.3203,-3.1694,-3.1675,-3.1293,-3.0414,-3.03,-3.028,-3.0223,-3.0204,-3.0204,-3.0204,-3.0204,-3.0204,-3.0204,-3.0204,-3.0204,-3.0204,-3.0204,-3.0204,-3.028,-3.0911,-3.1307,-3.1647,-3.2229,-3.3131,-3.3955,-3.4146,-3.4432,-3.5021,-3.519,-3.519,-3.519,-3.519,-3.519,-3.519,-3.519,-3.519,-3.519,-3.5229,-3.5572,-3.6489,-3.7884,-3.8946,-3.9304,-4.0042,-4.0711,-4.0849,-4.0988,-4.111,-4.111,-4.111,-4.111,-4.111,-4.111,-4.111,-4.111,-4.111,-4.1091,-4.1071,-4.1013,-4.0818,-4.0429,-3.9474,-3.8714,-3.8285,-3.7116,-3.6415,-3.5889,-3.5889,-3.5889,-3.5889,-3.5889,-3.5889,-3.5889,-3.5894,-3.588,-4.5144,-4.4781,-4.3997,-4.3157,-4.2335,-4.1476,-4.0826,-4.0329,-4.0329,-4.0329,-4.0329,-4.0329,-4.0329,-4.0329,-4.0329,-4.0329,-4.0329,-4.0329,-4.0329,-4.0329,-4.0329,-4.0177,-3.9833,-3.9279,-3.8132,-3.6587,-3.563,-3.5209,-3.5209,-3.5209,-3.519,-3.519,-3.519,-3.519,-3.519,-3.519,-3.5037,-3.4866,-3.4827,-3.4254,-3.328,-3.3184,-3.2535,-3.1274,-3.1045,-3.0796,-3.0242,-3.0204,-3.0204,-3.0204,-3.0204,-3.0204,-3.0204,-3.0204,-3.0204,-3.0204,-3.0204,-3.0204,-3.0319,-3.0987,-3.1732,-3.2301,-3.3085,-3.3945,-3.4677,-3.4811,-3.4887,-3.5171,-3.519,-3.519,-3.519,-3.519,-3.519,-3.519,-3.519,-3.5248,-3.542,-3.5802,-3.6432,-3.7254,-3.8304,-3.8951,-3.9265,-4.0029,-4.0699,-4.0807,-4.0971,-4.1104,-4.111,-4.111,-4.111,-4.111,-4.111,-4.111,-4.111,-4.111,-4.111,-4.111,-4.111,-4.111,-4.0779,-4.0234,-3.9552,-3.8694,-3.7545,-3.6727,-3.6181,-3.5889,-3.5889,-3.5889,-3.5889,-3.5889,-3.5889,-3.5894,-3.5904,-4.5277,-4.5163,-4.4036,-4.3271,-4.266,-4.1571,-4.0788,-4.0348,-4.0329,-4.0329,-4.0329,-4.0329,-4.0329,-4.0329,-4.0329,-4.0329,-4.0329,-4.0329,-4.0329,-4.0329,-4.0329,-4.0329,-4.0177,-3.9412,-3.8534,-3.7406,-3.626,-3.5687,-3.5668,-3.5362,-3.519,-3.519,-3.519,-3.519,-3.519,-3.519,-3.519,-3.519,-3.5171,-3.4808,-3.4159,-3.3987,-3.3203,-3.1771,-3.1427,-3.0987,-3.028,-3.0204,-3.0204,-3.0204,-3.0204,-3.0204,-3.0204,-3.0204,-3.0204,-3.0204,-3.0204,-3.0204,-3.0319,-3.1312,-3.2134,-3.2783,-3.3773,-3.4614,-3.5095,-3.519,-3.519,-3.519,-3.519,-3.519,-3.519,-3.519,-3.519,-3.5209,-3.5534,-3.5783,-3.6146,-3.691,-3.7559,-3.8266,-3.8992,-3.939,-3.9823,-4.0102,-4.0742,-4.0839,-4.0988,-4.111,-4.111,-4.111,-4.111,-4.111,-4.111,-4.111,-4.111,-4.111,-4.111,-4.111,-4.111,-4.111,-4.0955,-4.0273,-3.9571,-3.8753,-3.772,-3.7136,-3.659,-3.6084,-3.5889,-3.5889,-3.5889,-3.5889,-3.5889,-3.5924,-3.5934,-4.5277,-4.5086,-4.3558,-4.2908,-4.2603,-4.117,-4.0463,-4.0329,-4.0329,-4.0329,-4.0329,-4.0329,-4.0329,-4.0329,-4.0329,-4.0329,-4.0329,-4.0329,-4.0329,-4.0329,-4.0329,-4.0329,-4.0196,-3.9412,-3.8839,-3.84,-3.7101,-3.6432,-3.6107,-3.5534,-3.519,-3.519,-3.519,-3.519,-3.519,-3.519,-3.519,-3.519,-3.519,-3.4808,-3.4178,-3.412,-3.3414,-3.1866,-3.1637,-3.1197,-3.0529,-3.028,-3.0204,-3.0204,-3.0204,-3.0204,-3.0204,-3.0204,-3.0204,-3.0204,-3.0204,-3.0204,-3.0529,-3.1675,-3.2611,-3.2768,-3.414,-3.519,-3.519,-3.519,-3.519,-3.519,-3.519,-3.519,-3.519,-3.519,-3.5229,-3.5381,-3.5954,-3.6661,-3.7655,-3.8419,-3.8782,-3.9107,-3.9794,-4.036,-4.0472,-4.063,-4.0798,-4.098,-4.1071,-4.1104,-4.111,-4.111,-4.111,-4.111,-4.111,-4.111,-4.111,-4.111,-4.111,-4.111,-4.111,-4.111,-4.0994,-4.0331,-3.9766,-3.8928,-3.8013,-3.7467,-3.6941,-3.6376,-3.5967,-3.5889,-3.5889,-3.5889,-3.5894,-3.5924,-3.5934,-4.5277,-4.5163,-4.4131,-4.3348,-4.2698,-4.1628,-4.0826,-4.0348,-4.0329,-4.0329,-4.0329,-4.0329,-4.0329,-4.0329,-4.0329,-4.0329,-4.0329,-4.0329,-4.0329,-4.0329,-4.0329,-4.0329,-4.0138,-3.9431,-3.8725,-3.8075,-3.7158,-3.6184,-3.5592,-3.5362,-3.519,-3.519,-3.519,-3.519,-3.519,-3.519,-3.519,-3.519,-3.519,-3.5114,-3.4923,-3.4846,-3.4388,-3.3433,-3.2669,-3.1943,-3.1159,-3.0529,-3.0204,-3.0204,-3.0204,-3.0204,-3.0204,-3.0204,-3.0204,-3.0204,-3.0204,-3.0204,-3.0529,-3.1771,-3.2615,-3.2825,-3.4254,-3.5171,-3.519,-3.519,-3.519,-3.519,-3.519,-3.519,-3.519,-3.519,-3.5458,-3.6052,-3.6413,-3.7101,-3.8285,-3.8858,-3.9221,-3.9852,-4.0157,-4.0377,-4.0549,-4.0668,-4.0776,-4.0935,-4.1038,-4.111,-4.111,-4.111,-4.111,-4.111,-4.111,-4.111,-4.111,-4.111,-4.111,-4.111,-4.111,-4.111,-4.0877,-4.0409,-3.998,-3.9474,-3.8246,-3.7506,-3.7019,-3.6493,-3.624,-3.5889,-3.5889,-3.5889,-3.5889,-3.5894,-3.5904,-4.4743,-4.4647,-4.3443,-4.2679,-4.2163,-4.1342,-4.0731,-4.0387,-4.0329,-4.0329,-4.0329,-4.0329,-4.0329,-4.0329,-4.0329,-4.0329,-4.0329,-4.0329,-4.0329,-4.0329,-4.0329,-4.0329,-4.0177,-3.9718,-3.9279,-3.8706,-3.754,-3.6814,-3.6222,-3.5592,-3.5229,-3.519,-3.519,-3.519,-3.519,-3.519,-3.519,-3.519,-3.519,-3.519,-3.519,-3.519,-3.4751,-3.3987,-3.3146,-3.221,-3.1083,-3.0452,-3.0204,-3.0204,-3.0204,-3.0204,-3.0204,-3.0204,-3.0204,-3.0204,-3.0204,-3.0204,-3.0491,-3.1732,-3.263,-3.2993,-3.4254,-3.5037,-3.519,-3.519,-3.519,-3.519,-3.519,-3.519,-3.519,-3.519,-3.563,-3.6301,-3.6795,-3.754,-3.8877,-3.9336,-3.9755,-4.021,-4.0379,-4.046,-4.0629,-4.073,-4.0839,-4.0952,-4.1071,-4.1104,-4.111,-4.111,-4.111,-4.111,-4.111,-4.111,-4.111,-4.111,-4.111,-4.111,-4.111,-4.111,-4.0896,-4.0565,-4.0448,-3.9902,-3.8617,-3.7662,-3.735,-3.6844,-3.6123,-3.5889,-3.5889,-3.5889,-3.5889,-3.5889,-3.5899,-4.3939,-4.3749,-4.2183,-4.1495,-4.1399,-4.0654,-4.0368,-4.0329,-4.0329,-4.0329,-4.0329,-4.0329,-4.0329,-4.0329,-4.0329,-4.0329,-4.0329,-4.0329,-4.0329,-4.0329,-4.0329,-4.0329,-4.031,-4.0234,-3.9871,-3.9375,-3.8304,-3.7502,-3.6719,-3.5687,-3.5267,-3.519,-3.519,-3.519,-3.519,-3.519,-3.519,-3.519,-3.519,-3.519,-3.519,-3.5171,-3.4866,-3.4292,-3.3433,-3.2172,-3.1006,-3.0414,-3.0357,-3.0204,-3.0204,-3.0204,-3.0204,-3.0204,-3.0204,-3.0204,-3.0204,-3.0204,-3.0452,-3.1728,-3.2684,-3.2955,-3.4254,-3.5171,-3.519,-3.519,-3.519,-3.519,-3.519,-3.519,-3.519,-3.519,-3.5496,-3.6184,-3.6948,-3.7884,-3.8801,-3.9718,-4.0364,-4.046,-4.0476,-4.0602,-4.0754,-4.0878,-4.0917,-4.0943,-4.1038,-4.1104,-4.111,-4.111,-4.111,-4.111,-4.111,-4.111,-4.111,-4.111,-4.111,-4.111,-4.111,-4.1091,-4.1013,-4.0838,-4.0916,-4.0331,-3.8792,-3.8168,-3.8129,-3.7428,-3.6279,-3.5889,-3.5889,-3.5889,-3.5889,-3.5894,-3.5899,-4.3634,-4.2966,-4.1953,-4.1495,-4.1361,-4.0654,-4.0329,-4.0329,-4.0329,-4.0329,-4.0329,-4.0329,-4.0329,-4.0329,-4.0329,-4.0329,-4.0329,-4.0329,-4.0329,-4.0329,-4.0329,-4.0329,-4.031,-4.0272,-3.9528,-3.863,-3.7999,-3.7043,-3.5993,-3.5592,-3.519,-3.519,-3.519,-3.519,-3.519,-3.519,-3.519,-3.519,-3.519,-3.519,-3.519,-3.519,-3.5076,-3.4732,-3.4063,-3.286,-3.1599,-3.1217,-3.0892,-3.0395,-3.028,-3.0395,-3.0242,-3.0204,-3.0204,-3.0204,-3.0204,-3.0204,-3.051,-3.1709,-3.2703,-3.2936,-3.4216,-3.519,-3.519,-3.519,-3.519,-3.519,-3.519,-3.519,-3.519,-3.519,-3.5324,-3.5706,-3.6337,-3.712,-3.7999,-3.9336,-4.0156,-4.0345,-4.0363,-4.0413,-4.0593,-4.0725,-4.0818,-4.0926,-4.1003,-4.1078,-4.1104,-4.1104,-4.111,-4.111,-4.111,-4.111,-4.111,-4.111,-4.111,-4.111,-4.111,-4.111,-4.1033,-4.0877,-4.0857,-4.0078,-3.885,-3.8539,-3.8422,-3.7194,-3.5889,-3.5889,-3.5889,-3.5889,-3.5889,-3.5894,-3.5899,-4.2565,-4.2125,-4.1285,-4.0941,-4.0864,-4.0482,-4.0329,-4.0329,-4.0329,-4.0329,-4.0329,-4.0329,-4.0329,-4.0329,-4.0329,-4.0329,-4.0329,-4.0329,-4.0329,-4.0329,-4.0329,-4.0329,-4.0157,-3.9852,-3.9088,-3.8267,-3.7865,-3.6967,-3.605,-3.54,-3.519,-3.519,-3.519,-3.519,-3.519,-3.519,-3.519,-3.519,-3.519,-3.519,-3.519,-3.519,-3.4923,-3.4694,-3.4178,-3.3356,-3.2191,-3.2076,-3.1618,-3.114,-3.1121,-3.0949,-3.0319,-3.0204,-3.0223,-3.0204,-3.0204,-3.0452,-3.1006,-3.1919,-3.289,-3.3276,-3.4503,-3.498,-3.519,-3.519,-3.519,-3.519,-3.519,-3.519,-3.519,-3.519,-3.519,-3.5362,-3.5974,-3.668,-3.7311,-3.8648,-3.9927,-4.0191,-4.0394,-4.0492,-4.0579,-4.0532,-4.0694,-4.0789,-4.0906,-4.0988,-4.103,-4.103,-4.1104,-4.111,-4.111,-4.111,-4.111,-4.111,-4.111,-4.111,-4.111,-4.111,-4.1071,-4.0877,-4.0682,-3.9844,-3.9104,-3.8539,-3.8188,-3.6863,-3.5928,-3.5889,-3.5889,-3.5889,-3.5889,-3.5894,-3.5899,-4.1418,-4.1266,-4.0597,-4.0329,-4.0329,-4.0329,-4.0329,-4.0329,-4.0329,-4.0329,-4.0329,-4.0329,-4.0329,-4.0329,-4.0329,-4.0329,-4.0329,-4.0329,-4.0329,-4.0329,-4.0329,-4.0157,-3.9909,-3.9393,-3.8801,-3.8591,-3.7789,-3.6929,-3.6146,-3.5611,-3.5209,-3.519,-3.519,-3.519,-3.519,-3.519,-3.519,-3.519,-3.519,-3.519,-3.519,-3.519,-3.4885,-3.4503,-3.4331,-3.3872,-3.3108,-3.2844,-3.252,-3.1794,-3.2329,-3.1866,-3.1026,-3.0414,-3.0395,-3.0414,-3.0357,-3.0567,-3.1293,-3.2206,-3.3062,-3.3938,-3.4729,-3.5133,-3.519,-3.519,-3.519,-3.519,-3.519,-3.519,-3.519,-3.519,-3.519,-3.5324,-3.5897,-3.6298,-3.6719,-3.7808,-3.8795,-3.9665,-3.9857,-3.9967,-4.0134,-4.0183,-4.043,-4.0648,-4.077,-4.0917,-4.0943,-4.0968,-4.1032,-4.111,-4.111,-4.111,-4.111,-4.111,-4.111,-4.111,-4.111,-4.111,-4.111,-4.0994,-4.074,-4.0273,-3.961,-3.887,-3.7935,-3.6785,-3.6123,-3.5986,-3.5889,-3.5889,-3.5889,-3.5889,-3.5894,-4.1113,-4.0501,-4.0368,-4.0329,-4.0329,-4.0329,-4.0329,-4.0329,-4.0329,-4.0329,-4.0329,-4.0329,-4.0329,-4.0329,-4.0329,-4.0329,-4.0329,-4.0329,-4.0329,-4.0291,-4.0215,-3.9947,-3.9355,-3.8858,-3.819,-3.7196,-3.67,-3.6279,-3.5668,-3.5248,-3.519,-3.519,-3.519,-3.519,-3.519,-3.519,-3.519,-3.519,-3.519,-3.519,-3.519,-3.5171,-3.5152,-3.4885,-3.4866,-3.4483,-3.3968,-3.3738,-3.341,-3.2626,-3.2649,-3.2539,-3.2195,-3.166,-3.1389,-3.1159,-3.0777,-3.0892,-3.1675,-3.231,-3.3123,-3.3941,-3.4748,-3.5152,-3.519,-3.519,-3.519,-3.519,-3.519,-3.519,-3.519,-3.519,-3.519,-3.5267,-3.5381,-3.5763,-3.6337,-3.6891,-3.7368,-3.8123,-3.8697,-3.9289,-3.9381,-3.9581,-3.983,-4.0036,-4.0246,-4.0654,-4.0988,-4.0972,-4.0981,-4.1052,-4.111,-4.111,-4.111,-4.111,-4.111,-4.111,-4.111,-4.111,-4.111,-4.111,-4.0818,-4.0,-3.9279,-3.848,-3.7525,-3.659,-3.6181,-3.5928,-3.5889,-3.5889,-3.5889,-3.5889,-3.5889,-4.0673,-4.0329,-4.0329,-4.0329,-4.0329,-4.0329,-4.0329,-4.0329,-4.0329,-4.0329,-4.0329,-4.0329,-4.0329,-4.0329,-4.0329,-4.0329,-4.0329,-4.0329,-4.0329,-4.0272,-3.9852,-3.947,-3.8801,-3.8209,-3.7351,-3.6547,-3.6088,-3.5687,-3.5248,-3.5209,-3.519,-3.519,-3.519,-3.519,-3.519,-3.519,-3.519,-3.519,-3.519,-3.519,-3.519,-3.519,-3.519,-3.519,-3.519,-3.498,-3.4751,-3.4617,-3.4235,-3.3646,-3.3796,-3.3704,-3.3363,-3.3035,-3.2592,-3.2172,-3.1713,-3.1828,-3.2554,-3.3207,-3.3777,-3.4538,-3.5018,-3.5171,-3.519,-3.519,-3.519,-3.519,-3.519,-3.519,-3.519,-3.519,-3.519,-3.519,-3.519,-3.54,-3.5783,-3.6222,-3.6451,-3.6736,-3.7555,-3.8199,-3.8454,-3.8719,-3.9113,-3.9412,-3.9674,-4.0159,-4.075,-4.0655,-4.0487,-4.0916,-4.0994,-4.111,-4.111,-4.111,-4.111,-4.111,-4.1071,-4.1071,-4.0877,-4.0779,-4.0097,-3.9221,-3.8558,-3.8032,-3.737,-3.6532,-3.6201,-3.5889,-3.5889,-3.5889,-3.5889,-3.5889,-3.5889,-4.0329,-4.0329,-4.0329,-4.0329,-4.0329,-4.0329,-4.0329,-4.0329,-4.0329,-4.0329,-4.0329,-4.0329,-4.0329,-4.0329,-4.0329,-4.0329,-4.0329,-4.0329,-4.0329,-4.0138,-3.947,-3.8992,-3.8323,-3.7387,-3.6415,-3.6069,-3.5649,-3.519,-3.5209,-3.519,-3.519,-3.519,-3.519,-3.519,-3.519,-3.519,-3.519,-3.519,-3.519,-3.519,-3.519,-3.519,-3.519,-3.519,-3.519,-3.519,-3.5114,-3.5095,-3.483,-3.4563,-3.4677,-3.4868,-3.4356,-3.4238,-3.391,-3.3303,-3.2921,-3.3203,-3.37,-3.391,-3.4216,-3.498,-3.5152,-3.519,-3.519,-3.519,-3.519,-3.519,-3.519,-3.519,-3.519,-3.519,-3.519,-3.519,-3.519,-3.5248,-3.542,-3.5649,-3.5777,-3.6195,-3.6788,-3.7198,-3.754,-3.7762,-3.8136,-3.8783,-3.9054,-3.9216,-3.97,-3.9669,-3.9747,-4.0506,-4.0857,-4.1052,-4.111,-4.111,-4.111,-4.111,-4.1033,-4.0994,-4.0643,-4.0312,-3.9435,-3.8578,-3.8207,-3.7681,-3.7058,-3.6532,-3.6142,-3.5889,-3.5889,-3.5889,-3.5889,-3.5889,-3.5889,-4.0329,-4.0329,-4.0329,-4.0329,-4.0329,-4.0329,-4.0329,-4.0329,-4.0329,-4.0329,-4.0329,-4.0329,-4.0329,-4.0329,-4.0329,-4.0329,-4.031,-4.0196,-4.0157,-3.9986,-3.9202,-3.8381,-3.7827,-3.6986,-3.605,-3.563,-3.5324,-3.5209,-3.519,-3.519,-3.519,-3.519,-3.519,-3.519,-3.519,-3.519,-3.519,-3.519,-3.519,-3.519,-3.519,-3.519,-3.519,-3.519,-3.519,-3.519,-3.519,-3.519,-3.5059,-3.5059,-3.5078,-3.5152,-3.5059,-3.5076,-3.5037,-3.4503,-3.3777,-3.3089,-3.391,-3.414,-3.4388,-3.5057,-3.519,-3.519,-3.519,-3.519,-3.519,-3.519,-3.519,-3.519,-3.519,-3.519,-3.519,-3.519,-3.519,-3.519,-3.5267,-3.5362,-3.5452,-3.5541,-3.6113,-3.6426,-3.6727,-3.6934,-3.7186,-3.7876,-3.8412,-3.856,-3.8792,-3.8897,-3.9006,-3.9727,-4.0429,-4.0682,-4.0721,-4.0779,-4.0799,-4.0896,-4.0662,-4.0565,-4.0058,-3.9474,-3.8811,-3.8071,-3.7701,-3.7214,-3.6532,-3.6103,-3.5928,-3.5889,-3.5889,-3.5889,-3.5889,-3.5889,-3.5889,-4.0329,-4.0329,-4.0329,-4.0329,-4.0329,-4.0329,-4.0329,-4.0329,-4.0329,-4.0329,-4.0329,-4.0329,-4.0329,-4.0329,-4.0329,-4.0329,-4.0196,-3.9775,-3.9565,-3.9221,-3.8343,-3.7426,-3.691,-3.6203,-3.5477,-3.5343,-3.519,-3.5209,-3.519,-3.519,-3.519,-3.519,-3.519,-3.519,-3.519,-3.519,-3.519,-3.519,-3.519,-3.519,-3.519,-3.519,-3.519,-3.519,-3.519,-3.519,-3.519,-3.519,-3.519,-3.519,-3.519,-3.519,-3.519,-3.519,-3.5171,-3.5114,-3.4579,-3.4369,-3.4636,-3.4636,-3.4866,-3.5037,-3.519,-3.519,-3.519,-3.519,-3.519,-3.519,-3.519,-3.519,-3.519,-3.519,-3.519,-3.519,-3.519,-3.519,-3.519,-3.5209,-3.5296,-3.5345,-3.5438,-3.5849,-3.6161,-3.6295,-3.6628,-3.7208,-3.7545,-3.7566,-3.8092,-3.865,-3.8753,-3.8948,-3.963,-4.0234,-4.0214,-4.0214,-4.0156,-4.0097,-3.9532,-3.9376,-3.9084,-3.8539,-3.7974,-3.7428,-3.6921,-3.6434,-3.5947,-3.5889,-3.5889,-3.5889,-3.5889,-3.5889,-3.5889,-3.5889,-3.5889,-4.0329,-4.0329,-4.0329,-4.0329,-4.0329,-4.0329,-4.0329,-4.0329,-4.0329,-4.0329,-4.0329,-4.0329,-4.0329,-4.0215,-4.0081,-3.9871,-3.989,-3.9069,-3.8744,-3.8151,-3.7368,-3.6663,-3.6337,-3.5725,-3.5248,-3.519,-3.519,-3.519,-3.519,-3.519,-3.519,-3.519,-3.519,-3.519,-3.519,-3.519,-3.519,-3.519,-3.519,-3.519,-3.519,-3.519,-3.519,-3.519,-3.519,-3.519,-3.519,-3.519,-3.519,-3.519,-3.519,-3.519,-3.519,-3.519,-3.519,-3.519,-3.4961,-3.4999,-3.5057,-3.5095,-3.519,-3.519,-3.519,-3.519,-3.519,-3.519,-3.519,-3.519,-3.519,-3.519,-3.519,-3.519,-3.519,-3.519,-3.519,-3.519,-3.519,-3.5207,-3.53,-3.5432,-3.5531,-3.56,-3.5815,-3.5818,-3.6105,-3.6592,-3.6707,-3.6688,-3.7233,-3.7993,-3.8149,-3.8188,-3.885,-3.9435,-3.9474,-3.9474,-3.9474,-3.9318,-3.8753,-3.8344,-3.8129,-3.7818,-3.735,-3.6785,-3.6279,-3.6103,-3.5889,-3.5889,-3.5889,-3.5889,-3.5889,-3.5889,-3.5889,-3.5889,-3.5889,-4.0329,-4.0329,-4.0329,-4.0329,-4.0329,-4.0329,-4.0329,-4.0329,-4.0329,-4.0329,-4.0329,-4.0329,-4.0329,-4.0138,-3.9584,-3.9221,-3.9107,-3.8171,-3.7884,-3.7521,-3.6948,-3.6415,-3.6069,-3.5611,-3.519,-3.519,-3.519,-3.519,-3.519,-3.519,-3.519,-3.519,-3.519,-3.519,-3.519,-3.519,-3.519,-3.519,-3.519,-3.519,-3.519,-3.519,-3.519,-3.519,-3.519,-3.519,-3.519,-3.519,-3.519,-3.519,-3.519,-3.519,-3.519,-3.519,-3.519,-3.519,-3.519,-3.519,-3.519,-3.519,-3.519,-3.519,-3.519,-3.519,-3.519,-3.519,-3.519,-3.519,-3.519,-3.519,-3.519,-3.519,-3.519,-3.519,-3.519,-3.519,-3.5207,-3.5239,-3.5326,-3.5507,-3.562,-3.5678,-3.5757,-3.5801,-3.5814,-3.6273,-3.6317,-3.6279,-3.6395,-3.696,-3.7194,-3.7448,-3.809,-3.85,-3.8578,-3.8597,-3.8578,-3.8441,-3.8052,-3.7662,-3.7331,-3.6999,-3.6707,-3.6434,-3.6025,-3.5947,-3.5889,-3.5889,-3.5889,-3.5889,-3.5889,-3.5889,-3.5889,-3.5889,-3.5889,-4.0329,-4.0329,-4.0329,-4.0329,-4.0329,-4.0329,-4.0329,-4.0329,-4.0329,-4.0329,-4.0329,-4.0329,-4.0329,-4.0062,-3.9431,-3.9011,-3.8801,-3.7521,-3.712,-3.668,-3.6184,-3.5783,-3.5515,-3.5458,-3.519,-3.519,-3.519,-3.519,-3.519,-3.519,-3.519,-3.519,-3.519,-3.519,-3.519,-3.519,-3.519,-3.519,-3.519,-3.519,-3.519,-3.519,-3.519,-3.519,-3.519,-3.519,-3.519,-3.519,-3.519,-3.519,-3.519,-3.519,-3.519,-3.519,-3.519,-3.519,-3.519,-3.519,-3.519,-3.519,-3.519,-3.519,-3.519,-3.519,-3.519,-3.519,-3.519,-3.519,-3.519,-3.519,-3.519,-3.519,-3.519,-3.519,-3.519,-3.519,-3.5223,-3.527,-3.5378,-3.5557,-3.565,-3.5721,-3.5801,-3.5883,-3.5883,-3.5928,-3.5908,-3.5908,-3.6064,-3.6162,-3.6473,-3.6707,-3.7311,-3.7603,-3.7681,-3.7701,-3.7701,-3.7525,-3.735,-3.7019,-3.6668,-3.6415,-3.6142,-3.5928,-3.5889,-3.5889,-3.5889,-3.5889,-3.5889,-3.5889,-3.5889,-3.5889,-3.5889,-3.5889,-3.5889,-3.9508,-3.9527,-3.9527,-3.9833,-4.0272,-4.0329,-4.0329,-4.0329,-4.0329,-4.0329,-4.0329,-4.0329,-4.0138,-3.9756,-3.9011,-3.8362,-3.7827,-3.6814,-3.6279,-3.5897,-3.5553,-3.5229,-3.519,-3.519,-3.519,-3.519,-3.519,-3.519,-3.519,-3.519,-3.519,-3.519,-3.519,-3.519,-3.519,-3.519,-3.519,-3.519,-3.519,-3.519,-3.519,-3.519,-3.519,-3.519,-3.519,-3.519,-3.519,-3.519,-3.519,-3.519,-3.519,-3.519,-3.519,-3.519,-3.519,-3.519,-3.519,-3.519,-3.519,-3.519,-3.519,-3.519,-3.519,-3.519,-3.519,-3.519,-3.519,-3.519,-3.519,-3.519,-3.519,-3.519,-3.519,-3.519,-3.519,-3.519,-3.5281,-3.534,-3.5463,-3.5611,-3.5687,-3.5745,-3.5814,-3.5889,-3.5889,-3.5889,-3.5889,-3.5889,-3.5928,-3.5986,-3.6006,-3.624,-3.6512,-3.6688,-3.6805,-3.6844,-3.6863,-3.6766,-3.6571,-3.6356,-3.6045,-3.5889,-3.5889,-3.5889,-3.5889,-3.5889,-3.5889,-3.5889,-3.5889,-3.5889,-3.5889,-3.5889,-3.5889,-3.5889,-3.5894,-3.7827,-3.775,-3.7827,-3.8763,-4.0081,-4.0253,-4.0272,-4.031,-4.0329,-4.0329,-4.0291,-4.0253,-3.9794,-3.9049,-3.8228,-3.7483,-3.6833,-3.5878,-3.5381,-3.5343,-3.5305,-3.5209,-3.519,-3.519,-3.519,-3.519,-3.519,-3.519,-3.519,-3.519,-3.519,-3.519,-3.519,-3.519,-3.519,-3.519,-3.519,-3.519,-3.519,-3.519,-3.519,-3.519,-3.519,-3.519,-3.519,-3.519,-3.519,-3.519,-3.519,-3.519,-3.519,-3.519,-3.519,-3.519,-3.519,-3.519,-3.519,-3.519,-3.519,-3.519,-3.519,-3.519,-3.519,-3.519,-3.519,-3.519,-3.519,-3.519,-3.519,-3.519,-3.519,-3.519,-3.519,-3.519,-3.519,-3.5235,-3.534,-3.5457,-3.559,-3.566,-3.5704,-3.5745,-3.584,-3.5889,-3.5889,-3.5889,-3.5889,-3.5889,-3.5889,-3.5889,-3.5889,-3.5967,-3.6142,-3.6201,-3.6317,-3.6103,-3.6025,-3.5947,-3.5967,-3.5908,-3.5889,-3.5889,-3.5889,-3.5889,-3.5889,-3.5889,-3.5889,-3.5889,-3.5889,-3.5889,-3.5889,-3.5889,-3.5889,-3.5894,-3.5899,-3.7693,-3.7693,-3.7693,-3.8037,-3.8629,-3.9202,-3.9737,-4.0253,-4.0329,-4.031,-4.0177,-3.9756,-3.9336,-3.8667,-3.7617,-3.6757,-3.6375,-3.563,-3.519,-3.519,-3.519,-3.519,-3.519,-3.519,-3.519,-3.519,-3.519,-3.519,-3.519,-3.519,-3.519,-3.519,-3.519,-3.519,-3.519,-3.519,-3.519,-3.519,-3.519,-3.519,-3.519,-3.519,-3.519,-3.519,-3.519,-3.519,-3.519,-3.519,-3.519,-3.519,-3.519,-3.519,-3.519,-3.519,-3.519,-3.519,-3.519,-3.519,-3.519,-3.519,-3.519,-3.519,-3.519,-3.519,-3.519,-3.519,-3.519,-3.519,-3.519,-3.519,-3.519,-3.519,-3.519,-3.5223,-3.5254,-3.5326,-3.5418,-3.5549,-3.5659,-3.5721,-3.5753,-3.5801,-3.5878,-3.5889,-3.5889,-3.5889,-3.5889,-3.5889,-3.5889,-3.5889,-3.5889,-3.5889,-3.5967,-3.5928,-3.5889,-3.5889,-3.5889,-3.5928,-3.5928,-3.5908,-3.5889,-3.5889,-3.5889,-3.5889,-3.5889,-3.5889,-3.5889,-3.5889,-3.5889,-3.5889,-3.5894,-3.5899,-3.5899,-3.5904,-3.5909,-3.6833,-3.6833,-3.6833,-3.7024,-3.7387,-3.819,-3.8897,-3.9355,-3.9412,-3.9412,-3.926,-3.8763,-3.8343,-3.7846,-3.7101,-3.6203,-3.605,-3.5515,-3.519,-3.519,-3.519,-3.519,-3.519,-3.519,-3.519,-3.519,-3.519,-3.519,-3.519,-3.519,-3.519,-3.519,-3.519,-3.519,-3.519,-3.519,-3.519,-3.519,-3.519,-3.519,-3.519,-3.519,-3.519,-3.519,-3.519,-3.519,-3.519,-3.519,-3.519,-3.519,-3.519,-3.519,-3.519,-3.519,-3.519,-3.519,-3.519,-3.519,-3.519,-3.519,-3.519,-3.519,-3.519,-3.519,-3.519,-3.519,-3.519,-3.519,-3.519,-3.519,-3.519,-3.519,-3.5207,-3.5239,-3.5296,-3.5383,-3.5507,-3.5631,-3.5713,-3.5745,-3.5794,-3.5846,-3.5883,-3.5889,-3.5889,-3.5889,-3.5889,-3.5889,-3.5889,-3.5889,-3.5889,-3.5889,-3.5889,-3.5889,-3.5889,-3.5889,-3.5889,-3.5889,-3.5889,-3.5889,-3.5889,-3.5889,-3.5889,-3.5889,-3.5889,-3.5889,-3.5889,-3.5889,-3.5894,-3.5919,-3.5924,-3.5929,-3.589,-3.5914,-3.5938,-3.5209,-3.519,-3.519,-3.5744,-3.6528,-3.7234,-3.7636,-3.775,-3.7789,-3.7808,-3.775,-3.7789,-3.7406,-3.6719,-3.6434,-3.6012,-3.5477,-3.5248,-3.5209,-3.519,-3.519,-3.519,-3.519,-3.519,-3.519,-3.519,-3.519,-3.519,-3.519,-3.519,-3.519,-3.519,-3.519,-3.519,-3.519,-3.519,-3.519,-3.519,-3.519,-3.519,-3.519,-3.519,-3.519,-3.519,-3.519,-3.519,-3.519,-3.519,-3.519,-3.519,-3.519,-3.519,-3.519,-3.519,-3.519,-3.519,-3.519,-3.519,-3.519,-3.519,-3.519,-3.519,-3.519,-3.519,-3.519,-3.519,-3.519,-3.519,-3.519,-3.519,-3.519,-3.519,-3.5226,-3.527,-3.534,-3.5432,-3.5554,-3.566,-3.5741,-3.5779,-3.5813,-3.5833,-3.5827,-3.5833,-3.5846,-3.5852,-3.5852,-3.5889,-3.5889,-3.5889,-3.5889,-3.5889,-3.5889,-3.5889,-3.5889,-3.5889,-3.5889,-3.5889,-3.5889,-3.5889,-3.5889,-3.5889,-3.5889,-3.5889,-3.5889,-3.5889,-3.5894,-3.5899,-3.5909,-3.5934,-3.5958,-3.5958,-3.5942,-3.5962,-3.599,-3.519,-3.519,-3.519,-3.5362,-3.5572,-3.584,-3.6566,-3.7597,-3.7693,-3.7693,-3.7655,-3.7082,-3.6661,-3.6453,-3.5842,-3.5477,-3.5305,-3.519,-3.519,-3.519,-3.519,-3.519,-3.519,-3.519,-3.519,-3.519,-3.519,-3.519,-3.519,-3.519,-3.519,-3.519,-3.519,-3.519,-3.519,-3.519,-3.519,-3.519,-3.519,-3.519,-3.519,-3.519,-3.519,-3.519,-3.519,-3.519,-3.519,-3.519,-3.519,-3.519,-3.519,-3.519,-3.519,-3.519,-3.519,-3.519,-3.519,-3.519,-3.519,-3.519,-3.519,-3.519,-3.519,-3.519,-3.519,-3.519,-3.519,-3.519,-3.519,-3.519,-3.519,-3.519,-3.5223,-3.53,-3.5369,-3.5445,-3.5554,-3.562,-3.5697,-3.5706,-3.5752,-3.5749,-3.5741,-3.5772,-3.5787,-3.5794,-3.5814,-3.5858,-3.5889,-3.5889,-3.5889,-3.5889,-3.5889,-3.5889,-3.5889,-3.5889,-3.5889,-3.5889,-3.5889,-3.5889,-3.5889,-3.5889,-3.5889,-3.5889,-3.5894,-3.5899,-3.5885,-3.5909,-3.5938,-3.5962,-3.5986,-3.599,-3.5994,-3.5994,-3.6017,-3.519,-3.519,-3.519,-3.519,-3.519,-3.519,-3.584,-3.6623,-3.67,-3.6719,-3.6642,-3.6203,-3.5976,-3.5897,-3.5458,-3.5209,-3.5209,-3.519,-3.519,-3.519,-3.519,-3.519,-3.519,-3.519,-3.519,-3.519,-3.519,-3.519,-3.519,-3.519,-3.519,-3.519,-3.519,-3.519,-3.519,-3.519,-3.519,-3.519,-3.519,-3.519,-3.519,-3.519,-3.519,-3.519,-3.519,-3.519,-3.519,-3.519,-3.519,-3.519,-3.519,-3.519,-3.519,-3.519,-3.519,-3.519,-3.519,-3.519,-3.519,-3.519,-3.519,-3.519,-3.519,-3.519,-3.519,-3.519,-3.519,-3.519,-3.519,-3.519,-3.519,-3.519,-3.5254,-3.5296,-3.5383,-3.5432,-3.5495,-3.5585,-3.5607,-3.5618,-3.5639,-3.564,-3.565,-3.5687,-3.5737,-3.5827,-3.5846,-3.5878,-3.5889,-3.5889,-3.5889,-3.5889,-3.5889,-3.5889,-3.5889,-3.5889,-3.5889,-3.5889,-3.5889,-3.5889,-3.5889,-3.5889,-3.5908,-3.5894,-3.5894,-3.5904,-3.5909,-3.5923,-3.5947,-3.5994,-3.6017,-3.6001,-3.6004,-3.6004,-3.6007,-3.519,-3.519,-3.519,-3.519,-3.519,-3.519,-3.5248,-3.519,-3.5362,-3.5248,-3.5305,-3.5248,-3.5305,-3.5381,-3.5209,-3.519,-3.519,-3.519,-3.519,-3.519,-3.519,-3.519,-3.519,-3.519,-3.519,-3.519,-3.519,-3.519,-3.519,-3.519,-3.519,-3.519,-3.519,-3.519,-3.519,-3.519,-3.519,-3.519,-3.519,-3.519,-3.519,-3.519,-3.519,-3.519,-3.519,-3.519,-3.519,-3.519,-3.519,-3.519,-3.519,-3.519,-3.519,-3.519,-3.519,-3.519,-3.519,-3.519,-3.519,-3.519,-3.519,-3.519,-3.519,-3.519,-3.519,-3.519,-3.519,-3.519,-3.519,-3.519,-3.519,-3.519,-3.5239,-3.53,-3.534,-3.5378,-3.5445,-3.547,-3.5445,-3.5457,-3.5457,-3.5476,-3.5579,-3.5601,-3.5696,-3.582,-3.5883,-3.5889,-3.5889,-3.5889,-3.5889,-3.5889,-3.5889,-3.5889,-3.5889,-3.5889,-3.5889,-3.5889,-3.5889,-3.5894,-3.5894,-3.5894,-3.5914,-3.5919,-3.5904,-3.5909,-3.5919,-3.5947,-3.5974,-3.6001,-3.6004,-3.601,-3.601,-3.601,-3.601,-3.519,-3.519,-3.519,-3.519,-3.519,-3.519,-3.519,-3.519,-3.519,-3.519,-3.519,-3.519,-3.519,-3.519,-3.519,-3.519,-3.519,-3.519,-3.519,-3.519,-3.519,-3.519,-3.519,-3.519,-3.519,-3.519,-3.519,-3.519,-3.519,-3.519,-3.519,-3.519,-3.519,-3.519,-3.519,-3.519,-3.519,-3.519,-3.519,-3.519,-3.519,-3.519,-3.519,-3.519,-3.519,-3.519,-3.519,-3.519,-3.519,-3.519,-3.519,-3.519,-3.519,-3.519,-3.519,-3.519,-3.519,-3.519,-3.519,-3.519,-3.519,-3.519,-3.519,-3.519,-3.519,-3.519,-3.519,-3.519,-3.519,-3.519,-3.519,-3.5207,-3.5223,-3.527,-3.5315,-3.534,-3.5397,-3.5355,-3.5307,-3.5292,-3.5311,-3.5391,-3.5488,-3.557,-3.565,-3.5737,-3.5846,-3.5889,-3.5889,-3.5889,-3.5889,-3.5889,-3.5889,-3.5889,-3.5889,-3.5889,-3.5889,-3.5889,-3.5889,-3.5894,-3.588,-3.5924,-3.5968,-3.5929,-3.5914,-3.5942,-3.5966,-3.5974,-3.6001,-3.6007,-3.6007,-3.601,-3.601,-3.601,-3.601,-3.519,-3.519,-3.519,-3.519,-3.519,-3.519,-3.519,-3.519,-3.519,-3.519,-3.519,-3.519,-3.519,-3.519,-3.519,-3.519,-3.519,-3.519,-3.519,-3.519,-3.519,-3.519,-3.519,-3.519,-3.519,-3.519,-3.519,-3.519,-3.519,-3.519,-3.519,-3.519,-3.519,-3.519,-3.519,-3.519,-3.519,-3.519,-3.519,-3.519,-3.519,-3.519,-3.519,-3.519,-3.519,-3.519,-3.519,-3.519,-3.519,-3.519,-3.519,-3.519,-3.519,-3.519,-3.519,-3.519,-3.519,-3.519,-3.5171,-3.5171,-3.5171,-3.5152,-3.519,-3.519,-3.519,-3.519,-3.519,-3.519,-3.519,-3.519,-3.519,-3.519,-3.5226,-3.5239,-3.5239,-3.5251,-3.5285,-3.527,-3.5254,-3.5235,-3.5296,-3.5418,-3.5523,-3.5611,-3.5704,-3.5794,-3.5883,-3.5889,-3.5889,-3.5889,-3.5889,-3.5889,-3.5889,-3.5889,-3.5889,-3.5889,-3.5889,-3.5889,-3.5894,-3.5899,-3.5904,-3.5977,-3.6001,-3.5962,-3.5966,-3.599,-3.5997,-3.602,-3.6004,-3.601,-3.601,-3.601,-3.601,-3.601,-3.601,-3.5095,-3.519,-3.519,-3.519,-3.519,-3.519,-3.519,-3.519,-3.519,-3.519,-3.519,-3.519,-3.519,-3.519,-3.519,-3.519,-3.519,-3.519,-3.519,-3.519,-3.519,-3.519,-3.519,-3.519,-3.519,-3.519,-3.519,-3.519,-3.519,-3.519,-3.519,-3.519,-3.519,-3.519,-3.519,-3.519,-3.519,-3.519,-3.519,-3.519,-3.519,-3.519,-3.519,-3.519,-3.519,-3.519,-3.519,-3.519,-3.519,-3.519,-3.519,-3.519,-3.519,-3.519,-3.519,-3.519,-3.519,-3.5114,-3.5018,-3.5095,-3.504,-3.504,-3.5117,-3.5171,-3.5171,-3.519,-3.519,-3.519,-3.519,-3.519,-3.519,-3.519,-3.519,-3.5226,-3.519,-3.519,-3.5209,-3.5209,-3.5209,-3.5207,-3.5307,-3.5457,-3.5568,-3.565,-3.5745,-3.5846,-3.5889,-3.5889,-3.5889,-3.5889,-3.5889,-3.5894,-3.5894,-3.5894,-3.5894,-3.5894,-3.5894,-3.5924,-3.5943,-3.5924,-3.5929,-3.5981,-3.6009,-3.6009,-3.6013,-3.602,-3.6004,-3.6007,-3.601,-3.601,-3.601,-3.601,-3.601,-3.601,-3.601,-3.4617,-3.519,-3.519,-3.519,-3.519,-3.519,-3.519,-3.519,-3.519,-3.519,-3.519,-3.519,-3.519,-3.519,-3.519,-3.519,-3.519,-3.519,-3.519,-3.519,-3.519,-3.519,-3.519,-3.519,-3.519,-3.519,-3.519,-3.519,-3.519,-3.519,-3.519,-3.519,-3.519,-3.519,-3.519,-3.519,-3.519,-3.519,-3.519,-3.519,-3.519,-3.519,-3.519,-3.519,-3.519,-3.519,-3.519,-3.519,-3.519,-3.519,-3.519,-3.519,-3.5152,-3.5095,-3.5037,-3.4904,-3.4942,-3.4579,-3.4464,-3.4636,-3.4598,-3.4489,-3.4642,-3.5095,-3.5114,-3.519,-3.519,-3.519,-3.519,-3.519,-3.519,-3.519,-3.519,-3.519,-3.519,-3.519,-3.519,-3.5226,-3.5242,-3.5281,-3.5364,-3.55,-3.5621,-3.5693,-3.576,-3.5846,-3.5889,-3.5889,-3.5889,-3.5889,-3.5889,-3.5894,-3.5899,-3.5885,-3.5885,-3.5885,-3.5904,-3.5953,-3.5977,-3.5977,-3.5981,-3.599,-3.6017,-3.6017,-3.6001,-3.6007,-3.601,-3.601,-3.601,-3.601,-3.601,-3.601,-3.601,-3.601,-3.601]}]]